[[{"header":{"parameterUnit":"m.s-1","parameterCategory":1,"la1":31.0,"la2":29.5877,"lo1":-88.7671,"lo2":-86.6584,"dy":0.0162,"dx":0.0185,"nx":115,"ny":88,"refTime":"2023-08-12T18:00:00:Z","depth":0,"parameterNumber":2,"parameterNumberName":"U-component_of_WINDS"},"data":[0.0,0.0,0.0,0.0,0.0,0.0,0.0,0.0,0.0,0.0,0.0,0.0,0.0,0.0,0.0,0.0,0.0,0.0,0.0,0.0,0.0,0.0,0.0,0.0,0.0,0.0,0.0,0.0,0.0,0.0,0.0,0.0,0.0,0.0,0.0,0.0,0.0,0.0,0.0,0.0,0.0,0.0,0.0,0.0,0.0,0.0,0.0,0.0,0.0,0.0,0.0,0.0,0.0,0.0,0.0,0.0,0.0,0.0,0.0,0.0,0.0,0.0,0.0,0.0,0.0,0.0,0.0,0.0,0.0,0.0,0.0,0.0,0.0,0.0,0.0,0.0,0.0,0.0,0.0,0.0,0.0,0.0,0.0,0.0,0.0,0.0,0.0,0.0,0.0,0.0,0.0,0.0,0.0,0.0,0.0,0.0,0.0,0.0,0.0,0.0,0.0,0.0,0.0,0.0,0.0,0.0,0.0,0.0,0.0,0.0,0.0,0.0,0.0,0.0,0.0,0.0,0.0,0.0,0.0,0.0,0.0,0.0,0.0,0.0,0.0,0.0,0.0,0.0,0.0,0.0,0.0,0.0,0.0,0.0,0.0,0.0,0.0,0.0,0.0,0.0,0.0,0.0,0.0,0.0,0.0,0.0,0.0,0.0,0.0,0.0,0.0,0.0,0.0,0.0,0.0,0.0,0.0,0.0,0.0,0.0,0.0,0.0,0.0,0.0,0.0,0.0,0.0,0.0,0.0,0.0,0.0,0.0,0.0,0.0,0.0,0.0,0.0,0.0,0.0,0.0,0.0,0.0,0.0,0.0,0.0,0.0,0.0,0.0,0.0,0.0,0.0,0.0,0.0,0.0,0.0,0.0,0.0,0.0,0.0,0.0,0.0,0.0,0.0,0.0,0.0,0.0,0.0,0.0,0.0,0.0,0.0,0.0,0.0,0.0,0.0,0.0,0.0,0.0,0.0,0.0,0.0,0.0,0.0,0.0,0.0,0.0,0.0,0.0,0.0,0.0,0.0,0.0,0.0,0.0,0.0,0.0,0.0,0.0,0.0,0.0,0.0,0.0,0.0,0.0,0.0,0.0,0.0,0.0,0.0,0.0,0.0,0.0,0.0,0.0,0.0,0.0,0.0,0.0,0.0,0.0,0.0,0.0,0.0,0.0,0.0,0.0,0.0,0.0,0.0,0.0,0.0,0.0,0.0,0.0,0.0,0.0,0.0,0.0,0.0,0.0,0.0,0.0,0.0,0.0,0.0,0.0,0.0,0.0,0.0,0.0,0.0,0.0,0.0,0.0,0.0,0.0,0.0,0.0,0.0,0.0,0.0,0.0,0.0,0.0,0.0,0.0,0.0,0.0,0.0,0.0,0.0,0.0,0.0,0.0,0.0,0.0,0.0,0.0,0.0,0.0,0.0,0.0,0.0,0.0,0.0,0.0,0.0,0.0,0.0,0.0,0.0,0.0,0.0,0.0,0.0,0.0,0.0,0.0,0.0,0.0,0.0,0.0,0.0,0.0,0.0,0.0,0.0,0.0,0.0,0.0,0.0,0.0,0.0,0.0,0.0,0.0,0.0,0.0,0.0,0.0,0.0,0.0,0.0,0.0,0.0,0.0,0.0,0.0,0.0,0.0,0.0,0.0,0.0,0.0,0.0,0.0,0.0,0.0,0.0,0.0,0.0,0.0,0.0,0.0,0.0,0.0,0.0,0.0,0.0,0.0,0.0,0.0,0.0,0.0,0.0,0.0,0.0,0.0,0.0,0.0,0.0,0.0,0.0,0.0,0.0,0.0,0.0,0.0,0.0,0.0,0.0,0.0,0.0,0.0,0.0,0.0,0.0,0.0,0.0,0.0,0.0,0.0,0.0,0.0,0.0,0.0,0.0,0.0,0.0,0.0,0.0,0.0,0.0,0.0,0.0,0.0,0.0,0.0,0.0,0.0,0.0,0.0,0.0,0.0,0.0,0.0,0.0,0.0,0.0,0.0,0.0,0.0,0.0,0.0,0.0,0.0,0.0,0.0,0.0,0.0,0.0,0.0,0.0,0.0,0.0,0.0,0.0,0.0,0.0,0.0,0.0,0.0,0.0,0.0,0.0,0.0,0.0,0.0,0.0,0.0,0.0,0.0,0.0,0.0,0.0,0.0,0.0,0.0,0.0,0.0,0.0,0.0,0.0,0.0,0.0,0.0,0.0,0.0,0.0,0.0,0.0,0.0,0.0,0.0,0.0,0.0,0.0,0.0,0.0,0.0,0.0,0.0,0.0,0.0,0.0,0.0,0.0,0.0,0.0,0.0,0.0,0.0,0.0,0.0,0.0,0.0,0.0,0.0,0.0,0.0,0.0,0.0,0.0,0.0,0.0,0.0,0.0,0.0,0.0,0.0,0.0,0.0,0.0,0.0,0.0,0.0,0.0,0.0,0.0,0.0,0.0,0.0,0.0,0.0,0.0,0.0,0.0,0.0,0.0,0.0,0.0,0.0,0.0,0.0,0.0,0.0,0.0,0.0,0.0,0.0,0.0,0.0,0.0,0.0,0.0,0.0,0.0,0.0,0.0,0.0,0.0,0.0,0.0,0.0,0.0,0.0,0.0,0.0,0.0,0.0,0.0,0.0,0.0,0.0,0.0,0.0,0.0,0.0,0.0,0.0,0.0,0.0,0.0,0.0,0.0,0.0,0.0,0.0,0.0,0.0,0.0,0.0,0.0,0.0,0.0,0.0,0.0,0.0,0.0,0.0,0.0,0.0,0.0,0.0,0.0,0.0,0.0,0.0,0.0,0.0,0.0,0.0,0.0,0.0,0.0,0.0,0.0,0.0,0.0,0.0,0.0,0.0,0.0,0.0,0.0,0.0,0.0,0.0,0.0,0.0,0.0,0.0,0.0,0.0,0.0,0.0,0.0,0.0,0.0,0.0,0.0,0.0,0.0,0.0,0.0,0.0,0.0,0.0,0.0,0.0,0.0,0.0,0.0,0.0,0.0,0.0,0.0,0.0,0.0,0.0,0.0,0.0,0.0,0.0,0.0,0.0,0.0,0.0,0.0,0.0,0.0,0.0,0.0,0.0,0.0,0.0,0.0,0.0,0.0,0.0,0.0,0.0,0.0,0.0,0.0,0.0,0.0,0.0,0.0,0.0,0.0,0.0,0.0,0.0,0.0,0.0,0.0,0.0,0.0,0.0,0.0,0.0,0.0,0.0,0.0,0.0,0.0,0.0,0.0,0.0,0.0,0.0,0.0,0.0,0.0,0.0,0.0,0.0,0.0,0.0,0.0,0.0,0.0,0.0,0.0,0.0,0.0,0.0,0.0,0.0,0.0,0.0,0.0,0.0,0.0,0.0,0.0,0.0,0.0,0.0,0.0,0.0,0.0,0.0,0.0,0.0,0.0,0.0,0.0,0.0,0.0,0.0,0.0,0.0,0.0,0.0,0.0,0.0,0.0,0.0,0.0,0.0,0.0,0.0,0.0,0.0,0.0,0.0,0.0,0.0,0.0,0.0,0.0,0.0,0.0,0.0,0.0,0.0,0.0,0.0,0.0,0.0,0.0,0.0,0.0,0.0,0.0,0.0,0.0,0.0,0.0,0.0,0.0,0.0,0.0,0.0,0.0,0.0,0.0,0.0,0.0,0.0,0.0,0.0,0.0,0.0,0.0,0.0,0.0,0.0,0.0,0.0,0.0,0.0,0.0,0.0,0.0,0.0,0.0,0.0,0.0,0.0,0.0,0.0,0.0,0.0,0.0,0.0,0.0,0.0,0.0,0.0,0.0,0.0,0.0,0.0,0.0,0.0,0.0,0.0,0.0,0.0,0.0,0.0,0.0,0.0,0.0,0.0,0.0,0.0,0.0,0.0,0.0,0.0,0.0,0.0,0.0,0.0,0.0,0.0,0.0,0.0,0.0,0.0,0.0,0.0,0.0,0.0,0.0,0.0,0.0,0.0,0.0,0.0,0.0,0.0,0.0,0.0,0.0,0.0,0.0,0.0,0.0,0.0,0.0,0.0,0.0,0.0,0.0,0.0,0.0,0.0,0.0,0.0,0.0,0.0,0.0,0.0,0.0,0.0,0.0,0.0,0.0,0.0,0.0,0.0,0.0,0.0,0.0,0.0,0.0,0.0,0.0,0.0,0.0,0.0,0.0,0.0,0.0,0.0,0.0,0.0,0.0,0.0,0.0,0.0,0.0,0.0,0.0,0.0,0.0,0.0,0.0,0.0,0.0,0.0,0.0,0.0,0.0,0.0,0.0,0.0,0.0,0.0,0.0,0.0,-0.6092,0.0,0.0,0.0,0.0,0.0,0.0,0.0,0.0,0.0,0.0,0.0,0.0,0.0,0.0,0.0,0.0,0.0,0.0,0.0,0.0,0.0,0.0,0.0,0.0,0.0,0.0,0.0,0.0,0.0,0.0,0.0,0.0,0.0,0.0,0.0,0.0,0.0,0.0,0.0,0.0,0.0,0.0,0.0,0.0,0.0,0.0,0.0,0.0,0.0,0.0,0.0,0.0,0.0,0.0,0.0,0.0,0.0,0.0,0.0,0.0,0.0,0.0,0.0,0.0,0.0,0.0,0.0,0.0,0.0,0.0,0.0,0.0,0.0,0.0,0.0,0.0,0.0,0.0,0.0,0.0,0.0,0.0,0.0,0.0,0.0,0.0,0.0,0.0,0.0,0.0,0.0,0.0,0.0,0.0,0.0,0.0,0.0,0.0,0.0,0.0,0.0,0.0,0.0,0.0,0.0,0.0,0.0,0.0,0.0,0.0,-0.5304,-0.5302,-0.548,-0.5535,-0.548,0.0,0.0,0.0,0.0,0.0,0.0,0.0,0.0,0.0,0.0,0.0,0.0,0.0,0.0,0.0,0.0,0.0,0.0,0.0,0.0,0.0,0.0,0.0,0.0,0.0,0.0,0.0,0.0,0.0,0.0,0.0,0.0,0.0,0.0,0.0,0.0,0.0,0.0,0.0,0.0,0.0,0.0,0.0,0.0,0.0,0.0,0.0,0.0,0.0,0.0,0.0,0.0,0.0,0.0,0.0,0.0,0.0,0.0,0.0,0.0,0.0,0.0,0.0,0.0,0.0,0.0,0.0,0.0,0.0,0.0,0.0,0.0,0.0,0.0,0.0,0.0,0.0,0.0,0.0,0.0,0.0,0.0,0.0,0.0,0.0,0.0,0.0,0.0,0.0,0.0,0.0,0.0,0.0,0.0,0.0,0.0,0.0,0.0,0.0,0.0,0.0,0.0,0.0,0.0,0.0,0.0,0.0,0.0,0.0,0.0,0.0,0.0,-0.5054,-0.502,-0.5306,0.0,0.0,0.0,0.0,0.0,0.0,0.0,0.0,0.0,0.0,0.0,0.0,0.0,0.0,0.0,0.0,0.0,0.0,0.0,0.0,0.0,0.0,0.0,0.0,0.0,0.0,0.0,0.0,0.0,0.0,0.0,0.0,0.0,0.0,0.0,0.0,0.0,0.0,0.0,0.0,0.0,0.0,0.0,0.0,0.0,0.0,0.0,0.0,0.0,0.0,0.0,0.0,0.0,0.0,0.0,0.0,0.0,0.0,0.0,0.0,0.0,0.0,0.0,0.0,0.0,0.0,0.0,0.0,0.0,0.0,0.0,0.0,0.0,0.0,0.0,0.0,0.0,0.0,0.0,0.0,0.0,0.0,0.0,0.0,0.0,0.0,0.0,0.0,0.0,0.0,0.0,0.0,0.0,0.0,0.0,0.0,0.0,0.0,0.0,0.0,0.0,0.0,0.0,0.0,0.0,0.0,0.0,0.0,0.0,0.0,-0.4001,-0.5257,-0.5274,0.0,-0.5293,0.0,0.0,0.0,0.0,0.0,0.0,0.0,0.0,0.0,0.0,0.0,0.0,0.0,0.0,0.0,0.0,0.0,0.0,0.0,0.0,0.0,0.0,0.0,0.0,0.0,0.0,0.0,0.0,0.0,0.0,0.0,0.0,0.0,0.0,0.0,0.0,0.0,0.0,0.0,0.0,0.0,0.0,0.0,0.0,0.0,0.0,0.0,0.0,0.0,0.0,0.0,0.0,0.0,0.0,0.0,0.0,0.0,0.0,0.0,0.0,0.0,0.0,0.0,0.0,0.0,0.0,0.0,0.0,0.0,0.0,0.0,0.0,0.0,0.0,0.0,0.0,0.0,0.0,0.0,0.0,0.0,0.0,0.0,0.0,0.0,0.0,0.0,0.0,0.0,0.0,0.0,0.0,0.0,0.0,0.0,0.0,0.0,0.0,0.0,0.0,0.0,0.0,0.0,0.0,0.0,0.0,0.0,0.0,0.0,0.0,-0.3454,-0.3437,-0.5302,-0.5832,0.0,0.0,0.0,0.0,0.0,0.0,0.0,0.0,0.0,0.0,0.0,0.0,0.0,0.0,0.0,0.0,0.0,0.0,0.0,0.0,0.0,0.0,0.0,0.0,0.0,0.0,0.0,0.0,0.0,0.0,0.0,0.0,0.0,0.0,0.0,0.0,0.0,0.0,0.0,0.0,0.0,0.0,0.0,0.0,0.0,0.0,0.0,0.0,0.0,0.0,0.0,0.0,0.0,0.0,0.0,0.0,0.0,0.0,0.0,0.0,0.0,0.0,0.0,0.0,0.0,0.0,0.0,0.0,0.0,0.0,0.0,0.0,0.0,0.0,0.0,0.0,0.0,0.0,0.0,0.0,0.0,0.0,0.0,0.0,0.0,0.0,0.0,0.0,0.0,0.0,0.0,0.0,0.0,0.0,0.0,0.0,0.0,0.0,0.0,0.0,0.0,0.0,0.0,0.0,0.0,0.0,0.0,0.0,0.0,0.0,-0.3366,-0.3337,-0.293,-0.4766,-0.5483,-0.4728,0.0,0.0,0.0,0.0,0.0,0.0,0.0,0.0,0.0,0.0,0.0,0.0,0.0,0.0,0.0,0.0,0.0,0.0,0.0,0.0,0.0,0.0,0.0,0.0,0.0,0.0,0.0,0.0,0.0,0.0,0.0,0.0,0.0,0.0,0.0,0.0,0.0,0.0,0.0,0.0,0.0,0.0,0.0,0.0,0.0,0.0,0.0,0.0,0.0,0.0,0.0,0.0,0.0,0.0,0.0,0.0,0.0,0.0,0.0,0.0,0.0,0.0,0.0,0.0,0.0,0.0,0.0,0.0,0.0,0.0,0.0,0.0,0.0,0.0,0.0,0.0,0.0,0.0,0.0,0.0,0.0,0.0,0.0,0.0,0.0,0.0,0.0,0.0,0.0,0.0,0.0,0.0,0.0,0.0,0.0,0.0,0.0,0.0,0.0,0.0,0.0,0.0,0.0,0.0,0.0,0.0,0.0,0.0,-0.3483,-0.3594,-0.38,-0.4226,-0.3397,-0.3711,0.0,0.0,0.0,0.0,0.0,0.0,0.0,0.0,0.0,0.0,0.0,0.0,0.0,0.0,0.0,0.0,0.0,0.0,0.0,0.0,0.0,0.0,0.0,0.0,0.0,0.0,0.0,0.0,0.0,0.0,0.0,0.0,0.0,0.0,0.0,0.0,0.0,0.0,0.0,0.0,0.0,0.0,0.0,0.0,0.0,0.0,0.0,0.0,0.0,0.0,0.0,0.0,0.0,0.0,0.0,0.0,0.0,0.0,0.0,0.0,0.0,0.0,0.0,0.0,0.0,0.0,0.0,0.0,0.0,0.0,0.0,0.0,0.0,0.0,0.0,0.0,0.0,0.0,0.0,0.0,0.0,0.0,0.0,0.0,0.0,0.0,0.0,0.0,0.0,0.0,0.0,0.0,0.0,0.0,0.0,0.0,0.0,0.0,0.0,0.0,0.0,0.0,0.0,0.0,0.0,0.0,0.0,0.0,0.0,-0.2998,-0.3405,-0.3547,-0.3445,-0.2942,-0.308,0.0,0.0,0.0,0.0,0.0,0.0,0.0,0.0,0.0,0.0,0.0,0.0,0.0,0.0,0.0,0.0,0.0,0.0,0.0,0.0,0.0,0.0,0.0,0.0,0.0,0.0,0.0,0.0,0.0,0.0,0.0,0.0,0.0,0.0,0.0,0.0,0.0,0.0,0.0,0.0,0.0,0.0,0.0,0.0,0.0,0.0,0.0,0.0,0.0,0.0,0.0,0.0,0.0,0.0,0.0,0.0,0.0,0.0,0.0,0.0,0.0,0.0,0.0,0.0,0.0,0.0,0.0,0.0,0.0,0.0,0.0,0.0,0.0,0.0,0.0,0.0,0.0,0.0,0.0,0.0,0.0,0.0,0.0,0.0,0.0,0.0,0.0,0.0,0.0,0.0,0.0,0.0,0.0,0.0,0.0,0.0,0.0,0.0,0.0,0.0,0.0,0.0,0.0,0.0,0.0,0.0,0.0,0.0,0.0,-0.2857,0.0,-0.3458,-0.3141,-0.3232,-0.3152,0.0,0.0,0.0,0.0,0.0,0.0,0.0,0.0,0.0,0.0,0.0,0.0,0.0,0.0,0.0,0.0,0.0,0.0,0.0,0.0,0.0,0.0,0.0,0.0,0.0,0.0,0.0,0.0,0.0,0.0,0.0,0.0,0.0,0.0,0.0,0.0,0.0,0.0,0.0,0.0,0.0,0.0,0.0,0.0,0.0,0.0,0.0,0.0,0.0,0.0,0.0,0.0,0.0,0.0,0.0,0.0,0.0,0.0,0.0,0.0,0.0,0.0,0.0,0.0,0.0,0.0,0.0,0.0,0.0,0.0,0.0,0.0,0.0,0.0,0.0,0.0,0.0,0.0,0.0,0.0,0.0,0.0,0.0,0.0,0.0,0.0,0.0,0.0,0.0,0.0,0.0,0.0,0.0,0.0,0.0,0.0,0.0,0.0,0.0,0.0,0.0,0.0,0.0,0.0,0.0,0.0,0.0,0.0,-0.2843,-0.3093,-0.3429,-0.3565,-0.3615,-0.4082,-0.3966,0.0,0.0,0.0,0.0,0.0,0.0,0.0,0.0,0.0,0.0,0.0,0.0,0.0,0.0,0.0,0.0,0.0,0.0,0.0,0.0,0.0,0.0,0.0,0.0,0.0,0.0,0.0,0.0,0.0,0.0,0.0,0.0,0.0,0.0,0.0,0.0,0.0,0.0,0.0,0.0,0.0,0.0,0.0,0.0,0.0,0.0,0.0,0.0,0.0,0.0,0.0,0.0,0.0,0.0,0.0,0.0,0.0,0.0,0.0,0.0,0.0,0.0,0.0,0.0,0.0,0.0,0.0,0.0,0.0,0.0,0.0,0.0,0.0,0.0,0.0,0.0,0.0,0.0,0.0,0.0,0.0,0.0,0.0,0.0,0.0,0.0,0.0,0.0,0.0,0.0,0.0,0.0,0.0,0.0,0.0,0.0,0.0,0.0,0.0,0.0,0.0,0.0,0.0,0.0,0.0,0.0,0.0,0.0,0.0,-0.3676,-0.3422,-0.3484,-0.3999,-0.3897,-0.3807,0.0,0.0,0.0,0.0,0.0,0.0,0.0,0.0,0.0,0.0,0.0,0.0,0.0,0.0,0.0,0.0,0.0,0.0,0.0,0.0,0.0,0.0,0.0,0.0,0.0,0.0,0.0,0.0,0.0,0.0,0.0,0.0,0.0,0.0,0.0,0.0,0.0,0.0,0.0,0.0,0.0,0.0,0.0,0.0,0.0,0.0,0.0,0.0,0.0,0.0,0.0,0.0,0.0,0.0,0.0,0.0,0.0,0.0,0.0,0.0,0.0,0.0,0.0,0.0,0.0,0.0,0.0,0.0,0.0,0.0,0.0,0.0,0.0,0.0,0.0,0.0,0.0,0.0,0.0,0.0,0.0,0.0,0.0,0.0,0.0,0.0,0.0,0.0,0.0,0.0,0.0,0.0,0.0,0.0,0.0,0.0,0.0,0.0,0.0,0.0,0.0,0.0,0.0,0.0,0.0,0.0,0.0,0.0,0.0,-0.3954,-0.367,-0.3684,-0.4066,-0.3976,-0.3877,-0.3832,0.0,0.0,0.0,0.0,0.0,0.0,0.0,0.0,0.0,0.0,0.0,0.0,0.0,0.0,0.0,0.0,0.0,0.0,0.0,0.0,0.0,0.0,0.0,0.0,0.0,0.0,0.0,0.0,0.0,0.0,0.0,0.0,0.0,0.0,0.0,0.0,0.0,0.0,0.0,0.0,0.0,0.0,0.0,0.0,0.0,0.0,0.0,0.0,0.0,0.0,0.0,0.0,0.0,0.0,0.0,0.0,0.0,0.0,0.0,0.0,0.0,0.0,0.0,0.0,0.0,0.0,0.0,0.0,0.0,0.0,0.0,0.0,0.0,0.0,0.0,0.0,0.0,0.0,0.0,0.0,0.0,0.0,0.0,0.0,0.0,0.0,0.0,0.0,0.0,0.0,0.0,0.0,0.0,0.0,0.0,0.0,0.0,0.0,0.0,0.0,0.0,0.0,0.0,0.0,0.0,0.0,0.0,0.0,-0.4069,-0.414,-0.4134,-0.4027,-0.4256,-0.4143,0.0,0.0,0.0,0.0,0.0,0.0,0.0,0.0,0.0,0.0,0.0,0.0,0.0,0.0,0.0,0.0,0.0,0.0,0.0,0.0,0.0,0.0,0.0,0.0,0.0,0.0,0.0,0.0,0.0,0.0,0.0,0.0,0.0,0.0,0.0,0.0,0.0,0.0,0.0,0.0,0.0,0.0,0.0,0.0,0.0,0.0,0.0,0.0,0.0,0.0,0.0,0.0,0.0,0.0,0.0,0.0,0.0,0.0,0.0,0.0,0.0,0.0,0.0,0.0,0.0,0.0,0.0,0.0,0.0,0.0,0.0,0.0,0.0,0.0,0.0,0.0,0.0,0.0,0.0,0.0,0.0,0.0,0.0,0.0,0.0,0.0,0.0,0.0,0.0,0.0,0.0,0.0,0.0,0.0,0.0,0.0,0.0,0.0,0.0,0.0,0.0,0.0,0.0,0.0,0.0,0.0,0.0,0.0,0.0,-0.4622,-0.4368,-0.4464,-0.4987,-0.4528,-0.4257,0.0,0.0,0.0,0.0,0.0,0.0,0.0,0.0,0.0,0.0,0.0,0.0,0.0,0.0,0.0,0.0,0.0,0.0,0.0,0.0,0.0,0.0,0.0,0.0,0.0,0.0,0.0,0.0,0.0,0.0,0.0,0.0,0.0,0.0,0.0,0.0,0.0,0.0,0.0,0.0,0.0,0.0,0.0,0.0,0.0,0.0,0.0,0.0,0.0,0.0,0.0,0.0,0.0,0.0,0.0,0.0,0.0,0.0,0.0,0.0,0.0,0.0,0.0,0.0,0.0,0.0,0.0,0.0,0.0,0.0,0.0,0.0,0.0,0.0,0.0,0.0,0.0,0.0,0.0,0.0,0.0,0.0,0.0,0.0,0.0,0.0,0.0,0.0,0.0,0.0,0.0,0.0,0.0,0.0,0.0,0.0,0.0,0.0,0.0,0.0,0.0,0.0,0.0,0.0,0.0,0.0,0.0,0.0,-0.4127,-0.4907,-0.462,-0.4728,-0.5382,-0.4775,-0.4381,0.0,0.0,0.0,0.0,0.0,0.0,0.0,0.0,0.0,0.0,0.0,0.0,0.0,0.0,0.0,0.0,0.0,0.0,0.0,0.0,0.0,0.0,0.0,0.0,0.0,0.0,0.0,0.0,0.0,0.0,0.0,0.0,0.0,0.0,0.0,0.0,0.0,0.0,0.0,0.0,0.0,0.0,0.0,0.0,0.0,0.0,0.0,0.0,0.0,0.0,0.0,0.0,0.0,0.0,0.0,0.0,0.0,0.0,0.0,0.0,0.0,0.0,0.0,0.0,0.0,0.0,0.0,0.0,0.0,0.0,0.0,0.0,0.0,0.0,0.0,0.0,0.0,0.0,0.0,0.0,0.0,0.0,0.0,0.0,0.0,0.0,0.0,0.0,0.0,0.0,0.0,0.0,0.0,0.0,0.0,0.0,0.0,0.0,0.0,0.0,0.0,0.0,0.0,0.0,0.0,0.0,0.0,0.0,-0.4289,-0.485,-0.4803,-0.4975,-0.5364,-0.5037,-0.4565,0.0,0.0,0.0,0.0,0.0,0.0,0.0,0.0,0.0,0.0,0.0,0.0,0.0,0.0,0.0,0.0,0.0,0.0,0.0,0.0,0.0,0.0,0.0,0.0,0.0,0.0,0.0,0.0,0.0,0.0,0.0,0.0,0.0,0.0,0.0,0.0,0.0,0.0,0.0,0.0,0.0,0.0,0.0,0.0,0.0,0.0,0.0,0.0,0.0,0.0,0.0,0.0,0.0,0.0,0.0,0.0,0.0,0.0,0.0,0.0,0.0,0.0,0.0,0.0,0.0,0.0,0.0,0.0,0.0,0.0,0.0,0.0,0.0,0.0,0.0,0.0,0.0,0.0,0.0,0.0,0.0,0.0,0.0,0.0,0.0,0.0,0.0,0.0,0.0,0.0,0.0,0.0,0.0,0.0,0.0,0.0,0.0,0.0,0.0,0.0,0.0,0.0,0.0,0.0,0.0,0.0,0.0,0.0,-0.408,-0.4587,-0.4706,-0.5016,-0.537,-0.5023,-0.5091,0.0,0.0,0.0,0.0,0.0,0.0,0.0,0.0,0.0,0.0,0.0,0.0,0.0,0.0,0.0,0.0,0.0,0.0,0.0,0.0,0.0,0.0,0.0,0.0,0.0,0.0,0.0,0.0,0.0,0.0,0.0,0.0,0.0,0.0,0.0,0.0,0.0,0.0,0.0,0.0,0.0,0.0,0.0,0.0,0.0,0.0,0.0,0.0,-0.3218,0.0,0.0,0.0,0.0,0.0,0.0,0.0,0.0,0.0,0.0,0.0,0.0,0.0,0.0,0.0,0.0,0.0,0.0,0.0,0.0,0.0,0.0,0.0,0.0,0.0,0.0,0.0,0.0,0.0,0.0,0.0,0.0,0.0,0.0,0.0,0.0,0.0,0.0,0.0,0.0,0.0,0.0,0.0,0.0,0.0,0.0,0.0,0.0,0.0,0.0,0.0,0.0,0.0,0.0,0.0,0.0,0.0,0.0,0.0,-0.4113,-0.4469,-0.4602,-0.4921,-0.538,-0.5173,-0.5171,0.0,0.0,0.0,0.0,0.0,0.0,0.0,0.0,0.0,0.0,0.0,0.0,0.0,0.0,0.0,0.0,0.0,0.0,0.0,0.0,0.0,0.0,0.0,0.0,0.0,0.0,0.0,0.0,0.0,0.0,0.0,0.0,0.0,0.0,0.0,0.0,0.0,0.0,0.0,0.0,0.0,0.0,0.0,0.0,0.0,0.0,0.0,0.0,0.0,0.0,0.0,0.0,0.0,0.0,0.0,0.0,0.0,0.0,0.0,0.0,0.0,0.0,0.0,0.0,0.0,0.0,0.0,0.0,0.0,0.0,0.0,0.0,0.0,0.0,0.0,0.0,0.0,0.0,0.0,0.0,0.0,0.0,0.0,0.0,0.0,0.0,0.0,0.0,0.0,0.0,0.0,0.0,0.0,0.0,0.0,0.0,0.0,0.0,0.0,0.0,0.0,0.0,0.0,0.0,0.0,0.0,0.0,-0.3785,-0.3894,-0.3819,-0.4267,-0.4779,-0.5358,-0.4848,-0.4342,-0.3865,0.0,0.0,0.0,0.0,0.0,0.0,0.0,0.0,0.0,0.0,0.0,0.0,0.0,0.0,0.0,0.0,0.0,0.0,0.0,0.0,0.0,0.0,0.0,0.0,0.0,0.0,0.0,0.0,0.0,0.0,0.0,0.0,0.0,0.0,0.0,0.0,0.0,0.0,-0.0138,-0.0,0.0,0.0,0.0,0.0,0.0,0.0,0.0,0.0,-0.3117,0.0,0.0,0.0,0.0,0.0,0.0,0.0,0.0,0.0,0.0,0.0,0.0,0.0,0.0,0.0,0.0,0.0,0.0,0.0,0.0,0.0,0.0,0.0,0.0,0.0,0.0,0.0,0.0,0.0,0.0,0.0,0.0,0.0,0.0,0.0,0.0,0.0,0.0,0.0,0.0,0.0,0.0,0.0,0.0,0.0,0.0,0.0,0.0,0.0,0.0,0.0,0.0,0.0,0.0,0.0,0.0,-0.285,-0.3401,-0.2742,-0.0854,-0.3224,-0.4805,-0.527,-0.2479,-0.0832,-0.0853,0.0,0.0,0.0,0.0,0.0,0.0,0.0,0.0,0.0,0.0,0.0,0.0,0.0,0.0,0.0,0.0,0.0,0.0,0.0,0.0,0.0,0.0,0.0,0.0,0.0,0.0,0.0,0.0,0.0,0.0,0.0,0.0,0.0,0.0,0.0,0.0,0.0,0.0,0.0,-0.0,-0.0,0.0,0.0,0.0,0.0,0.0,0.0,0.0,0.0,-0.3196,0.0,0.0,0.0,0.0,0.0,0.0,0.0,0.0,0.0,0.0,0.0,0.0,0.0,0.0,0.0,0.0,0.0,0.0,0.0,0.0,0.0,0.0,0.0,0.0,0.0,0.0,0.0,0.0,0.0,0.0,0.0,0.0,0.0,0.0,0.0,0.0,0.0,0.0,0.0,0.0,0.0,0.0,0.0,0.0,0.0,0.0,0.0,0.0,0.0,0.0,0.0,0.0,0.0,0.0,0.0,-0.1245,-0.1588,-0.1159,-0.0106,-0.1429,-0.232,-0.2531,-0.089,-0.0,0.0,0.0,0.0,0.0,0.0,0.0,0.0,0.0,0.0,0.0,0.0,0.0,0.0,0.0,0.0,0.0,0.0,0.0,0.0,0.0,0.0,0.0,0.0,0.0,0.0,0.0,0.0,0.0,0.0,0.0,0.0,0.0,0.0,0.0,0.0,0.0,0.0,0.0,0.0,0.0,-0.1076,-0.1961,-0.2312,0.0,0.0,0.0,0.0,0.0,0.0,-0.2538,-0.3322,0.0,0.0,0.0,0.0,0.0,0.0,0.0,0.0,0.0,0.0,0.0,0.0,0.0,0.0,0.0,0.0,0.0,0.0,0.0,0.0,0.0,0.0,0.0,0.0,0.0,0.0,0.0,0.0,0.0,0.0,0.0,0.0,0.0,0.0,0.0,0.0,0.0,0.0,0.0,0.0,0.0,0.0,0.0,0.0,0.0,0.0,0.0,0.0,0.0,0.0,0.0,0.0,0.0,0.0,0.0,-0.0,-0.0,-0.0,-0.0,-0.0,-0.0,-0.0,-0.0,-0.0,0.0,0.0,0.0,0.0,0.0,0.0,0.0,0.0,0.0,0.0,0.0,0.0,0.0,0.0,0.0,0.0,0.0,0.0,0.0,0.0,0.0,0.0,0.0,0.0,0.0,0.0,0.0,0.0,0.0,0.0,0.0,0.0,0.0,0.0,0.0,0.0,0.0,0.0,0.0,0.0,0.0,-0.381,-0.4401,-0.2459,0.0,0.0,0.0,0.0,-0.1424,-0.2683,0.0,0.0,0.0,0.0,0.0,0.0,0.0,0.0,0.0,0.0,0.0,0.0,0.0,0.0,0.0,0.0,0.0,0.0,0.0,0.0,0.0,0.0,0.0,0.0,0.0,0.0,0.0,0.0,0.0,0.0,0.0,0.0,0.0,0.0,0.0,0.0,0.0,0.0,0.0,0.0,0.0,0.0,0.0,0.0,0.0,0.0,0.0,0.0,0.0,0.0,0.0,0.0,0.0,0.0,0.0,0.0,-0.0,-0.0,-0.0,-0.0,-0.0,-0.0,-0.0,-0.0,-0.0,0.0,0.0,0.0,0.0,0.0,0.0,0.0,0.0,0.0,0.0,0.0,0.0,0.0,0.0,0.0,0.0,0.0,0.0,0.0,0.0,0.0,0.0,0.0,0.0,0.0,0.0,0.0,0.0,0.0,0.0,0.0,0.0,0.0,0.0,0.0,0.0,0.0,0.0,0.0,0.0,0.0,-0.3803,-0.4398,-0.4215,-0.3045,0.0,0.0,-0.3514,-0.2286,-0.2933,0.0,0.0,0.0,0.0,0.0,0.0,0.0,0.0,0.0,0.0,0.0,0.0,0.0,0.0,0.0,0.0,0.0,0.0,0.0,0.0,0.0,0.0,0.0,0.0,0.0,0.0,0.0,0.0,0.0,0.0,0.0,0.0,0.0,0.0,0.0,0.0,0.0,0.0,0.0,0.0,0.0,0.0,0.0,0.0,0.0,0.0,0.0,0.0,0.0,0.0,0.0,0.0,0.0,0.0,0.0,-0.0,-0.0,-0.0,-0.0,-0.0,-0.0,-0.0,-0.0,-0.0,-0.0,0.0,0.0,0.0,0.0,0.0,0.0,0.0,0.0,0.0,0.0,0.0,0.0,0.0,0.0,0.0,0.0,0.0,0.0,0.0,0.0,0.0,0.0,0.0,0.0,0.0,0.0,0.0,0.0,0.0,0.0,0.0,0.0,0.0,0.0,0.0,0.0,0.0,0.0,0.0,0.0,0.0,0.0,-0.4098,-0.4295,0.0,0.0,0.0,-0.3185,-0.3166,0.0,0.0,0.0,0.0,0.0,0.0,0.0,0.0,0.0,0.0,0.0,0.0,0.0,0.0,0.0,0.0,0.0,0.0,0.0,0.0,0.0,0.0,0.0,0.0,0.0,0.0,0.0,0.0,0.0,0.0,0.0,0.0,0.0,0.0,0.0,0.0,0.0,0.0,0.0,0.0,0.0,0.0,0.0,0.0,0.0,0.0,0.0,0.0,0.0,0.0,0.0,0.0,0.0,0.0,0.0,0.0,0.0,-0.0,-0.0,-0.0,-0.0,-0.0,-0.0,-0.0,-0.0,0.0,0.0,0.0,0.0,0.0,0.0,0.0,0.0,0.0,0.0,0.0,0.0,0.0,0.0,0.0,0.0,0.0,0.0,0.0,0.0,0.0,0.0,0.0,0.0,0.0,0.0,0.0,-0.3306,0.0,0.0,0.0,0.0,0.0,0.0,0.0,0.0,0.0,0.0,0.0,0.0,0.0,0.0,-0.2678,-0.3945,-0.4154,-0.399,0.0,0.0,-0.3077,-0.3913,-0.42,-0.4205,0.0,0.0,0.0,0.0,0.0,0.0,0.0,0.0,0.0,0.0,0.0,0.0,0.0,0.0,0.0,0.0,0.0,0.0,0.0,0.0,0.0,0.0,0.0,0.0,0.0,0.0,0.0,0.0,0.0,0.0,0.0,0.0,0.0,0.0,0.0,0.0,0.0,0.0,0.0,0.0,0.0,0.0,0.0,0.0,0.0,0.0,0.0,0.0,0.0,0.0,0.0,0.0,0.0,0.0,-0.0,-0.0,-0.0,-0.0,-0.0,-0.0,-0.0,-0.0,-0.0,-0.0,0.0,0.0,0.0,0.0,0.0,0.0,0.0,0.0,0.0,0.0,0.0,0.0,0.0,0.0,0.0,0.0,0.0,0.0,0.0,0.0,0.0,0.0,0.0,0.0,0.0,0.0,0.0,0.0,0.0,0.0,0.0,0.0,0.0,0.0,0.0,0.0,0.0,0.0,0.0,0.0,0.0,-0.2739,-0.4229,-0.4306,-0.427,0.0,-0.4376,-0.4383,-0.4443,-0.4484,-0.4488,-0.4429,0.0,0.0,0.0,0.0,0.0,0.0,0.0,0.0,0.0,0.0,0.0,0.0,0.0,0.0,0.0,0.0,0.0,0.0,0.0,0.0,0.0,0.0,0.0,0.0,0.0,0.0,0.0,0.0,0.0,0.0,0.0,0.0,0.0,0.0,0.0,0.0,0.0,0.0,0.0,0.0,0.0,0.0,0.0,0.0,0.0,0.0,0.0,0.0,0.0,0.0,0.0,0.0,0.0,-0.0,-0.0,-0.0,-0.0,-0.0,-0.0,-0.0,-0.0,-0.0,-0.0,0.0,0.0,0.0,0.0,0.0,0.0,0.0,0.0,0.0,0.0,0.0,0.0,0.0,0.0,0.0,0.0,0.0,0.0,0.0,0.0,0.0,0.0,0.0,0.0,0.0,0.0,0.0,0.0,-0.3755,-0.3727,-0.3583,0.0,0.0,0.0,0.0,0.0,0.0,0.0,0.0,0.0,0.0,-0.385,-0.4426,-0.4453,0.0,0.0,-0.4483,-0.4506,-0.4512,-0.4473,-0.4473,-0.4477,-0.3688,0.0,0.0,0.0,0.0,0.0,0.0,0.0,0.0,0.0,0.0,0.0,0.0,0.0,0.0,0.0,0.0,0.0,0.0,0.0,0.0,0.0,0.0,0.0,0.0,0.0,0.0,0.0,0.0,0.0,0.0,0.0,0.0,0.0,0.0,0.0,0.0,0.0,0.0,0.0,0.0,0.0,0.0,0.0,0.0,0.0,0.0,0.0,0.0,0.0,0.0,0.0,0.0,-0.0,-0.0,-0.0,-0.0,-0.0,-0.0,-0.0,-0.0,-0.0,-0.0,0.0,0.0,0.0,0.0,0.0,0.0,0.0,0.0,0.0,0.0,0.0,0.0,0.0,0.0,0.0,0.0,0.0,0.0,0.0,0.0,0.0,0.0,0.0,0.0,0.0,0.0,0.0,0.0,-0.3704,-0.3537,-0.3386,0.0,0.0,0.0,0.0,0.0,0.0,0.0,0.0,0.0,0.0,-0.4466,-0.4512,-0.4467,-0.4463,-0.4467,-0.4463,-0.4463,-0.447,-0.4473,-0.4477,-0.4487,0.0,0.0,0.0,0.0,0.0,0.0,0.0,0.0,0.0,0.0,0.0,0.0,0.0,0.0,0.0,0.0,0.0,0.0,0.0,0.0,0.0,0.0,0.0,0.0,0.0,0.0,0.0,0.3581,0.0,0.0,0.3588,0.0,0.0,0.0,0.0,0.0,0.0,0.0,0.0,0.0,0.0,0.0,0.0,0.0,0.0,0.0,0.0,0.0,0.0,0.0,0.0,0.0,0.0,-0.0,-0.0,-0.0,-0.0,-0.0,-0.0,-0.0,-0.0,-0.0,-0.0,-0.0,0.0,0.0,0.0,0.0,0.0,0.0,0.0,0.0,0.0,0.0,0.0,0.0,0.0,0.0,0.0,0.0,0.0,0.0,0.0,0.0,0.0,0.0,0.0,0.0,0.0,0.0,-0.3664,-0.3588,-0.3629,0.0,0.0,0.0,0.0,0.0,0.0,0.0,0.0,0.0,-0.4398,-0.4473,-0.447,-0.4463,-0.4463,-0.4467,-0.4477,-0.4467,-0.447,-0.449,-0.4473,-0.4473,0.0,0.0,0.0,0.0,0.0,0.0,0.0,0.0,0.0,0.0,0.0,0.0,0.0,0.0,0.0,0.0,0.0,0.0,0.0,0.0,0.0,0.0,0.0,0.0,0.0,0.0,0.0,0.4012,0.3887,0.0,0.0,0.0,0.0,0.0,0.0,0.0,0.0,0.0,0.0,0.0,0.4621,0.5254,0.0,0.0,0.0,0.0,0.0,0.0,0.0,0.0,0.0,0.0,0.0,0.0,-0.0,-0.0,-0.0,-0.0,-0.0,-0.0,-0.0,-0.0,-0.0,-0.0,-0.0,0.0,0.0,0.0,0.0,0.0,0.0,0.0,0.0,0.0,0.0,0.0,0.0,0.0,0.0,0.0,0.0,0.0,0.0,0.0,0.0,0.0,0.0,0.0,0.0,0.0,-0.4151,0.0,0.0,0.0,0.0,0.0,0.0,0.0,0.0,0.0,0.0,0.0,-0.4416,-0.446,-0.4467,-0.4467,-0.4463,-0.4463,-0.4463,0.0,0.0,0.0,0.0,0.0,0.0,0.0,0.0,0.0,0.0,0.0,0.0,0.0,0.0,-0.3955,-0.3671,-0.1653,-0.0,-0.0,0.0,0.0,0.0,0.0,0.0,0.0,0.0,0.0,0.0,0.0,0.0,0.0,0.0,0.0,0.4184,0.4069,0.4237,0.0,0.0,0.0,0.0,0.0,0.0,0.0,0.0,0.5094,0.5369,0.5372,0.5579,0.565,0.5458,0.4055,0.2149,0.0,0.0,0.0,0.0,0.0,0.0,0.0,0.0,-0.0,-0.0,-0.0,-0.0,-0.0,-0.0,-0.0,-0.0,-0.0,-0.0,-0.0,-0.0,-0.0474,0.0,0.0,0.0,0.0,0.0,0.0,0.0,0.0,0.0,0.0,0.0,0.0,0.0,0.0,0.0,0.0,0.0,0.0,0.0,0.0,0.0,0.0,0.0,-0.4216,0.0,0.0,0.0,0.0,0.0,0.0,0.0,0.0,0.0,-0.4505,-0.4463,-0.4463,-0.4463,-0.4463,-0.4463,-0.4463,0.0,0.0,0.0,0.0,0.0,0.0,0.0,-0.3125,-0.3638,-0.2088,-0.1036,-0.1728,-0.2694,-0.3545,-0.4391,0.0,0.0,-0.503,-0.2967,-0.1075,-0.084,-0.0783,-0.0783,-0.0783,-0.0784,-0.0783,0.0,0.0,0.0,0.0,0.0,0.0,0.0,0.0,0.4647,0.4476,0.0,0.4526,0.0,0.0,0.0,0.0,0.4513,0.4787,0.0,0.0,0.5264,0.5542,0.5803,0.583,0.5835,0.5819,0.5529,0.3503,-0.0,-0.0,0.0,0.0,0.0,0.0,0.0,0.0,-0.0,-0.0,-0.0,-0.0,-0.0,-0.0,-0.0,-0.0,-0.0,-0.0,-0.0,-0.0,-0.1492,-0.4333,-0.3916,0.0,0.0,0.0,0.0,0.0,0.0,0.0,0.0,0.0,0.0,0.0,0.0,0.0,0.0,0.0,0.0,0.0,0.0,0.0,0.0,-0.423,0.0,0.0,0.0,0.0,0.0,0.0,0.0,0.0,0.0,0.0,-0.4532,-0.4522,-0.4519,-0.4525,0.0,0.0,0.0,0.0,-0.4463,-0.4463,-0.4522,-0.4532,-0.4487,-0.4477,-0.3968,-0.2571,0.0,0.0,-0.489,-0.529,-0.5107,-0.4641,-0.4659,-0.4711,-0.4552,-0.387,-0.306,-0.2415,-0.2289,-0.2289,-0.2289,-0.2289,-0.2287,0.5942,0.0,0.0,0.0,0.0,0.43,0.46,0.5657,0.562,0.5445,0.5316,0.5755,0.0,0.0,0.0,0.0,0.0,0.0,0.572,0.5487,0.5817,0.6125,0.6135,0.6346,0.6359,0.62,0.606,0.394,-0.0,-0.0,-0.0,-0.0,0.0,0.0,0.0,0.0,-0.0,-0.0,-0.0,-0.0,-0.0,-0.0,-0.0,-0.0,-0.0,-0.0,-0.0,-0.2055,-0.3618,-0.4457,-0.452,0.0,0.0,0.0,0.0,0.0,0.0,0.0,0.0,0.0,0.0,0.0,0.0,0.0,0.0,0.0,0.0,0.0,0.0,0.0,-0.4497,-0.4415,-0.4351,0.0,0.0,0.0,0.0,0.0,0.0,0.0,0.0,0.0,-0.4623,-0.4528,-0.4504,0.0,0.0,-0.456,-0.4609,-0.4531,-0.4463,-0.4463,-0.4555,0.0,-0.4629,-0.4576,-0.4346,-0.388,-0.3148,-0.2759,-0.3351,-0.4255,-0.4935,-0.4766,-0.4694,-0.4628,-0.4684,-0.4444,-0.4079,-0.3872,-0.3814,-0.3869,-0.3814,-0.3814,-0.3814,0.6796,0.6208,0.5757,0.6019,0.6563,0.5881,0.5848,0.6471,0.6651,0.6513,0.6004,0.6556,0.6424,0.5679,0.4968,0.0,0.0,0.0,0.6353,0.6257,0.6377,0.6407,0.6529,0.6654,0.662,0.661,0.6407,0.4996,0.2471,0.0816,-0.0,-0.0,0.0,-0.0,-0.0,-0.0,-0.0,-0.0,-0.0,-0.0,-0.0,-0.0,-0.0,-0.0,-0.1177,-0.1794,-0.1794,-0.2916,-0.3919,-0.4567,-0.4702,-0.4698,0.0,0.0,0.0,0.0,0.0,0.0,0.0,0.0,0.0,0.0,0.0,-0.3874,-0.4573,0.0,0.0,0.0,-0.4389,-0.4562,-0.4654,-0.4611,0.0,0.0,0.0,0.0,0.0,0.0,0.0,-0.4826,-0.4799,-0.4755,-0.4697,-0.4663,-0.4633,-0.4606,-0.4572,-0.4585,-0.4677,0.0,-0.4623,-0.4618,-0.4629,-0.467,-0.4609,-0.4545,-0.4512,-0.4461,-0.3997,-0.3542,-0.3576,-0.4232,-0.4793,-0.4783,-0.4691,-0.4649,-0.4687,-0.4642,-0.464,-0.4636,-0.4613,-0.4572,-0.4572,-0.4528,-0.448,0.7361,0.7302,0.6714,0.7019,0.7935,0.8033,0.7706,0.7238,0.777,0.7386,0.6509,0.6939,0.6993,0.6623,0.5496,0.0,0.64,0.6594,0.685,0.7035,0.6708,0.6695,0.687,0.6749,0.6846,0.7076,0.6627,0.6167,0.5535,0.1844,-0.0,-0.0,-0.0,-0.0,-0.0,-0.0,-0.0,-0.0,-0.0,-0.0,-0.0,-0.0115,-0.0057,-0.0226,-0.2995,-0.4475,-0.4419,-0.3137,-0.3114,-0.4677,-0.4632,-0.4575,-0.4694,0.0,0.0,0.0,0.0,0.0,0.0,0.0,0.0,0.0,0.0,0.0,0.0,0.0,0.0,0.0,-0.4487,0.0,-0.4857,-0.4872,0.0,0.0,0.0,-0.4938,-0.4952,-0.5207,-0.5211,-0.4817,0.0,0.0,-0.4728,-0.4809,-0.4779,-0.4556,-0.4602,-0.4711,-0.4707,-0.4813,-0.4843,-0.4677,-0.468,-0.464,-0.4591,-0.4563,-0.4495,-0.4561,-0.4707,-0.471,-0.4719,-0.4729,-0.479,-0.4728,-0.4749,-0.4752,-0.4584,-0.4539,-0.4642,-0.4797,-0.4775,-0.4663,-0.465,-0.4608,-0.4467,0.6651,0.504,0.6783,0.7764,0.7953,0.7962,0.7833,0.758,0.7851,0.784,0.7626,0.7403,0.7112,0.6668,0.6238,0.6302,0.6933,0.6936,0.7068,0.7044,0.6969,0.6962,0.7018,0.6972,0.7027,0.709,0.6951,0.5038,0.161,0.0471,-0.0,-0.0,-0.0,-0.0,-0.0,-0.0,-0.0,-0.0,-0.0,-0.1353,-0.3922,-0.1453,-0.0662,-0.2045,-0.3656,-0.4497,-0.4493,-0.4144,-0.4154,-0.4538,-0.4711,-0.483,-0.486,-0.4721,0.0,0.0,0.0,0.0,0.0,0.0,0.0,0.0,0.0,-0.4095,-0.5182,0.0,-0.4481,0.0,-0.4465,-0.4592,-0.4868,-0.4991,0.0,0.0,-0.4986,-0.5013,-0.5226,-0.5219,-0.5181,-0.526,-0.5036,-0.4908,-0.487,-0.4694,-0.4545,-0.4532,-0.4694,-0.4863,-0.4863,-0.4789,-0.4687,-0.4565,-0.4626,-0.4677,-0.464,-0.4636,-0.4643,-0.4632,-0.4694,-0.4748,-0.4833,-0.4823,-0.4735,-0.4691,-0.4599,-0.4589,-0.4687,-0.3729,-0.3411,-0.4499,-0.4653,-0.457,-0.4573,-0.4543,-0.4463,0.6642,0.4814,0.7056,0.7953,0.7763,0.6683,0.6825,0.7831,0.7919,0.7969,0.7987,0.7743,0.7495,0.7252,0.6824,0.5665,0.4009,0.3956,0.39,0.3956,0.5027,0.5523,0.5614,0.6627,0.7141,0.7001,0.4925,0.2615,-0.0,-0.0,-0.0,-0.0,-0.0,-0.0,-0.0,-0.0,-0.0,-0.0,-0.0,-0.1765,-0.5137,-0.3423,-0.2899,-0.3886,-0.4556,-0.4848,-0.4659,-0.4626,-0.4666,-0.467,-0.4706,-0.4847,-0.5098,-0.4972,-0.5026,0.0,0.0,0.0,0.0,0.0,0.0,0.0,0.0,0.0,0.0,0.0,-0.4862,-0.4879,-0.4637,-0.4585,-0.4877,-0.5072,-0.5236,-0.5213,-0.5162,-0.5182,-0.5345,-0.5284,-0.524,-0.5257,-0.5172,-0.5067,-0.4938,-0.4826,-0.4762,-0.4758,-0.4904,-0.4962,-0.4853,-0.4847,-0.4813,-0.4609,-0.4694,-0.4765,-0.4704,-0.4633,-0.4589,-0.4589,-0.4646,-0.4619,-0.4701,-0.4646,-0.4646,-0.4582,-0.4531,-0.4247,-0.3729,-0.2896,-0.2789,-0.4228,-0.4653,-0.4573,-0.4548,-0.4567,-0.4463,0.7059,0.5847,0.7372,0.7826,0.7534,0.5376,0.5787,0.7888,0.7984,0.7994,0.8004,0.801,0.7872,0.7472,0.6969,0.4302,-0.0,-0.0,-0.0,-0.0,0.2189,0.3146,0.3238,0.5244,0.617,0.597,0.1936,-0.0,-0.0,-0.0,-0.0,-0.0,-0.0,-0.0,-0.0,-0.0,-0.0,-0.0,-0.0,-0.1642,-0.5013,-0.5269,-0.5435,-0.5421,-0.5373,-0.5214,-0.4831,-0.4797,-0.4841,-0.4904,-0.4687,-0.4799,-0.5301,-0.5203,-0.5199,0.0,-0.5411,0.0,0.0,0.0,0.0,0.0,0.0,0.0,0.0,-0.5227,-0.5343,-0.5284,-0.4911,-0.4729,-0.4918,-0.5202,-0.5392,-0.5408,-0.5428,-0.5428,-0.5428,-0.5428,-0.5311,-0.5176,-0.526,-0.5226,-0.4996,-0.503,-0.507,-0.503,-0.505,-0.4982,-0.4779,-0.4914,-0.4965,-0.4707,-0.4792,-0.4802,-0.4677,-0.4622,-0.4556,-0.4477,-0.4529,-0.4463,-0.4477,-0.4473,-0.4467,-0.447,-0.4487,-0.4079,-0.2729,-0.2281,-0.238,-0.3674,-0.4185,-0.4531,-0.4606,-0.4551,-0.447,0.7831,0.7502,0.7818,0.8026,0.789,0.7472,0.7306,0.7502,0.759,0.7746,0.7862,0.796,0.6796,0.4794,0.468,0.296,-0.0,-0.0,-0.0,-0.0,0.0488,0.0683,0.0681,0.1129,0.1385,0.1285,0.0443,-0.0,-0.0,-0.0,-0.0,-0.0,-0.0,-0.0,-0.0,0.0,0.0,0.0,-0.0,-0.1139,-0.3484,-0.4732,-0.5423,-0.5535,-0.5291,0.0,-0.5047,-0.4938,-0.4891,-0.4918,-0.4937,0.0,0.0,0.0,0.0,0.0,0.0,0.0,0.0,0.0,0.0,0.0,-0.531,-0.5364,-0.5329,-0.5087,-0.4903,-0.4722,-0.5034,-0.5281,-0.5269,-0.5332,-0.5392,-0.5408,-0.5428,-0.5428,-0.5428,-0.5428,-0.5411,-0.5321,-0.5233,-0.5155,-0.5094,-0.4914,-0.4785,-0.4816,-0.4884,-0.488,-0.4728,-0.4857,-0.4843,-0.4582,-0.4653,-0.4677,-0.4587,-0.4589,-0.4589,-0.4556,-0.4463,-0.4463,-0.4463,-0.4463,-0.4467,-0.4473,-0.4487,-0.4392,-0.4032,-0.2138,-0.0,-0.0,-0.2815,-0.4514,-0.4531,-0.4511,-0.449,0.7995,0.8052,0.8192,0.8158,0.0,0.7963,0.7707,0.752,0.7756,0.7862,0.7946,0.7942,0.7269,0.5849,0.3191,0.1285,-0.0,-0.0,-0.0,-0.0,-0.0,-0.0,-0.0,-0.0,-0.0,-0.0,-0.0,-0.0,-0.0,-0.0,-0.0,-0.0,-0.0,-0.0,-0.0,-0.0,-0.0,-0.0,-0.204,-0.3042,-0.2992,-0.4655,-0.5572,-0.5477,-0.5325,0.0,0.0,0.0,0.0,0.0,0.0,0.0,0.0,-0.5172,0.0,-0.5457,-0.5466,-0.5561,-0.5767,-0.5564,-0.5428,-0.5425,-0.5422,-0.541,-0.5399,-0.527,-0.5068,-0.4988,-0.523,-0.5397,-0.539,-0.538,-0.5411,-0.5418,-0.5428,-0.5428,-0.5428,-0.5428,-0.5428,-0.5422,-0.5291,-0.522,-0.5138,-0.4945,-0.4847,-0.4894,-0.4908,-0.4918,-0.4911,-0.4911,-0.4826,-0.4616,-0.4629,-0.4663,-0.4602,-0.4633,-0.464,-0.4504,-0.4463,-0.4463,-0.4463,-0.4463,-0.4463,-0.4418,-0.3916,-0.3532,-0.411,-0.2076,-0.0,-0.0,-0.1232,-0.2581,-0.3142,-0.3363,-0.336,0.7992,0.8009,0.8268,0.829,0.7993,0.7868,0.7794,0.7699,0.7916,0.0,0.0,0.7275,0.7607,0.7708,0.3378,0.0888,-0.0,-0.0,-0.0,-0.0,-0.0,-0.0,-0.0,-0.0,-0.0,-0.0,-0.0,-0.0,-0.0,-0.0,-0.0,-0.0,-0.0,-0.0,-0.0,-0.072,-0.0775,-0.0223,-0.4158,-0.5346,-0.3399,-0.4874,-0.5645,-0.5473,-0.5372,-0.537,-0.5378,-0.5371,-0.5304,-0.5169,-0.5321,-0.5431,-0.5404,-0.524,-0.5284,-0.5525,-0.5477,-0.5477,-0.5693,-0.5549,-0.5423,-0.5369,-0.5428,-0.5373,-0.5378,-0.5422,-0.5377,-0.5382,-0.5422,-0.5428,-0.5428,-0.5428,-0.5428,-0.5428,-0.5428,-0.5428,-0.5428,-0.5428,-0.5428,-0.5428,-0.5422,-0.5315,-0.5192,-0.505,-0.4934,-0.5084,-0.4964,-0.4996,-0.5081,-0.4999,-0.4877,-0.4762,-0.4775,-0.4772,-0.4738,-0.4738,-0.467,-0.4545,-0.4567,-0.456,-0.4556,-0.4504,-0.4518,-0.4469,-0.3217,-0.2805,-0.3281,-0.1634,-0.0,-0.0,-0.0,-0.0336,-0.1458,-0.179,-0.1842,0.7991,0.7972,0.8042,0.8002,0.7988,0.7982,0.7932,0.7915,0.7818,0.6388,0.4224,0.4493,0.5851,0.7922,0.7181,0.4329,-0.0,-0.0,-0.0,-0.0,-0.0,-0.0,-0.0,-0.0,-0.0,-0.0,-0.0,-0.0,-0.0,-0.0,-0.0,-0.0,-0.0,-0.0,-0.0,-0.3611,-0.3635,-0.016,-0.4171,-0.6017,-0.5384,-0.557,-0.5728,-0.5634,-0.5497,-0.5422,-0.5397,-0.5394,-0.5397,-0.5328,-0.5377,-0.5384,-0.5425,-0.5404,-0.5415,-0.5389,-0.5393,-0.5393,-0.5463,-0.5396,-0.5382,-0.5432,-0.5428,-0.5418,-0.5401,-0.5415,-0.5418,-0.5397,-0.5415,-0.5428,-0.5428,-0.5428,-0.5428,-0.5428,-0.5428,-0.5428,-0.5428,-0.5428,-0.5428,-0.5428,-0.5428,-0.5425,-0.5311,-0.5186,-0.5098,-0.5125,-0.5121,-0.5114,-0.5114,-0.5009,-0.4921,-0.4911,-0.4992,-0.5006,-0.4884,-0.4884,-0.4809,-0.4684,-0.465,-0.4646,-0.4657,-0.4646,-0.4629,-0.4537,-0.3357,-0.2096,-0.1155,-0.04,-0.0,-0.0,-0.0,-0.0,-0.0,-0.0,-0.0,0.8147,0.8023,0.7961,0.8036,0.7866,0.6491,0.6659,0.8002,0.7928,0.7189,0.5787,0.3111,0.252,0.3633,0.3698,0.2386,-0.0,-0.0,-0.0,-0.0,-0.0,-0.0,-0.0,-0.0,-0.0,-0.0,-0.0,-0.0,-0.0,-0.0,-0.0,-0.0,-0.0,-0.1298,-0.3856,-0.549,-0.5387,-0.3485,-0.5325,-0.6106,-0.5792,-0.5785,-0.5705,-0.5542,-0.5463,-0.5428,-0.5428,-0.5428,-0.5428,-0.5428,-0.5428,-0.5428,-0.5428,-0.5428,-0.5428,-0.5428,-0.5428,-0.5428,-0.5428,-0.5428,-0.5428,-0.5428,-0.544,-0.545,-0.5432,-0.5428,-0.5428,-0.5428,-0.5428,-0.5428,-0.5428,-0.5428,-0.5428,-0.5428,-0.5428,-0.5428,-0.5428,-0.5428,-0.5428,-0.5428,-0.5428,-0.5428,-0.5428,-0.523,-0.5172,-0.5233,-0.5257,-0.5254,-0.5254,-0.5203,-0.5094,-0.4965,-0.5033,-0.5016,-0.4853,-0.487,-0.4843,-0.4714,-0.4694,-0.4728,-0.4779,-0.4765,-0.4686,-0.4552,-0.388,-0.2546,-0.0,-0.0,-0.0,-0.0,-0.0,-0.0,-0.0,-0.0,-0.0,0.8381,0.8115,0.8062,0.8036,0.7843,0.578,0.606,0.7928,0.8029,0.7308,0.567,0.1717,-0.0,-0.0,-0.0,-0.0,-0.0,-0.0,-0.0,-0.0,-0.0,-0.0,-0.0,-0.0,-0.0,-0.0,-0.0,-0.0,-0.0,-0.0,-0.0578,-0.0,-0.1613,-0.3169,-0.6231,-0.6434,-0.6365,-0.6306,-0.6321,-0.6176,-0.5891,-0.5827,-0.5674,-0.5437,-0.5379,-0.5428,-0.5428,-0.5428,-0.5428,-0.5428,-0.5428,-0.5428,-0.5428,-0.5428,-0.5428,-0.5428,-0.5428,-0.5376,-0.541,-0.5413,-0.541,-0.5413,-0.5488,-0.5559,-0.5586,-0.5428,-0.5428,-0.5428,-0.5428,-0.5428,-0.5428,-0.5428,-0.5428,-0.5428,-0.5428,-0.5428,-0.5428,-0.5428,-0.5428,-0.5428,-0.5428,-0.5428,-0.5404,-0.5257,-0.5233,-0.5328,-0.5428,-0.5428,-0.5428,-0.5428,-0.5254,-0.5125,-0.5114,-0.5114,-0.4884,-0.4911,-0.4908,-0.4769,-0.4782,-0.4819,-0.4857,-0.4911,-0.4904,-0.4782,-0.4582,-0.318,-0.0,-0.0,-0.0,-0.0,-0.0,-0.0,-0.0,-0.0,-0.0,0.8744,0.8405,0.8049,0.8006,0.7733,0.751,0.7519,0.7743,0.7951,0.517,0.1111,-0.0,-0.0,-0.0,-0.0,-0.0,-0.0,-0.0,-0.0,-0.0,-0.0,-0.0,-0.0,-0.0,-0.0,-0.0,-0.0,-0.0,-0.0,-0.0,-0.2215,-0.5972,-0.6486,-0.5473,-0.4457,-0.584,-0.6583,-0.6287,-0.6458,-0.6312,-0.6027,-0.5874,-0.5654,-0.5428,-0.5433,-0.5428,-0.5446,-0.5428,-0.5428,-0.5428,-0.5428,-0.5428,-0.5428,-0.5428,-0.5428,-0.5428,-0.5428,-0.5416,-0.5408,-0.5424,-0.5424,-0.5418,-0.546,-0.5666,-0.6055,-0.5708,-0.5428,-0.5428,-0.5428,-0.5428,-0.5428,-0.5428,-0.5428,-0.5428,-0.5428,-0.5428,-0.5428,-0.5428,-0.5428,-0.5428,-0.5428,-0.5428,-0.5425,-0.5335,-0.5404,-0.5422,-0.5428,-0.5428,-0.5428,-0.5428,-0.5425,-0.538,-0.5332,-0.5304,-0.5223,-0.5172,-0.5023,-0.4911,-0.4999,-0.491,-0.474,-0.4991,-0.5304,-0.5135,-0.4455,-0.2956,-0.0,-0.0,-0.0,-0.0,-0.0,-0.0,-0.0,-0.0,-0.0,0.8888,0.8348,0.4804,0.3215,0.3224,0.323,0.3234,0.3237,0.3237,0.2022,-0.0,-0.0,-0.0,-0.0,-0.0,-0.0,-0.0,-0.0,-0.0,-0.0,-0.0,-0.0,-0.0,-0.0,-0.0,-0.0,-0.0,-0.0,-0.0,-0.3108,-0.5795,-0.7403,-0.7253,-0.6642,-0.5913,-0.6443,-0.6734,-0.6583,-0.6518,-0.6413,-0.62,-0.5982,-0.5719,-0.5429,-0.55,-0.5542,-0.5589,-0.5528,-0.5403,-0.5481,-0.5413,-0.5428,-0.5428,-0.5428,-0.5428,-0.5432,-0.5379,-0.549,-0.5631,-0.5789,-0.5751,-0.5454,-0.554,-0.5696,-0.5729,-0.5582,-0.5464,-0.5446,-0.5428,-0.5428,-0.5428,-0.5428,-0.5428,-0.5428,-0.5428,-0.5428,-0.5428,-0.5428,-0.5428,-0.5428,-0.5428,-0.5428,-0.5428,-0.5428,-0.5428,-0.5428,-0.5428,-0.5428,-0.5428,-0.5428,-0.5428,-0.5348,-0.5287,-0.5186,-0.5125,-0.4972,-0.4901,-0.4854,-0.4901,-0.4773,-0.3958,-0.4727,-0.5389,-0.5333,-0.348,-0.1863,-0.0398,-0.0,-0.0,-0.0,-0.0,-0.0449,-0.2244,-0.2639,-0.2132,0.8828,0.7748,0.2457,-0.0,-0.0,-0.0,-0.0,-0.0,-0.0,-0.0,-0.0,-0.0,-0.0,-0.0,-0.0,-0.0,-0.0,-0.0,-0.0,-0.0,-0.0,-0.0,-0.0,-0.0,-0.0,-0.0,-0.0,-0.0,-0.2369,-0.5874,-0.8028,-0.7838,-0.7416,-0.726,-0.7373,-0.7034,-0.6887,-0.6823,-0.6702,-0.6475,-0.6291,-0.6183,-0.5982,-0.5722,-0.5651,-0.5768,-0.5789,-0.5665,-0.56,-0.5637,-0.5576,-0.5494,-0.549,-0.5426,-0.544,-0.5488,-0.5484,-0.561,-0.5781,-0.6089,-0.6097,-0.5748,-0.5718,-0.564,-0.5443,-0.5464,-0.5494,-0.545,-0.5423,-0.5416,-0.5428,-0.5428,-0.5428,-0.5432,-0.547,-0.544,-0.543,-0.5433,-0.5447,-0.544,-0.5399,-0.5428,-0.5428,-0.5428,-0.5428,-0.5428,-0.5428,-0.5428,-0.5428,-0.5428,-0.5428,-0.5418,-0.5199,-0.5067,-0.4975,-0.4887,-0.4773,-0.4634,-0.4565,-0.3934,-0.2977,-0.4068,-0.387,-0.263,-0.0967,-0.0957,-0.1752,-0.0,-0.0,-0.0,-0.0727,-0.1287,-0.28,-0.3878,-0.3538,0.8611,0.72,0.224,-0.0,-0.0,-0.0,-0.0,-0.0,-0.0,-0.0,-0.0,-0.0,-0.0,-0.0,-0.0,-0.0,-0.0,-0.0,-0.0,-0.0,-0.0,-0.0,-0.0,-0.0,-0.0,-0.0,-0.0,-0.2908,-0.7153,-0.7759,-0.7895,-0.7748,-0.7594,-0.7529,-0.7387,-0.7221,-0.6977,-0.6863,-0.681,-0.6682,-0.6431,-0.6461,-0.6461,-0.6204,-0.6096,-0.595,-0.5813,-0.5936,-0.5929,-0.5793,-0.5727,-0.5652,-0.5579,-0.5579,-0.5637,-0.5766,-0.5765,-0.5777,-0.5864,-0.6101,-0.6257,-0.618,-0.5839,-0.5545,-0.5426,-0.5393,-0.5443,-0.5421,-0.5424,-0.5372,-0.5483,-0.5466,-0.5389,-0.547,-0.5538,-0.5596,-0.5586,-0.5596,-0.557,-0.5464,-0.5396,-0.5372,-0.5428,-0.5428,-0.5428,-0.5428,-0.5428,-0.5428,-0.5428,-0.5428,-0.5428,-0.5377,-0.5159,-0.4972,-0.5067,-0.4894,-0.4789,-0.4624,-0.3971,-0.3075,-0.2874,-0.2581,-0.0,-0.0,-0.0,-0.0,-0.0,-0.0,-0.0,-0.2689,-0.2235,-0.274,-0.3357,-0.3866,-0.3755,0.3042,0.2757,0.0821,-0.0,-0.0,-0.0,-0.0,-0.0,-0.0,-0.0,-0.0,-0.0,-0.0,-0.0,-0.0,-0.0,-0.0,-0.0,-0.0,-0.0,-0.0,-0.0,-0.0,-0.3335,-0.5161,-0.5157,-0.5148,-0.6055,-0.7682,-0.7982,-0.7952,-0.7878,-0.7721,-0.7665,-0.7516,-0.7269,-0.7032,-0.6984,-0.698,-0.6875,-0.6753,-0.6573,-0.6337,-0.6308,-0.6228,-0.6148,-0.6095,-0.5985,-0.5919,-0.5942,-0.5803,-0.5725,-0.5725,-0.5725,-0.5789,-0.5928,-0.5848,-0.5917,-0.608,-0.6252,-0.627,-0.6261,-0.5957,-0.5634,-0.5477,-0.5413,-0.5389,-0.5434,-0.5421,-0.552,-0.5839,-0.5634,-0.5473,-0.5623,-0.5627,-0.5657,-0.5691,-0.5664,-0.5557,-0.5481,-0.5416,-0.5432,-0.5428,-0.5428,-0.5428,-0.5428,-0.5428,-0.5432,-0.5369,-0.5372,-0.5372,-0.5418,-0.5277,-0.5116,-0.4924,-0.4769,-0.4576,-0.4265,-0.3649,-0.2266,-0.1582,-0.0,-0.0,-0.0,-0.0,-0.0,-0.2359,-0.3607,-0.337,-0.3875,-0.3418,-0.3352,-0.3691,-0.4144,-0.4369,-0.0,-0.0,-0.0,-0.0,-0.0,-0.0,-0.0,-0.0,-0.0,-0.0,-0.0,-0.0,-0.0,-0.0,-0.0,-0.1108,-0.2423,-0.0,-0.0,-0.0202,-0.0907,-0.1714,-0.2726,-0.4549,-0.638,-0.7704,-0.8009,-0.7995,-0.7975,-0.7965,-0.7962,-0.7949,-0.7892,-0.774,-0.7597,-0.7257,-0.7108,-0.7058,-0.6957,-0.6983,-0.7001,-0.6725,-0.6427,-0.6351,-0.6302,-0.6273,-0.6257,-0.6057,-0.5993,-0.6067,-0.5956,-0.5874,-0.5874,-0.5874,-0.5942,-0.6081,-0.6026,-0.6069,-0.624,-0.6261,-0.6273,-0.6279,-0.6016,-0.5712,-0.5428,-0.5474,-0.5501,-0.5418,-0.5581,-0.5868,-0.6103,-0.5895,-0.5752,-0.58,-0.5759,-0.5766,-0.585,-0.5745,-0.5567,-0.5411,-0.5376,-0.5369,-0.5428,-0.5428,-0.5428,-0.5428,-0.5428,-0.5432,-0.5372,-0.5372,-0.5376,-0.5372,-0.5315,-0.5224,-0.5044,-0.4841,-0.4596,-0.4311,-0.4155,-0.2397,-0.0,-0.0,-0.0,-0.0,-0.0,-0.0,-0.112,-0.2581,-0.354,-0.4274,-0.432,-0.4024,-0.4249,-0.4359,-0.4473,-0.0,-0.0,-0.0,-0.0,-0.0,-0.0,-0.0,-0.0,-0.0,-0.0,-0.0,-0.0,-0.0,-0.0,-0.0,-0.2725,-0.6581,-0.7178,-0.4832,-0.1307,-0.2711,-0.5039,-0.7095,-0.3417,-0.4019,-0.7885,-0.7979,-0.7962,-0.8045,-0.8041,-0.8041,-0.8014,-0.8007,-0.7866,-0.7607,-0.729,-0.7134,-0.7101,-0.7061,-0.6987,-0.686,-0.6994,-0.6827,-0.6443,-0.6361,-0.6304,-0.6274,-0.6251,-0.6224,-0.6227,-0.6112,-0.6034,-0.6034,-0.603,-0.6098,-0.6213,-0.6247,-0.6254,-0.6257,-0.6257,-0.6276,-0.6314,-0.6108,-0.5885,-0.5656,-0.5653,-0.5686,-0.5609,-0.5935,-0.6296,-0.6246,-0.6249,-0.612,-0.5923,-0.5925,-0.5983,-0.5996,-0.5888,-0.5684,-0.545,-0.5432,-0.5428,-0.5428,-0.5428,-0.5428,-0.5428,-0.5428,-0.5428,-0.5435,-0.5369,-0.5372,-0.5289,-0.4677,-0.3985,-0.4488,-0.4953,-0.4684,-0.4462,-0.4392,-0.3529,-0.1894,-0.0,-0.0,-0.0,-0.0,-0.0392,-0.1453,-0.28,-0.3527,-0.4144,-0.4304,-0.447,-0.447,-0.4467,-0.4467,-0.0,-0.0,-0.0,-0.0,-0.0,-0.0,-0.0,-0.0,-0.0,-0.0,-0.0,-0.0,-0.0,-0.0,-0.0,-0.2913,-0.7782,-0.7965,-0.7048,-0.5536,-0.4522,-0.5436,-0.7175,-0.6247,-0.6345,-0.7769,-0.7959,-0.7945,-0.8041,-0.8038,-0.8038,-0.8024,-0.7991,-0.7889,-0.7647,-0.7495,-0.7366,-0.7141,-0.7208,-0.7224,-0.7078,-0.707,-0.6994,-0.6837,-0.661,-0.6444,-0.6324,-0.6312,-0.6261,-0.6261,-0.6217,-0.619,-0.6186,-0.619,-0.621,-0.6251,-0.6261,-0.6261,-0.6261,-0.6257,-0.6321,-0.6259,-0.6249,-0.6153,-0.6002,-0.5695,-0.5705,-0.5891,-0.618,-0.6252,-0.629,-0.6304,-0.6235,-0.6197,-0.6067,-0.6074,-0.6098,-0.5967,-0.5693,-0.5483,-0.5428,-0.5428,-0.5428,-0.5428,-0.5428,-0.5428,-0.5435,-0.5369,-0.5372,-0.5379,-0.5396,-0.5322,-0.3967,-0.2919,-0.3648,-0.439,-0.4569,-0.4468,-0.4438,-0.4465,-0.2976,-0.1927,-0.1745,-0.1458,-0.084,-0.1064,-0.2124,-0.2961,-0.3747,-0.4138,-0.4418,-0.447,-0.4463,-0.4463,-0.4463,-0.0,-0.0,-0.0,-0.0,-0.0,-0.0,-0.0,-0.0,-0.0,-0.0,-0.0,-0.0,-0.1724,-0.0805,-0.2007,-0.482,-0.7865,-0.7962,-0.7969,-0.7775,-0.6437,-0.6539,-0.7879,-0.7975,-0.7975,-0.7969,-0.7949,-0.8038,-0.8038,-0.8038,-0.8038,-0.8038,-0.8038,-0.7858,-0.7727,-0.7707,-0.7587,-0.7386,-0.7305,-0.7322,-0.7125,-0.7085,-0.7101,-0.7063,-0.6857,-0.6542,-0.6309,-0.6334,-0.6312,-0.6352,-0.6261,-0.6261,-0.6261,-0.6257,-0.6261,-0.6261,-0.6261,-0.6261,-0.6261,-0.6261,-0.6261,-0.6318,-0.6249,-0.6308,-0.6207,-0.5897,-0.5931,-0.6196,-0.6259,-0.6311,-0.6318,-0.6257,-0.6261,-0.6257,-0.6176,-0.6108,-0.6074,-0.5899,-0.5717,-0.5483,-0.5428,-0.5428,-0.5428,-0.5432,-0.5369,-0.5369,-0.5372,-0.5103,-0.5036,-0.5113,-0.5119,-0.4782,-0.3538,-0.3004,-0.3111,-0.3658,-0.4293,-0.44,-0.4481,-0.4574,-0.3975,-0.3138,-0.2753,-0.2523,-0.2015,-0.2573,-0.3524,-0.3808,-0.4373,-0.448,-0.4473,-0.447,-0.4463,-0.4463,-0.4463,-0.0,-0.0,-0.0,-0.0,-0.0,-0.0,-0.0,-0.0,-0.0,-0.0,-0.0,-0.506,-0.5124,-0.2521,-0.5338,-0.7469,-0.7975,-0.7982,-0.7672,-0.7459,-0.7141,-0.7344,-0.7869,-0.7955,-0.7955,-0.7962,-0.7949,-0.8038,-0.8038,-0.8038,-0.8038,-0.8038,-0.8031,-0.7875,-0.7771,-0.7931,-0.7863,-0.7617,-0.7482,-0.7326,-0.7191,-0.7141,-0.7153,-0.7143,-0.6897,-0.6652,-0.6423,-0.6425,-0.6376,-0.6278,-0.6261,-0.6261,-0.6261,-0.6261,-0.6261,-0.6261,-0.6261,-0.6261,-0.6261,-0.6261,-0.6261,-0.6257,-0.6251,-0.6257,-0.6244,-0.6227,-0.621,-0.6254,-0.6325,-0.6325,-0.6257,-0.6261,-0.6261,-0.6261,-0.624,-0.6125,-0.5837,-0.5765,-0.5731,-0.5494,-0.5428,-0.5435,-0.5439,-0.5369,-0.5372,-0.5376,-0.5306,-0.4691,-0.4622,-0.4761,-0.4758,-0.4217,-0.3682,-0.3556,-0.3786,-0.3099,-0.3732,-0.4399,-0.4326,-0.4174,-0.4539,-0.4014,-0.3596,-0.3418,-0.3304,-0.3978,-0.4369,-0.4425,-0.448,-0.447,-0.4467,-0.4463,-0.4463,-0.4463,-0.4463,-0.0,-0.0,-0.0,-0.0,-0.0,-0.0,-0.0,-0.0,-0.0,-0.0,-0.0,-0.5606,-0.7038,-0.6171,-0.7178,-0.7985,-0.7679,-0.7885,-0.6756,-0.5227,-0.502,-0.6234,-0.7659,-0.7952,-0.8041,-0.7949,-0.8041,-0.8038,-0.8038,-0.8038,-0.8038,-0.8038,-0.8038,-0.7922,-0.798,-0.797,-0.8,-0.7876,-0.7723,-0.7631,-0.7429,-0.7383,-0.7218,-0.7098,-0.6974,-0.678,-0.6609,-0.6447,-0.6305,-0.6268,-0.6261,-0.6261,-0.6261,-0.6261,-0.6261,-0.6261,-0.6261,-0.6261,-0.6261,-0.6261,-0.6261,-0.6261,-0.6261,-0.6261,-0.6261,-0.6261,-0.6261,-0.6261,-0.6261,-0.6261,-0.6261,-0.6261,-0.6261,-0.6261,-0.6254,-0.6184,-0.5806,-0.5803,-0.5783,-0.5457,-0.5545,-0.5542,-0.5497,-0.5386,-0.5382,-0.5312,-0.4831,-0.4486,-0.4688,-0.4897,-0.5103,-0.5173,-0.4821,-0.4623,-0.4254,-0.3294,-0.3255,-0.4196,-0.4094,-0.35,-0.4019,-0.4358,-0.4179,-0.4144,-0.3919,-0.4369,-0.4421,-0.447,-0.4467,-0.4463,-0.4463,-0.4463,-0.4463,-0.4463,-0.4463,-0.0,-0.0,-0.0,-0.0,-0.0,-0.0,-0.0,-0.0,-0.0,-0.0,-0.0,-0.3071,-0.5935,-0.7903,-0.8029,-0.6556,-0.4926,-0.5847,-0.5443,-0.4325,-0.4117,-0.5529,-0.7456,-0.7949,-0.8038,-0.8038,-0.8038,-0.8038,-0.8038,-0.8038,-0.8038,-0.8038,-0.8038,-0.8038,-0.8031,-0.8035,-0.8001,-0.801,-0.7855,-0.7767,-0.778,-0.7478,-0.7289,-0.7141,-0.7041,-0.6926,-0.6702,-0.6417,-0.6261,-0.6261,-0.6261,-0.6261,-0.6261,-0.6261,-0.6261,-0.6261,-0.6261,-0.6261,-0.6261,-0.6261,-0.6261,-0.6261,-0.6261,-0.6261,-0.6261,-0.6261,-0.6261,-0.6261,-0.6261,-0.6261,-0.6261,-0.6261,-0.6227,-0.6179,-0.622,-0.6122,-0.58,-0.5791,-0.5833,-0.5758,-0.5717,-0.5818,-0.5669,-0.5528,-0.5403,-0.5315,-0.4995,-0.4979,-0.5166,-0.5376,-0.5379,-0.5376,-0.5376,-0.512,-0.496,-0.4254,-0.385,-0.4607,-0.447,-0.3679,-0.3848,-0.4535,-0.4475,-0.4432,-0.4487,-0.448,-0.447,-0.4467,-0.4463,-0.4463,-0.4463,-0.4463,-0.4463,-0.4463,-0.4463,-0.0,-0.0,-0.0,-0.0,-0.0,-0.0,-0.0,-0.0,-0.0,-0.0,-0.0,-0.0,-0.0,-0.7167,-0.7256,-0.5253,-0.0503,-0.2746,-0.4275,-0.4374,-0.4562,-0.5459,-0.7808,-0.8062,-0.8041,-0.8038,-0.8038,-0.8038,-0.8038,-0.8038,-0.8038,-0.8038,-0.8038,-0.8038,-0.8038,-0.8038,-0.8038,-0.8007,-0.7916,-0.7862,-0.7897,-0.7604,-0.7372,-0.7197,-0.7044,-0.6949,-0.6712,-0.6451,-0.6268,-0.6285,-0.6271,-0.6261,-0.6261,-0.6261,-0.6261,-0.6261,-0.6261,-0.6261,-0.6261,-0.6261,-0.6261,-0.6261,-0.6261,-0.6261,-0.6261,-0.6261,-0.6261,-0.6261,-0.6261,-0.6261,-0.6261,-0.6261,-0.6213,-0.6149,-0.62,-0.6179,-0.6071,-0.5858,-0.5808,-0.5942,-0.6016,-0.6033,-0.594,-0.5701,-0.5458,-0.5453,-0.5184,-0.5179,-0.5299,-0.5365,-0.5435,-0.5432,-0.5432,-0.5365,-0.5355,-0.5226,-0.5067,-0.5185,-0.4955,-0.4458,-0.4271,-0.4616,-0.4545,-0.456,-0.4507,-0.449,-0.4467,-0.4463,-0.4463,-0.4463,-0.4463,-0.4463,-0.4463,-0.4463,-0.4463,-0.0,-0.0,-0.0,-0.0,-0.0,-0.0,-0.0,-0.0,-0.0,-0.0,-0.0,-0.0,-0.0,-0.0,-0.5551,-0.5058,-0.0515,-0.1355,-0.3056,-0.7392,-0.4965,-0.5758,-0.769,-0.8109,-0.8041,-0.8038,-0.8038,-0.8038,-0.8038,-0.8038,-0.8038,-0.8041,-0.8038,-0.8038,-0.8041,-0.8038,-0.8038,-0.8031,-0.7997,-0.798,-0.7946,-0.7797,-0.7537,-0.731,-0.6984,-0.678,-0.6709,-0.6478,-0.6322,-0.6287,-0.6325,-0.6264,-0.6274,-0.6271,-0.6274,-0.6274,-0.6264,-0.6261,-0.6261,-0.6261,-0.6261,-0.6261,-0.6261,-0.6261,-0.6261,-0.6261,-0.6261,-0.6261,-0.6261,-0.6261,-0.6261,-0.6261,-0.6237,-0.6213,-0.6227,-0.6247,-0.621,-0.6173,-0.6095,-0.6006,-0.6057,-0.5979,-0.6036,-0.5772,-0.5574,-0.552,-0.5498,-0.5389,-0.5439,-0.5442,-0.5428,-0.5428,-0.5428,-0.5432,-0.5432,-0.5428,-0.5342,-0.5321,-0.5192,-0.5094,-0.4887,-0.4731,-0.4694,-0.4673,-0.4587,-0.457,-0.4514,-0.4463,-0.4463,-0.4463,-0.4463,-0.4463,-0.4463,-0.4463,-0.4463,-0.0,-0.0,-0.0,-0.0,-0.0,-0.0,-0.0,-0.0,-0.0,-0.0,-0.0,-0.0,-0.0,-0.0,-0.2789,-0.2386,-0.146,-0.3173,-0.5769,-0.8101,-0.6903,-0.693,-0.7837,-0.8133,-0.8038,-0.8038,-0.8038,-0.8038,-0.8038,-0.8041,-0.7949,-0.7955,-0.7945,-0.7945,-0.7952,-0.8045,-0.8038,-0.8038,-0.8038,-0.8038,-0.8014,-0.7889,-0.7692,-0.7376,-0.697,-0.6766,-0.6793,-0.6569,-0.6437,-0.6347,-0.6277,-0.6305,-0.6349,-0.6359,-0.6438,-0.6434,-0.6288,-0.6264,-0.6261,-0.6261,-0.6261,-0.6261,-0.6261,-0.6261,-0.6261,-0.6261,-0.6261,-0.6261,-0.6261,-0.6261,-0.6261,-0.6261,-0.6261,-0.6261,-0.6261,-0.6261,-0.6261,-0.6261,-0.6234,-0.6129,-0.6129,-0.6125,-0.604,-0.5844,-0.5796,-0.5786,-0.5579,-0.5474,-0.545,-0.5443,-0.5442,-0.5428,-0.5428,-0.5428,-0.5428,-0.5422,-0.5408,-0.5325,-0.5281,-0.5233,-0.5145,-0.5006,-0.4887,-0.4775,-0.4653,-0.4609,-0.4596,-0.4535,-0.4467,-0.4522,-0.4522,-0.4519,-0.4463,-0.4463,-0.4463,-0.0,-0.0,-0.0,-0.0,-0.0,-0.0,-0.0,-0.0,-0.0,-0.0,-0.0,-0.0,-0.0,-0.0,-0.0,-0.0,-0.0,-0.406,-0.6506,-0.8562,-0.8246,-0.805,-0.8299,-0.8153,-0.8038,-0.8038,-0.8038,-0.8038,-0.8041,-0.8045,-0.7955,-0.7969,-0.7955,-0.7955,-0.7965,-0.7952,-0.8038,-0.8038,-0.8038,-0.8038,-0.8028,-0.7913,-0.7726,-0.7438,-0.7099,-0.686,-0.6823,-0.6695,-0.6519,-0.6361,-0.6354,-0.6261,-0.6192,-0.6444,-0.6524,-0.6507,-0.6312,-0.6268,-0.6261,-0.6261,-0.6261,-0.6261,-0.6261,-0.6261,-0.6261,-0.6261,-0.6261,-0.6261,-0.6261,-0.6261,-0.6261,-0.6261,-0.6261,-0.6261,-0.6261,-0.6261,-0.6261,-0.6261,-0.6251,-0.6247,-0.621,-0.6273,-0.6122,-0.5983,-0.5983,-0.5932,-0.5715,-0.5555,-0.5525,-0.5481,-0.5399,-0.5428,-0.5428,-0.5428,-0.5428,-0.5425,-0.5411,-0.5404,-0.5321,-0.5384,-0.538,-0.522,-0.5067,-0.4897,-0.4789,-0.4731,-0.464,-0.4545,-0.4553,-0.4539,-0.4525,-0.4463,-0.4463,-0.4463,-0.4463,-0.0,-0.0,-0.0,-0.0,-0.0,-0.0,-0.0,-0.0,-0.0,-0.0,-0.0,-0.0,-0.0,-0.0,-0.0,-0.0,-0.0,-0.2421,-0.4748,-0.7926,-0.8381,-0.8448,-0.836,-0.8157,-0.8045,-0.8038,-0.8041,-0.8041,-0.7945,-0.7959,-0.7965,-0.7969,-0.7965,-0.7969,-0.7965,-0.7952,-0.8038,-0.8038,-0.8038,-0.8038,-0.8024,-0.7953,-0.7818,-0.7522,-0.716,-0.7021,-0.6927,-0.6827,-0.6668,-0.6605,-0.6696,-0.5918,-0.5359,-0.5893,-0.6414,-0.6404,-0.6369,-0.6261,-0.6261,-0.6261,-0.6261,-0.6261,-0.6261,-0.6261,-0.6261,-0.6261,-0.6261,-0.6261,-0.6261,-0.6261,-0.6261,-0.6261,-0.6261,-0.6261,-0.6261,-0.6261,-0.6261,-0.6261,-0.6261,-0.6261,-0.6247,-0.6304,-0.6142,-0.603,-0.5928,-0.5833,-0.5661,-0.5528,-0.5484,-0.544,-0.5446,-0.5428,-0.5428,-0.5428,-0.5428,-0.5428,-0.5422,-0.5422,-0.5411,-0.5411,-0.5411,-0.5415,-0.5301,-0.5026,-0.487,-0.4779,-0.468,-0.4592,-0.4565,-0.4582,-0.4531,-0.4463,-0.4463,-0.4463,-0.4463,-0.0,-0.0,-0.0,-0.0,-0.0,-0.0,-0.0,-0.0,-0.0,-0.0,-0.0,-0.0,-0.0,-0.0,-0.0,-0.0,-0.0,-0.1657,-0.3736,-0.6305,-0.766,-0.8397,-0.8357,-0.8136,-0.8062,-0.8041,-0.7952,-0.7955,-0.7955,-0.7965,-0.7872,-0.7975,-0.7965,-0.7962,-0.7965,-0.7949,-0.8041,-0.8038,-0.8038,-0.8038,-0.8014,-0.7919,-0.7723,-0.755,-0.7265,-0.7099,-0.7061,-0.6858,-0.6805,-0.6881,-0.6819,-0.5798,-0.5214,-0.548,-0.6404,-0.6342,-0.6298,-0.6261,-0.6261,-0.6261,-0.6261,-0.6261,-0.6261,-0.6261,-0.6261,-0.6261,-0.6261,-0.6261,-0.6261,-0.6261,-0.6261,-0.6261,-0.6261,-0.6261,-0.6261,-0.6261,-0.6261,-0.6261,-0.6261,-0.6244,-0.6162,-0.6139,-0.6166,-0.6034,-0.5867,-0.5722,-0.5586,-0.5508,-0.5447,-0.5406,-0.5428,-0.5428,-0.5428,-0.5428,-0.5428,-0.5428,-0.5428,-0.5428,-0.5428,-0.5428,-0.5428,-0.5425,-0.5264,-0.5094,-0.4965,-0.4894,-0.4833,-0.4782,-0.4735,-0.465,-0.4551,-0.4473,-0.4467,-0.4463,-0.4463,-0.0,-0.0,-0.0,-0.0,-0.0,-0.0,-0.0,-0.0,-0.0,-0.0,-0.0,-0.0,-0.0,-0.0,-0.0,-0.0,-0.0548,-0.2729,-0.4325,-0.5645,-0.722,-0.8282,-0.8231,-0.8133,-0.7949,-0.7952,-0.7975,-0.7363,-0.5824,-0.5729,-0.6753,-0.7772,-0.7959,-0.7955,-0.7965,-0.7949,-0.8041,-0.8038,-0.8038,-0.8038,-0.797,-0.7763,-0.7597,-0.757,-0.7302,-0.7048,-0.7112,-0.6953,-0.6881,-0.6719,-0.6342,-0.5615,-0.4983,-0.571,-0.6152,-0.6083,-0.6162,-0.6274,-0.6261,-0.6261,-0.6261,-0.6261,-0.6261,-0.6261,-0.6261,-0.6261,-0.6261,-0.6261,-0.6261,-0.6261,-0.6261,-0.6261,-0.6261,-0.6261,-0.6261,-0.6261,-0.6261,-0.6261,-0.6261,-0.6203,-0.6084,-0.6061,-0.6101,-0.5989,-0.5813,-0.5681,-0.5549,-0.5477,-0.542,-0.5393,-0.5428,-0.5428,-0.5428,-0.5428,-0.5428,-0.5428,-0.5428,-0.5428,-0.5428,-0.5428,-0.5428,-0.5428,-0.5254,-0.5179,-0.5179,-0.5114,-0.5047,-0.4891,-0.4728,-0.4596,-0.4524,-0.448,-0.4467,-0.4463,-0.4463,-0.0,-0.0,-0.0,-0.0,-0.0,-0.0,-0.0,-0.0,-0.0,-0.0,-0.0,-0.0,-0.0,-0.0,-0.5047,-0.42,-0.2409,-0.2386,-0.483,-0.6766,-0.7711,-0.816,-0.8245,-0.8133,-0.7975,-0.7972,-0.8002,-0.5133,-0.0,-0.0,-0.362,-0.6453,-0.7672,-0.7982,-0.7972,-0.7955,-0.8038,-0.8038,-0.8041,-0.8041,-0.7991,-0.7753,-0.7624,-0.7522,-0.7322,-0.7132,-0.7126,-0.7031,-0.6943,-0.6559,-0.5012,-0.4816,-0.5762,-0.6125,-0.5521,-0.5224,-0.5485,-0.6271,-0.6261,-0.6261,-0.6261,-0.6261,-0.6261,-0.6261,-0.6261,-0.6261,-0.6261,-0.6261,-0.6261,-0.6261,-0.6261,-0.6261,-0.6261,-0.6261,-0.6261,-0.6261,-0.6261,-0.6261,-0.6261,-0.6213,-0.6112,-0.6061,-0.6057,-0.5908,-0.5762,-0.5633,-0.5521,-0.5454,-0.5406,-0.5452,-0.5428,-0.5428,-0.5428,-0.5428,-0.5428,-0.5428,-0.5428,-0.5428,-0.5428,-0.5428,-0.5428,-0.5428,-0.5425,-0.5308,-0.5301,-0.5196,-0.5009,-0.483,-0.4653,-0.4572,-0.4535,-0.4497,-0.4463,-0.4463,-0.4463,-0.0,-0.0,-0.0,-0.0,-0.0,-0.0,-0.0,-0.0,-0.0,-0.0,-0.0,-0.0,-0.0,-0.0,-0.3119,-0.4393,-0.4156,-0.2971,-0.4196,-0.7179,-0.7817,-0.7975,-0.8056,-0.8016,-0.7985,-0.7989,-0.739,-0.5046,-0.0,-0.0,-0.0,-0.0,-0.655,-0.7982,-0.7879,-0.7969,-0.7965,-0.7965,-0.7965,-0.7965,-0.7885,-0.7784,-0.7705,-0.7691,-0.7312,-0.7064,-0.6896,-0.7135,-0.7076,-0.6692,-0.5616,-0.4123,-0.318,-0.277,-0.2691,-0.3921,-0.5332,-0.62,-0.6264,-0.6261,-0.6261,-0.6261,-0.6261,-0.6261,-0.6261,-0.6261,-0.6261,-0.6261,-0.6261,-0.6261,-0.6261,-0.6261,-0.6261,-0.6261,-0.6261,-0.6261,-0.6261,-0.6261,-0.6247,-0.6196,-0.6228,-0.6115,-0.602,-0.58,-0.5755,-0.5806,-0.5627,-0.5464,-0.543,-0.5416,-0.5456,-0.5428,-0.5428,-0.5428,-0.5428,-0.5428,-0.5428,-0.5428,-0.5428,-0.5428,-0.5428,-0.5428,-0.5428,-0.5321,-0.5257,-0.5121,-0.4948,-0.484,-0.4731,-0.4646,-0.4565,-0.4511,-0.4463,-0.4463,-0.4463,-0.0,-0.0,-0.0,-0.0,-0.0,-0.0,-0.0,-0.0,-0.0,-0.0,-0.0,-0.0,-0.0,-0.0,-0.0,-0.2414,-0.5846,-0.2692,-0.3173,-0.5275,-0.6667,-0.6868,-0.6974,-0.7272,-0.7999,-0.7792,-0.5761,-0.3429,-0.0,-0.0,-0.0,-0.0,-0.0,-0.7578,-0.7779,-0.7256,-0.6939,-0.7915,-0.7102,-0.6372,-0.5904,-0.7105,-0.7587,-0.7674,-0.7326,-0.6587,-0.5531,-0.6016,-0.6141,-0.5995,-0.643,-0.5036,-0.3076,-0.291,-0.3304,-0.4304,-0.5727,-0.6278,-0.6264,-0.6261,-0.6261,-0.6261,-0.6261,-0.6261,-0.6261,-0.6261,-0.6261,-0.6261,-0.6261,-0.6261,-0.6261,-0.6261,-0.6261,-0.6261,-0.6261,-0.6261,-0.6261,-0.6261,-0.6251,-0.6217,-0.619,-0.619,-0.6037,-0.5732,-0.5711,-0.5898,-0.5776,-0.5515,-0.5507,-0.5487,-0.544,-0.541,-0.5439,-0.5456,-0.5433,-0.5487,-0.5466,-0.5428,-0.5428,-0.5428,-0.5428,-0.5428,-0.5428,-0.5301,-0.524,-0.5159,-0.505,-0.4935,-0.4816,-0.4646,-0.4567,-0.4487,-0.4463,-0.4463,-0.4463,-0.0,-0.0,-0.0,-0.0,-0.0,-0.0,-0.0,-0.0,-0.0,-0.0,-0.0,-0.0,-0.0,-0.0,-0.0,-0.1044,-0.1033,-0.3098,-0.2654,-0.2324,-0.2913,-0.4121,-0.473,-0.5959,-0.7196,-0.648,-0.0,-0.0,-0.0,-0.0,-0.0,-0.0,-0.0,-0.6874,-0.6868,-0.5133,-0.5289,-0.595,-0.5228,-0.321,-0.316,-0.4597,-0.7267,-0.77,-0.7101,-0.5176,-0.1064,-0.2715,-0.385,-0.3912,-0.5022,-0.6481,-0.482,-0.4724,-0.5188,-0.5569,-0.5883,-0.6274,-0.6264,-0.6261,-0.6261,-0.6261,-0.6261,-0.6261,-0.6261,-0.6261,-0.6261,-0.6261,-0.6261,-0.6261,-0.6261,-0.6261,-0.6261,-0.6261,-0.6261,-0.6261,-0.6261,-0.6261,-0.6251,-0.623,-0.622,-0.6217,-0.6196,-0.5925,-0.58,-0.5973,-0.5772,-0.5515,-0.548,-0.5459,-0.5471,-0.5471,-0.547,-0.5497,-0.5532,-0.5501,-0.5459,-0.5428,-0.5428,-0.5428,-0.5428,-0.5428,-0.5428,-0.5415,-0.5298,-0.5226,-0.5138,-0.5006,-0.4836,-0.4649,-0.4536,-0.4548,-0.4518,-0.4543,-0.4532,-0.0,-0.0,-0.0,-0.0,-0.0,-0.0,-0.0,-0.0,-0.0,-0.0,-0.0202,-0.3156,-0.307,-0.1643,-0.3603,-0.2872,-0.0509,-0.1018,-0.0,-0.0,-0.1108,-0.0,-0.0,-0.0,-0.2928,-0.0,-0.0,-0.0,-0.0,-0.0,-0.0,-0.0,-0.0,-0.262,-0.2417,-0.0,-0.0,-0.0,-0.0,-0.0,-0.0855,-0.1584,-0.4526,-0.7809,-0.7385,-0.4634,-0.1057,-0.0973,-0.1289,-0.0,-0.0,-0.3945,-0.5771,-0.5996,-0.6302,-0.6281,-0.6278,-0.6271,-0.6261,-0.6261,-0.6261,-0.6261,-0.6261,-0.6261,-0.6264,-0.6261,-0.6261,-0.6261,-0.6261,-0.6261,-0.6268,-0.6264,-0.6261,-0.6261,-0.6261,-0.6261,-0.6271,-0.6278,-0.6257,-0.624,-0.6234,-0.623,-0.621,-0.6235,-0.6074,-0.6017,-0.5766,-0.5545,-0.545,-0.5466,-0.5481,-0.5525,-0.5467,-0.5477,-0.5576,-0.5488,-0.5435,-0.5428,-0.5428,-0.5428,-0.5428,-0.5428,-0.5428,-0.5428,-0.5415,-0.527,-0.5172,-0.505,-0.4897,-0.4731,-0.4687,-0.4718,-0.465,-0.4587,-0.4549,-0.0,-0.0,-0.0,-0.0,-0.0,-0.0,-0.0,-0.0,-0.0,-0.0,-0.0,-0.526,-0.6168,-0.4332,-0.5663,-0.4748,-0.0,-0.0,-0.0,-0.0,-0.0,-0.0,-0.0,-0.0,-0.0,-0.0,-0.0,-0.0,-0.0,-0.0,-0.0,-0.0,-0.0,-0.0,-0.0,-0.0,-0.0,-0.0,-0.0,-0.0,-0.0,-0.0,-0.0,-0.5415,-0.6166,-0.4659,-0.0,-0.0,-0.0,-0.0,-0.0,-0.0,-0.3724,-0.5419,-0.6132,-0.6281,-0.6274,-0.6268,-0.6264,-0.6261,-0.6261,-0.6261,-0.6322,-0.6305,-0.6278,-0.6291,-0.6264,-0.6254,-0.6305,-0.6366,-0.6404,-0.6346,-0.6376,-0.6396,-0.6278,-0.6264,-0.6302,-0.6315,-0.6281,-0.6254,-0.6251,-0.6244,-0.6203,-0.6166,-0.6051,-0.5973,-0.5827,-0.5627,-0.5508,-0.5481,-0.5518,-0.5545,-0.5528,-0.5566,-0.561,-0.5481,-0.5435,-0.5428,-0.5428,-0.5428,-0.5428,-0.5428,-0.5428,-0.5428,-0.5404,-0.5298,-0.5247,-0.5182,-0.5064,-0.4928,-0.4891,-0.484,-0.4714,-0.4652,-0.4584,-0.0,-0.0,-0.0,-0.0,-0.0,-0.0,-0.0,-0.0,-0.0,-0.0,-0.0,-0.5258,-0.7601,-0.7077,-0.7711,-0.4841,-0.0,-0.0,-0.0,-0.0,-0.0,-0.0,-0.0,-0.0,-0.0,-0.0,-0.0,-0.0,-0.0,-0.0,-0.0,-0.0,-0.0,-0.0,-0.0,-0.0,-0.0,-0.0,-0.0,-0.0,-0.0,-0.0,-0.0,-0.1895,-0.424,-0.3314,-0.0,-0.0,-0.0,-0.0,-0.0,-0.1456,-0.1655,-0.487,-0.6126,-0.6268,-0.6264,-0.6264,-0.6349,-0.6268,-0.6369,-0.6332,-0.6427,-0.65,-0.6339,-0.6294,-0.6265,-0.6301,-0.6363,-0.6507,-0.6461,-0.6468,-0.6568,-0.6468,-0.6349,-0.6291,-0.6332,-0.6318,-0.6278,-0.6261,-0.6261,-0.6251,-0.6207,-0.6139,-0.6,-0.5905,-0.583,-0.5715,-0.5579,-0.5545,-0.5569,-0.5579,-0.5576,-0.5599,-0.5606,-0.5464,-0.5372,-0.5432,-0.5428,-0.5428,-0.5428,-0.5428,-0.5428,-0.5428,-0.5415,-0.5391,-0.5404,-0.5408,-0.5213,-0.5084,-0.4982,-0.4904,-0.4775,-0.466,-0.4582,-0.0,-0.0,-0.0,-0.0,-0.0,-0.0,-0.0,-0.0,-0.0,-0.0,-0.0,-0.2217,-0.5048,-0.6885,-0.7503,-0.0,-0.0,-0.0,-0.0,-0.0,-0.0,-0.0,-0.3939,-0.4241,-0.3327,-0.0,-0.0,-0.0,-0.0,-0.0,-0.0,-0.0,-0.0,-0.0,-0.0,-0.0,-0.0,-0.0,-0.0,-0.0,-0.0,-0.0,-0.0,-0.0,-0.0,-0.0,-0.0,-0.0,-0.0,-0.0,-0.0,-0.3113,-0.2631,-0.5232,-0.6207,-0.6271,-0.6342,-0.6393,-0.653,-0.6658,-0.6621,-0.6529,-0.6491,-0.6722,-0.6773,-0.6623,-0.6505,-0.6437,-0.6551,-0.6687,-0.6669,-0.6642,-0.6649,-0.6575,-0.642,-0.6366,-0.6356,-0.6302,-0.6261,-0.6261,-0.6261,-0.6261,-0.623,-0.6196,-0.6074,-0.5969,-0.5908,-0.5783,-0.5644,-0.5606,-0.5606,-0.5616,-0.5623,-0.5637,-0.561,-0.5555,-0.5491,-0.5477,-0.5423,-0.5428,-0.5428,-0.5428,-0.5428,-0.5428,-0.5428,-0.5428,-0.5428,-0.5422,-0.5391,-0.5237,-0.5128,-0.5013,-0.4894,-0.4752,-0.4616,-0.0,-0.0,-0.0,-0.0,-0.0,-0.0,-0.0,-0.0,-0.0,-0.0,-0.0,-0.0,-0.1711,-0.4947,-0.6687,-0.505,-0.0,-0.0,-0.0,-0.2323,-0.0,-0.4239,-0.5962,-0.7494,-0.5851,-0.321,-0.2708,-0.0,-0.0,-0.0,-0.0,-0.0,-0.0,-0.0,-0.0,-0.0,-0.0,-0.0,-0.0,-0.0,-0.0,-0.0,-0.0,-0.0,-0.0,-0.0,-0.0,-0.0,-0.071,-0.2338,-0.4155,-0.5653,-0.5095,-0.5345,-0.6417,-0.6417,-0.6342,-0.6493,-0.6676,-0.6887,-0.6815,-0.6658,-0.6726,-0.6878,-0.7019,-0.6805,-0.6671,-0.6715,-0.6749,-0.6862,-0.6859,-0.6739,-0.6673,-0.6603,-0.6451,-0.6393,-0.6373,-0.6322,-0.6261,-0.6261,-0.6261,-0.6261,-0.6257,-0.623,-0.6169,-0.6081,-0.5996,-0.5867,-0.5749,-0.5711,-0.5718,-0.5755,-0.5725,-0.5718,-0.5739,-0.5739,-0.5674,-0.5603,-0.5515,-0.542,-0.5428,-0.5428,-0.5428,-0.5428,-0.5428,-0.5428,-0.5428,-0.5415,-0.5401,-0.5318,-0.5267,-0.5145,-0.5016,-0.4931,-0.4896,-0.0,-0.0,-0.0,-0.0,-0.0,-0.0,-0.0,-0.0,-0.0,-0.0,-0.0,-0.0,-0.0,-0.0,-0.5356,-0.4442,-0.0,-0.0,-0.0,-0.5569,-0.5876,-0.6062,-0.6052,-0.6868,-0.6968,-0.7578,-0.7169,-0.6147,-0.6968,-0.2314,-0.0,-0.0,-0.0,-0.0,-0.0,-0.0,-0.0,-0.0,-0.0,-0.0,-0.0,-0.0,-0.0,-0.0,-0.0,-0.0,-0.0,-0.0,-0.0,-0.4314,-0.6198,-0.6267,-0.6311,-0.6437,-0.6621,-0.6568,-0.6398,-0.6475,-0.6695,-0.6969,-0.7063,-0.6963,-0.6973,-0.7031,-0.694,-0.6812,-0.675,-0.6685,-0.6675,-0.6791,-0.6947,-0.6836,-0.6732,-0.6592,-0.643,-0.6403,-0.64,-0.6352,-0.6281,-0.6261,-0.6261,-0.6261,-0.6261,-0.624,-0.622,-0.6173,-0.6105,-0.6091,-0.5969,-0.585,-0.5878,-0.5983,-0.5928,-0.582,-0.5827,-0.5844,-0.5823,-0.5745,-0.561,-0.5511,-0.5443,-0.5439,-0.5428,-0.5428,-0.5428,-0.5428,-0.5428,-0.5428,-0.5425,-0.5335,-0.5298,-0.5216,-0.5067,-0.537,-0.5423,-0.0,-0.0,-0.0,-0.0,-0.0,-0.0,-0.0,-0.0,-0.0,-0.0,-0.0,-0.0,-0.0,-0.0,-0.1614,-0.0,-0.0,-0.0,-0.0,-0.303,-0.5876,-0.6785,-0.7287,-0.7485,-0.7995,-0.7885,-0.7882,-0.7275,-0.6472,-0.0,-0.0,-0.0,-0.0,-0.0,-0.0,-0.0,-0.0,-0.0,-0.0,-0.0,-0.0,-0.0,-0.0,-0.0,-0.0,-0.0,-0.0,-0.0,-0.2837,-0.5928,-0.6525,-0.6564,-0.6622,-0.6445,-0.6369,-0.6447,-0.6374,-0.6374,-0.6597,-0.6913,-0.7079,-0.7083,-0.7024,-0.7097,-0.7004,-0.6915,-0.6753,-0.6572,-0.6573,-0.6726,-0.6761,-0.6692,-0.663,-0.6575,-0.6407,-0.6346,-0.6342,-0.6322,-0.6261,-0.6261,-0.6261,-0.6261,-0.6261,-0.6257,-0.6237,-0.622,-0.621,-0.6207,-0.6169,-0.604,-0.6,-0.6105,-0.6074,-0.5945,-0.5981,-0.5988,-0.5911,-0.5874,-0.5803,-0.5738,-0.5521,-0.545,-0.5456,-0.5428,-0.5428,-0.5428,-0.5428,-0.5428,-0.5428,-0.5315,-0.527,-0.5203,-0.5195,-0.5568,-0.5594,-0.0,-0.0,-0.0,-0.0,-0.0,-0.0,-0.0,-0.0,-0.0,-0.0,-0.0,-0.0,-0.0,-0.0,-0.0,-0.0,-0.0,-0.0,-0.0,-0.121,-0.0,-0.474,-0.5954,-0.7481,-0.7995,-0.7575,-0.5937,-0.4119,-0.0,-0.0,-0.0,-0.0,-0.0,-0.0,-0.0,-0.0,-0.0,-0.0,-0.0,-0.0,-0.0,-0.175,-0.2009,-0.0,-0.0,-0.0,-0.0,-0.0,-0.4393,-0.6605,-0.6737,-0.6623,-0.6642,-0.6532,-0.6613,-0.6656,-0.6539,-0.6625,-0.6798,-0.6836,-0.6943,-0.7018,-0.7004,-0.7076,-0.7039,-0.696,-0.6669,-0.6473,-0.6485,-0.6522,-0.6522,-0.6515,-0.6495,-0.6474,-0.6373,-0.6271,-0.6264,-0.6264,-0.6261,-0.6261,-0.6261,-0.6261,-0.6261,-0.6261,-0.6257,-0.6244,-0.624,-0.624,-0.623,-0.6173,-0.6132,-0.6176,-0.6132,-0.6051,-0.6101,-0.6233,-0.6233,-0.6331,-0.6456,-0.625,-0.5811,-0.5488,-0.5452,-0.5428,-0.5428,-0.5428,-0.5428,-0.5428,-0.5422,-0.5311,-0.5294,-0.527,-0.541,-0.5717,-0.5604,-0.0,-0.0,-0.0,-0.0,-0.0,-0.0,-0.0,-0.0,-0.0,-0.0,-0.0,-0.0,-0.0,-0.0,-0.0,-0.0,-0.0,-0.0,-0.0,-0.0,-0.0,-0.0,-0.4184,-0.6429,-0.7739,-0.6226,-0.0,-0.0,-0.0,-0.0,-0.0,-0.0,-0.0,-0.0,-0.0,-0.0,-0.0,-0.0,-0.0,-0.0,-0.0,-0.4306,-0.571,-0.1807,-0.0,-0.0,-0.0,-0.3583,-0.6979,-0.6873,-0.6777,-0.6662,-0.6615,-0.6778,-0.6993,-0.7013,-0.6817,-0.6797,-0.6881,-0.6803,-0.6898,-0.6953,-0.6997,-0.6898,-0.6861,-0.687,-0.6572,-0.6401,-0.643,-0.6471,-0.6549,-0.6471,-0.6424,-0.6437,-0.6396,-0.6339,-0.6332,-0.6315,-0.6288,-0.6518,-0.7126,-0.6972,-0.6416,-0.6416,-0.6563,-0.6412,-0.6261,-0.6261,-0.6254,-0.624,-0.6234,-0.6304,-0.6569,-0.6525,-0.6398,-0.6529,-0.6738,-0.6798,-0.6836,-0.6481,-0.5818,-0.5532,-0.5435,-0.5428,-0.5428,-0.5428,-0.5428,-0.5428,-0.5428,-0.5418,-0.5408,-0.5418,-0.5567,-0.5807,-0.5646,-0.0,-0.0,-0.0,-0.0,-0.0,-0.0,-0.0,-0.0,-0.0,-0.0,-0.0,-0.0,-0.0,-0.0,-0.0,-0.0,-0.0,-0.0,-0.0,-0.0,-0.0,-0.0,-0.0,-0.5121,-0.714,-0.6243,-0.0,-0.0,-0.0,-0.0,-0.0,-0.0,-0.0,-0.0,-0.0,-0.0,-0.0,-0.0,-0.0,-0.0,-0.4233,-0.5608,-0.6267,-0.4435,-0.0,-0.0,-0.1973,-0.4399,-0.6376,-0.7058,-0.7041,-0.69,-0.6699,-0.6939,-0.6953,-0.6905,-0.6946,-0.6905,-0.6834,-0.6807,-0.681,-0.6756,-0.6763,-0.6672,-0.6629,-0.662,-0.6597,-0.6391,-0.6315,-0.645,-0.6481,-0.6384,-0.6376,-0.6407,-0.6424,-0.6407,-0.64,-0.6373,-0.6332,-0.6935,-0.7704,-0.7443,-0.6729,-0.6567,-0.6795,-0.6718,-0.6412,-0.6261,-0.6261,-0.6251,-0.6251,-0.6398,-0.7165,-0.7226,-0.6872,-0.6865,-0.6969,-0.6723,-0.6485,-0.6147,-0.5816,-0.5576,-0.541,-0.5442,-0.5428,-0.5428,-0.5428,-0.5428,-0.5428,-0.5428,-0.5428,-0.5428,-0.5428,-0.5563,-0.542,-0.0,-0.0,-0.0,-0.0,-0.0,-0.2173,-0.32,-0.2819,-0.0,-0.0,-0.0,-0.0,-0.0,-0.0,-0.0,-0.0,-0.0,-0.0,-0.0,-0.0,-0.0,-0.0,-0.0,-0.0,-0.3385,-0.0,-0.0,-0.0,-0.0,-0.0,-0.0,-0.0,-0.0,-0.0,-0.0,-0.0,-0.0,-0.0,-0.0,-0.0,-0.0,-0.5613,-0.6992,-0.6161,-0.5245,-0.3247,-0.3314,-0.5295,-0.5649,-0.67,-0.7099,-0.7078,-0.6959,-0.6997,-0.7014,-0.7,-0.7,-0.698,-0.6868,-0.6723,-0.6703,-0.6698,-0.6692,-0.6632,-0.6463,-0.6483,-0.6542,-0.6415,-0.6666,-0.6805,-0.6688,-0.6522,-0.6485,-0.6534,-0.6396,-0.6346,-0.643,-0.6502,-0.6451,-0.6641,-0.7062,-0.6968,-0.6416,-0.6416,-0.6567,-0.6567,-0.6338,-0.6338,-0.6338,-0.6261,-0.6261,-0.6412,-0.7022,-0.7099,-0.6644,-0.6795,-0.7238,-0.6825,-0.6336,-0.6161,-0.593,-0.5652,-0.546,-0.5413,-0.5446,-0.5428,-0.5428,-0.5428,-0.5428,-0.5428,-0.5428,-0.5428,-0.5428,-0.5428,-0.537,-0.0,-0.0,-0.0,-0.0,-0.0,-0.4152,-0.6253,-0.6247,-0.0,-0.0,-0.0,-0.0,-0.0,-0.0,-0.0,-0.0,-0.0,-0.0,-0.0,-0.0,-0.0,-0.0,-0.0,-0.0,-0.0,-0.0,-0.0,-0.0,-0.0,-0.0,-0.0,-0.0,-0.0,-0.0,-0.0,-0.0,-0.0,-0.0,-0.0,-0.0,-0.0,-0.4014,-0.5735,-0.6753,-0.7517,-0.7521,-0.6505,-0.5913,-0.5636,-0.6145,-0.7078,-0.7071,-0.7061,-0.7054,-0.7068,-0.7068,-0.7041,-0.701,-0.6939,-0.6759,-0.6729,-0.6719,-0.6675,-0.6619,-0.6459,-0.6482,-0.6541,-0.6652,-0.6908,-0.6975,-0.677,-0.6681,-0.664,-0.6596,-0.651,-0.6599,-0.6732,-0.6763,-0.6711,-0.6729,-0.6627,-0.6599,-0.6416,-0.6338,-0.649,-0.649,-0.6416,-0.6416,-0.6416,-0.6338,-0.6261,-0.6261,-0.6567,-0.649,-0.6338,-0.6795,-0.7403,-0.6805,-0.6307,-0.6241,-0.6057,-0.5741,-0.5511,-0.544,-0.5473,-0.5446,-0.5428,-0.5428,-0.5428,-0.5428,-0.5428,-0.5428,-0.5428,-0.5428,-0.5428,-0.0,-0.0,-0.0,-0.0,-0.0,-0.1204,-0.3469,-0.6627,-0.6078,-0.3705,-0.0,-0.0,-0.0,-0.0,-0.0,-0.0,-0.0,-0.0,-0.0,-0.0,-0.0,-0.0,-0.0,-0.0,-0.0,-0.0,-0.0,-0.0,-0.0,-0.0,-0.2032,-0.4943,-0.1204,-0.0,-0.0,-0.2066,-0.0,-0.0,-0.0,-0.0,-0.0,-0.2251,-0.3774,-0.531,-0.7224,-0.7221,-0.692,-0.6726,-0.6726,-0.6979,-0.7129,-0.7115,-0.7109,-0.7102,-0.7112,-0.7112,-0.7085,-0.7065,-0.7,-0.6826,-0.679,-0.6753,-0.6703,-0.6864,-0.6692,-0.6676,-0.6726,-0.6844,-0.701,-0.6986,-0.685,-0.6795,-0.668,-0.6791,-0.6706,-0.7319,-0.7694,-0.7539,-0.7419,-0.74,-0.7363,-0.695,-0.6338,-0.6644,-0.7326,-0.7176,-0.6718,-0.6795,-0.7099,-0.6795,-0.6261,-0.6261,-0.6261,-0.6261,-0.6338,-0.6949,-0.7318,-0.6736,-0.6291,-0.6198,-0.596,-0.5734,-0.5572,-0.5504,-0.55,-0.5452,-0.5442,-0.5428,-0.5428,-0.5428,-0.5428,-0.5428,-0.5428,-0.5428,-0.5428]},{"header":{"parameterUnit":"m.s-1","parameterCategory":1,"la1":31.0,"la2":29.5877,"lo1":-88.7671,"lo2":-86.6584,"dy":0.0162,"dx":0.0185,"nx":115,"ny":88,"refTime":"2023-08-12T18:00:00:Z","depth":0,"parameterNumber":3,"parameterNumberName":"V-component_of_WINDS"},"data":[0.0,0.0,0.0,0.0,0.0,0.0,0.0,0.0,0.0,0.0,0.0,0.0,0.0,0.0,0.0,0.0,0.0,0.0,0.0,0.0,0.0,0.0,0.0,0.0,0.0,0.0,0.0,0.0,0.0,0.0,0.0,0.0,0.0,0.0,0.0,0.0,0.0,0.0,0.0,0.0,0.0,0.0,0.0,0.0,0.0,0.0,0.0,0.0,0.0,0.0,0.0,0.0,0.0,0.0,0.0,0.0,0.0,0.0,0.0,0.0,0.0,0.0,0.0,0.0,0.0,0.0,0.0,0.0,0.0,0.0,0.0,0.0,0.0,0.0,0.0,0.0,0.0,0.0,0.0,0.0,0.0,0.0,0.0,0.0,0.0,0.0,0.0,0.0,0.0,0.0,0.0,0.0,0.0,0.0,0.0,0.0,0.0,0.0,0.0,0.0,0.0,0.0,0.0,0.0,0.0,0.0,0.0,0.0,0.0,0.0,0.0,0.0,0.0,0.0,0.0,0.0,0.0,0.0,0.0,0.0,0.0,0.0,0.0,0.0,0.0,0.0,0.0,0.0,0.0,0.0,0.0,0.0,0.0,0.0,0.0,0.0,0.0,0.0,0.0,0.0,0.0,0.0,0.0,0.0,0.0,0.0,0.0,0.0,0.0,0.0,0.0,0.0,0.0,0.0,0.0,0.0,0.0,0.0,0.0,0.0,0.0,0.0,0.0,0.0,0.0,0.0,0.0,0.0,0.0,0.0,0.0,0.0,0.0,0.0,0.0,0.0,0.0,0.0,0.0,0.0,0.0,0.0,0.0,0.0,0.0,0.0,0.0,0.0,0.0,0.0,0.0,0.0,0.0,0.0,0.0,0.0,0.0,0.0,0.0,0.0,0.0,0.0,0.0,0.0,0.0,0.0,0.0,0.0,0.0,0.0,0.0,0.0,0.0,0.0,0.0,0.0,0.0,0.0,0.0,0.0,0.0,0.0,0.0,0.0,0.0,0.0,0.0,0.0,0.0,0.0,0.0,0.0,0.0,0.0,0.0,0.0,0.0,0.0,0.0,0.0,0.0,0.0,0.0,0.0,0.0,0.0,0.0,0.0,0.0,0.0,0.0,0.0,0.0,0.0,0.0,0.0,0.0,0.0,0.0,0.0,0.0,0.0,0.0,0.0,0.0,0.0,0.0,0.0,0.0,0.0,0.0,0.0,0.0,0.0,0.0,0.0,0.0,0.0,0.0,0.0,0.0,0.0,0.0,0.0,0.0,0.0,0.0,0.0,0.0,0.0,0.0,0.0,0.0,0.0,0.0,0.0,0.0,0.0,0.0,0.0,0.0,0.0,0.0,0.0,0.0,0.0,0.0,0.0,0.0,0.0,0.0,0.0,0.0,0.0,0.0,0.0,0.0,0.0,0.0,0.0,0.0,0.0,0.0,0.0,0.0,0.0,0.0,0.0,0.0,0.0,0.0,0.0,0.0,0.0,0.0,0.0,0.0,0.0,0.0,0.0,0.0,0.0,0.0,0.0,0.0,0.0,0.0,0.0,0.0,0.0,0.0,0.0,0.0,0.0,0.0,0.0,0.0,0.0,0.0,0.0,0.0,0.0,0.0,0.0,0.0,0.0,0.0,0.0,0.0,0.0,0.0,0.0,0.0,0.0,0.0,0.0,0.0,0.0,0.0,0.0,0.0,0.0,0.0,0.0,0.0,0.0,0.0,0.0,0.0,0.0,0.0,0.0,0.0,0.0,0.0,0.0,0.0,0.0,0.0,0.0,0.0,0.0,0.0,0.0,0.0,0.0,0.0,0.0,0.0,0.0,0.0,0.0,0.0,0.0,0.0,0.0,0.0,0.0,0.0,0.0,0.0,0.0,0.0,0.0,0.0,0.0,0.0,0.0,0.0,0.0,0.0,0.0,0.0,0.0,0.0,0.0,0.0,0.0,0.0,0.0,0.0,0.0,0.0,0.0,0.0,0.0,0.0,0.0,0.0,0.0,0.0,0.0,0.0,0.0,0.0,0.0,0.0,0.0,0.0,0.0,0.0,0.0,0.0,0.0,0.0,0.0,0.0,0.0,0.0,0.0,0.0,0.0,0.0,0.0,0.0,0.0,0.0,0.0,0.0,0.0,0.0,0.0,0.0,0.0,0.0,0.0,0.0,0.0,0.0,0.0,0.0,0.0,0.0,0.0,0.0,0.0,0.0,0.0,0.0,0.0,0.0,0.0,0.0,0.0,0.0,0.0,0.0,0.0,0.0,0.0,0.0,0.0,0.0,0.0,0.0,0.0,0.0,0.0,0.0,0.0,0.0,0.0,0.0,0.0,0.0,0.0,0.0,0.0,0.0,0.0,0.0,0.0,0.0,0.0,0.0,0.0,0.0,0.0,0.0,0.0,0.0,0.0,0.0,0.0,0.0,0.0,0.0,0.0,0.0,0.0,0.0,0.0,0.0,0.0,0.0,0.0,0.0,0.0,0.0,0.0,0.0,0.0,0.0,0.0,0.0,0.0,0.0,0.0,0.0,0.0,0.0,0.0,0.0,0.0,0.0,0.0,0.0,0.0,0.0,0.0,0.0,0.0,0.0,0.0,0.0,0.0,0.0,0.0,0.0,0.0,0.0,0.0,0.0,0.0,0.0,0.0,0.0,0.0,0.0,0.0,0.0,0.0,0.0,0.0,0.0,0.0,0.0,0.0,0.0,0.0,0.0,0.0,0.0,0.0,0.0,0.0,0.0,0.0,0.0,0.0,0.0,0.0,0.0,0.0,0.0,0.0,0.0,0.0,0.0,0.0,0.0,0.0,0.0,0.0,0.0,0.0,0.0,0.0,0.0,0.0,0.0,0.0,0.0,0.0,0.0,0.0,0.0,0.0,0.0,0.0,0.0,0.0,0.0,0.0,0.0,0.0,0.0,0.0,0.0,0.0,0.0,0.0,0.0,0.0,0.0,0.0,0.0,0.0,0.0,0.0,0.0,0.0,0.0,0.0,0.0,0.0,0.0,0.0,0.0,0.0,0.0,0.0,0.0,0.0,0.0,0.0,0.0,0.0,0.0,0.0,0.0,0.0,0.0,0.0,0.0,0.0,0.0,0.0,0.0,0.0,0.0,0.0,0.0,0.0,0.0,0.0,0.0,0.0,0.0,0.0,0.0,0.0,0.0,0.0,0.0,0.0,0.0,0.0,0.0,0.0,0.0,0.0,0.0,0.0,0.0,0.0,0.0,0.0,0.0,0.0,0.0,0.0,0.0,0.0,0.0,0.0,0.0,0.0,0.0,0.0,0.0,0.0,0.0,0.0,0.0,0.0,0.0,0.0,0.0,0.0,0.0,0.0,0.0,0.0,0.0,0.0,0.0,0.0,0.0,0.0,0.0,0.0,0.0,0.0,0.0,0.0,0.0,0.0,0.0,0.0,0.0,0.0,0.0,0.0,0.0,0.0,0.0,0.0,0.0,0.0,0.0,0.0,0.0,0.0,0.0,0.0,0.0,0.0,0.0,0.0,0.0,0.0,0.0,0.0,0.0,0.0,0.0,0.0,0.0,0.0,0.0,0.0,0.0,0.0,0.0,0.0,0.0,0.0,0.0,0.0,0.0,0.0,0.0,0.0,0.0,0.0,0.0,0.0,0.0,0.0,0.0,0.0,0.0,0.0,0.0,0.0,0.0,0.0,0.0,0.0,0.0,0.0,0.0,0.0,0.0,0.0,0.0,0.0,0.0,0.0,0.0,0.0,0.0,0.0,0.0,0.0,0.0,0.0,0.0,0.0,0.0,0.0,0.0,0.0,0.0,0.0,0.0,0.0,0.0,0.0,0.0,0.0,0.0,0.0,0.0,0.0,0.0,0.0,0.0,0.0,0.0,0.0,0.0,0.0,0.0,0.0,0.0,0.0,0.0,0.0,0.0,0.0,0.0,0.0,0.0,0.0,0.0,0.0,0.0,0.0,0.0,0.0,0.0,0.0,0.0,0.0,0.0,0.0,0.0,0.0,0.0,0.0,0.0,0.0,0.0,0.0,0.0,0.0,0.0,0.0,0.0,0.0,0.0,0.0,0.0,0.0,0.0,0.0,0.0,0.0,0.0,0.0,0.0,0.0,0.0,0.0,0.0,0.0,0.0,0.0,0.0,0.0,0.0,0.0,0.0,0.0,0.0,0.0,0.0,0.0,0.0,0.0,0.0,0.0,0.0,0.0,0.0,0.0,0.0,0.0,0.0,0.0,0.0,0.0,0.0,0.0,0.0,0.0,0.0,0.0,0.0,0.0,0.0,0.0,0.0,0.0,-1.2631,0.0,0.0,0.0,0.0,0.0,0.0,0.0,0.0,0.0,0.0,0.0,0.0,0.0,0.0,0.0,0.0,0.0,0.0,0.0,0.0,0.0,0.0,0.0,0.0,0.0,0.0,0.0,0.0,0.0,0.0,0.0,0.0,0.0,0.0,0.0,0.0,0.0,0.0,0.0,0.0,0.0,0.0,0.0,0.0,0.0,0.0,0.0,0.0,0.0,0.0,0.0,0.0,0.0,0.0,0.0,0.0,0.0,0.0,0.0,0.0,0.0,0.0,0.0,0.0,0.0,0.0,0.0,0.0,0.0,0.0,0.0,0.0,0.0,0.0,0.0,0.0,0.0,0.0,0.0,0.0,0.0,0.0,0.0,0.0,0.0,0.0,0.0,0.0,0.0,0.0,0.0,0.0,0.0,0.0,0.0,0.0,0.0,0.0,0.0,0.0,0.0,0.0,0.0,0.0,0.0,0.0,0.0,0.0,0.0,0.0,-1.4573,-1.4469,-1.4277,-1.3962,-1.3479,0.0,0.0,0.0,0.0,0.0,0.0,0.0,0.0,0.0,0.0,0.0,0.0,0.0,0.0,0.0,0.0,0.0,0.0,0.0,0.0,0.0,0.0,0.0,0.0,0.0,0.0,0.0,0.0,0.0,0.0,0.0,0.0,0.0,0.0,0.0,0.0,0.0,0.0,0.0,0.0,0.0,0.0,0.0,0.0,0.0,0.0,0.0,0.0,0.0,0.0,0.0,0.0,0.0,0.0,0.0,0.0,0.0,0.0,0.0,0.0,0.0,0.0,0.0,0.0,0.0,0.0,0.0,0.0,0.0,0.0,0.0,0.0,0.0,0.0,0.0,0.0,0.0,0.0,0.0,0.0,0.0,0.0,0.0,0.0,0.0,0.0,0.0,0.0,0.0,0.0,0.0,0.0,0.0,0.0,0.0,0.0,0.0,0.0,0.0,0.0,0.0,0.0,0.0,0.0,0.0,0.0,0.0,0.0,0.0,0.0,0.0,0.0,-1.4372,-1.4176,-1.4779,0.0,0.0,0.0,0.0,0.0,0.0,0.0,0.0,0.0,0.0,0.0,0.0,0.0,0.0,0.0,0.0,0.0,0.0,0.0,0.0,0.0,0.0,0.0,0.0,0.0,0.0,0.0,0.0,0.0,0.0,0.0,0.0,0.0,0.0,0.0,0.0,0.0,0.0,0.0,0.0,0.0,0.0,0.0,0.0,0.0,0.0,0.0,0.0,0.0,0.0,0.0,0.0,0.0,0.0,0.0,0.0,0.0,0.0,0.0,0.0,0.0,0.0,0.0,0.0,0.0,0.0,0.0,0.0,0.0,0.0,0.0,0.0,0.0,0.0,0.0,0.0,0.0,0.0,0.0,0.0,0.0,0.0,0.0,0.0,0.0,0.0,0.0,0.0,0.0,0.0,0.0,0.0,0.0,0.0,0.0,0.0,0.0,0.0,0.0,0.0,0.0,0.0,0.0,0.0,0.0,0.0,0.0,0.0,0.0,0.0,-1.4801,-1.706,-1.6112,0.0,-1.6537,0.0,0.0,0.0,0.0,0.0,0.0,0.0,0.0,0.0,0.0,0.0,0.0,0.0,0.0,0.0,0.0,0.0,0.0,0.0,0.0,0.0,0.0,0.0,0.0,0.0,0.0,0.0,0.0,0.0,0.0,0.0,0.0,0.0,0.0,0.0,0.0,0.0,0.0,0.0,0.0,0.0,0.0,0.0,0.0,0.0,0.0,0.0,0.0,0.0,0.0,0.0,0.0,0.0,0.0,0.0,0.0,0.0,0.0,0.0,0.0,0.0,0.0,0.0,0.0,0.0,0.0,0.0,0.0,0.0,0.0,0.0,0.0,0.0,0.0,0.0,0.0,0.0,0.0,0.0,0.0,0.0,0.0,0.0,0.0,0.0,0.0,0.0,0.0,0.0,0.0,0.0,0.0,0.0,0.0,0.0,0.0,0.0,0.0,0.0,0.0,0.0,0.0,0.0,0.0,0.0,0.0,0.0,0.0,0.0,0.0,-1.5419,-1.7478,-1.6944,-1.6355,0.0,0.0,0.0,0.0,0.0,0.0,0.0,0.0,0.0,0.0,0.0,0.0,0.0,0.0,0.0,0.0,0.0,0.0,0.0,0.0,0.0,0.0,0.0,0.0,0.0,0.0,0.0,0.0,0.0,0.0,0.0,0.0,0.0,0.0,0.0,0.0,0.0,0.0,0.0,0.0,0.0,0.0,0.0,0.0,0.0,0.0,0.0,0.0,0.0,0.0,0.0,0.0,0.0,0.0,0.0,0.0,0.0,0.0,0.0,0.0,0.0,0.0,0.0,0.0,0.0,0.0,0.0,0.0,0.0,0.0,0.0,0.0,0.0,0.0,0.0,0.0,0.0,0.0,0.0,0.0,0.0,0.0,0.0,0.0,0.0,0.0,0.0,0.0,0.0,0.0,0.0,0.0,0.0,0.0,0.0,0.0,0.0,0.0,0.0,0.0,0.0,0.0,0.0,0.0,0.0,0.0,0.0,0.0,0.0,0.0,-1.5838,-1.6223,-1.7748,-1.7041,-1.6269,-1.5588,0.0,0.0,0.0,0.0,0.0,0.0,0.0,0.0,0.0,0.0,0.0,0.0,0.0,0.0,0.0,0.0,0.0,0.0,0.0,0.0,0.0,0.0,0.0,0.0,0.0,0.0,0.0,0.0,0.0,0.0,0.0,0.0,0.0,0.0,0.0,0.0,0.0,0.0,0.0,0.0,0.0,0.0,0.0,0.0,0.0,0.0,0.0,0.0,0.0,0.0,0.0,0.0,0.0,0.0,0.0,0.0,0.0,0.0,0.0,0.0,0.0,0.0,0.0,0.0,0.0,0.0,0.0,0.0,0.0,0.0,0.0,0.0,0.0,0.0,0.0,0.0,0.0,0.0,0.0,0.0,0.0,0.0,0.0,0.0,0.0,0.0,0.0,0.0,0.0,0.0,0.0,0.0,0.0,0.0,0.0,0.0,0.0,0.0,0.0,0.0,0.0,0.0,0.0,0.0,0.0,0.0,0.0,0.0,-1.9754,-1.7665,-1.7142,-1.8488,-1.633,-1.576,0.0,0.0,0.0,0.0,0.0,0.0,0.0,0.0,0.0,0.0,0.0,0.0,0.0,0.0,0.0,0.0,0.0,0.0,0.0,0.0,0.0,0.0,0.0,0.0,0.0,0.0,0.0,0.0,0.0,0.0,0.0,0.0,0.0,0.0,0.0,0.0,0.0,0.0,0.0,0.0,0.0,0.0,0.0,0.0,0.0,0.0,0.0,0.0,0.0,0.0,0.0,0.0,0.0,0.0,0.0,0.0,0.0,0.0,0.0,0.0,0.0,0.0,0.0,0.0,0.0,0.0,0.0,0.0,0.0,0.0,0.0,0.0,0.0,0.0,0.0,0.0,0.0,0.0,0.0,0.0,0.0,0.0,0.0,0.0,0.0,0.0,0.0,0.0,0.0,0.0,0.0,0.0,0.0,0.0,0.0,0.0,0.0,0.0,0.0,0.0,0.0,0.0,0.0,0.0,0.0,0.0,0.0,0.0,0.0,-1.7003,-1.7723,-1.7834,-1.7317,-1.735,-1.7247,0.0,0.0,0.0,0.0,0.0,0.0,0.0,0.0,0.0,0.0,0.0,0.0,0.0,0.0,0.0,0.0,0.0,0.0,0.0,0.0,0.0,0.0,0.0,0.0,0.0,0.0,0.0,0.0,0.0,0.0,0.0,0.0,0.0,0.0,0.0,0.0,0.0,0.0,0.0,0.0,0.0,0.0,0.0,0.0,0.0,0.0,0.0,0.0,0.0,0.0,0.0,0.0,0.0,0.0,0.0,0.0,0.0,0.0,0.0,0.0,0.0,0.0,0.0,0.0,0.0,0.0,0.0,0.0,0.0,0.0,0.0,0.0,0.0,0.0,0.0,0.0,0.0,0.0,0.0,0.0,0.0,0.0,0.0,0.0,0.0,0.0,0.0,0.0,0.0,0.0,0.0,0.0,0.0,0.0,0.0,0.0,0.0,0.0,0.0,0.0,0.0,0.0,0.0,0.0,0.0,0.0,0.0,0.0,0.0,-1.6849,0.0,-1.8885,-1.7811,-1.7874,-1.765,0.0,0.0,0.0,0.0,0.0,0.0,0.0,0.0,0.0,0.0,0.0,0.0,0.0,0.0,0.0,0.0,0.0,0.0,0.0,0.0,0.0,0.0,0.0,0.0,0.0,0.0,0.0,0.0,0.0,0.0,0.0,0.0,0.0,0.0,0.0,0.0,0.0,0.0,0.0,0.0,0.0,0.0,0.0,0.0,0.0,0.0,0.0,0.0,0.0,0.0,0.0,0.0,0.0,0.0,0.0,0.0,0.0,0.0,0.0,0.0,0.0,0.0,0.0,0.0,0.0,0.0,0.0,0.0,0.0,0.0,0.0,0.0,0.0,0.0,0.0,0.0,0.0,0.0,0.0,0.0,0.0,0.0,0.0,0.0,0.0,0.0,0.0,0.0,0.0,0.0,0.0,0.0,0.0,0.0,0.0,0.0,0.0,0.0,0.0,0.0,0.0,0.0,0.0,0.0,0.0,0.0,0.0,0.0,-1.7703,-2.0095,-2.0219,-2.0215,-2.0246,-1.786,-1.6844,0.0,0.0,0.0,0.0,0.0,0.0,0.0,0.0,0.0,0.0,0.0,0.0,0.0,0.0,0.0,0.0,0.0,0.0,0.0,0.0,0.0,0.0,0.0,0.0,0.0,0.0,0.0,0.0,0.0,0.0,0.0,0.0,0.0,0.0,0.0,0.0,0.0,0.0,0.0,0.0,0.0,0.0,0.0,0.0,0.0,0.0,0.0,0.0,0.0,0.0,0.0,0.0,0.0,0.0,0.0,0.0,0.0,0.0,0.0,0.0,0.0,0.0,0.0,0.0,0.0,0.0,0.0,0.0,0.0,0.0,0.0,0.0,0.0,0.0,0.0,0.0,0.0,0.0,0.0,0.0,0.0,0.0,0.0,0.0,0.0,0.0,0.0,0.0,0.0,0.0,0.0,0.0,0.0,0.0,0.0,0.0,0.0,0.0,0.0,0.0,0.0,0.0,0.0,0.0,0.0,0.0,0.0,0.0,0.0,-1.9361,-1.9408,-2.0546,-2.2677,-1.9816,-1.9137,0.0,0.0,0.0,0.0,0.0,0.0,0.0,0.0,0.0,0.0,0.0,0.0,0.0,0.0,0.0,0.0,0.0,0.0,0.0,0.0,0.0,0.0,0.0,0.0,0.0,0.0,0.0,0.0,0.0,0.0,0.0,0.0,0.0,0.0,0.0,0.0,0.0,0.0,0.0,0.0,0.0,0.0,0.0,0.0,0.0,0.0,0.0,0.0,0.0,0.0,0.0,0.0,0.0,0.0,0.0,0.0,0.0,0.0,0.0,0.0,0.0,0.0,0.0,0.0,0.0,0.0,0.0,0.0,0.0,0.0,0.0,0.0,0.0,0.0,0.0,0.0,0.0,0.0,0.0,0.0,0.0,0.0,0.0,0.0,0.0,0.0,0.0,0.0,0.0,0.0,0.0,0.0,0.0,0.0,0.0,0.0,0.0,0.0,0.0,0.0,0.0,0.0,0.0,0.0,0.0,0.0,0.0,0.0,0.0,-2.0342,-1.9799,-2.0631,-2.3062,-2.0696,-2.0178,-2.1735,0.0,0.0,0.0,0.0,0.0,0.0,0.0,0.0,0.0,0.0,0.0,0.0,0.0,0.0,0.0,0.0,0.0,0.0,0.0,0.0,0.0,0.0,0.0,0.0,0.0,0.0,0.0,0.0,0.0,0.0,0.0,0.0,0.0,0.0,0.0,0.0,0.0,0.0,0.0,0.0,0.0,0.0,0.0,0.0,0.0,0.0,0.0,0.0,0.0,0.0,0.0,0.0,0.0,0.0,0.0,0.0,0.0,0.0,0.0,0.0,0.0,0.0,0.0,0.0,0.0,0.0,0.0,0.0,0.0,0.0,0.0,0.0,0.0,0.0,0.0,0.0,0.0,0.0,0.0,0.0,0.0,0.0,0.0,0.0,0.0,0.0,0.0,0.0,0.0,0.0,0.0,0.0,0.0,0.0,0.0,0.0,0.0,0.0,0.0,0.0,0.0,0.0,0.0,0.0,0.0,0.0,0.0,0.0,-2.2784,-2.13,-2.1023,-2.1998,-2.0919,-2.0364,0.0,0.0,0.0,0.0,0.0,0.0,0.0,0.0,0.0,0.0,0.0,0.0,0.0,0.0,0.0,0.0,0.0,0.0,0.0,0.0,0.0,0.0,0.0,0.0,0.0,0.0,0.0,0.0,0.0,0.0,0.0,0.0,0.0,0.0,0.0,0.0,0.0,0.0,0.0,0.0,0.0,0.0,0.0,0.0,0.0,0.0,0.0,0.0,0.0,0.0,0.0,0.0,0.0,0.0,0.0,0.0,0.0,0.0,0.0,0.0,0.0,0.0,0.0,0.0,0.0,0.0,0.0,0.0,0.0,0.0,0.0,0.0,0.0,0.0,0.0,0.0,0.0,0.0,0.0,0.0,0.0,0.0,0.0,0.0,0.0,0.0,0.0,0.0,0.0,0.0,0.0,0.0,0.0,0.0,0.0,0.0,0.0,0.0,0.0,0.0,0.0,0.0,0.0,0.0,0.0,0.0,0.0,0.0,0.0,-2.2718,-2.3007,-2.438,-2.6905,-2.3851,-2.269,0.0,0.0,0.0,0.0,0.0,0.0,0.0,0.0,0.0,0.0,0.0,0.0,0.0,0.0,0.0,0.0,0.0,0.0,0.0,0.0,0.0,0.0,0.0,0.0,0.0,0.0,0.0,0.0,0.0,0.0,0.0,0.0,0.0,0.0,0.0,0.0,0.0,0.0,0.0,0.0,0.0,0.0,0.0,0.0,0.0,0.0,0.0,0.0,0.0,0.0,0.0,0.0,0.0,0.0,0.0,0.0,0.0,0.0,0.0,0.0,0.0,0.0,0.0,0.0,0.0,0.0,0.0,0.0,0.0,0.0,0.0,0.0,0.0,0.0,0.0,0.0,0.0,0.0,0.0,0.0,0.0,0.0,0.0,0.0,0.0,0.0,0.0,0.0,0.0,0.0,0.0,0.0,0.0,0.0,0.0,0.0,0.0,0.0,0.0,0.0,0.0,0.0,0.0,0.0,0.0,0.0,0.0,0.0,-2.1999,-2.3337,-2.4927,-2.6813,-2.9037,-2.6408,-2.4534,0.0,0.0,0.0,0.0,0.0,0.0,0.0,0.0,0.0,0.0,0.0,0.0,0.0,0.0,0.0,0.0,0.0,0.0,0.0,0.0,0.0,0.0,0.0,0.0,0.0,0.0,0.0,0.0,0.0,0.0,0.0,0.0,0.0,0.0,0.0,0.0,0.0,0.0,0.0,0.0,0.0,0.0,0.0,0.0,0.0,0.0,0.0,0.0,0.0,0.0,0.0,0.0,0.0,0.0,0.0,0.0,0.0,0.0,0.0,0.0,0.0,0.0,0.0,0.0,0.0,0.0,0.0,0.0,0.0,0.0,0.0,0.0,0.0,0.0,0.0,0.0,0.0,0.0,0.0,0.0,0.0,0.0,0.0,0.0,0.0,0.0,0.0,0.0,0.0,0.0,0.0,0.0,0.0,0.0,0.0,0.0,0.0,0.0,0.0,0.0,0.0,0.0,0.0,0.0,0.0,0.0,0.0,0.0,-2.3141,-2.4107,-2.6561,-2.8217,-2.8941,-2.8206,-2.589,0.0,0.0,0.0,0.0,0.0,0.0,0.0,0.0,0.0,0.0,0.0,0.0,0.0,0.0,0.0,0.0,0.0,0.0,0.0,0.0,0.0,0.0,0.0,0.0,0.0,0.0,0.0,0.0,0.0,0.0,0.0,0.0,0.0,0.0,0.0,0.0,0.0,0.0,0.0,0.0,0.0,0.0,0.0,0.0,0.0,0.0,0.0,0.0,0.0,0.0,0.0,0.0,0.0,0.0,0.0,0.0,0.0,0.0,0.0,0.0,0.0,0.0,0.0,0.0,0.0,0.0,0.0,0.0,0.0,0.0,0.0,0.0,0.0,0.0,0.0,0.0,0.0,0.0,0.0,0.0,0.0,0.0,0.0,0.0,0.0,0.0,0.0,0.0,0.0,0.0,0.0,0.0,0.0,0.0,0.0,0.0,0.0,0.0,0.0,0.0,0.0,0.0,0.0,0.0,0.0,0.0,0.0,0.0,-2.2564,-2.4158,-2.6023,-2.7396,-2.8284,-2.7435,-2.5891,0.0,0.0,0.0,0.0,0.0,0.0,0.0,0.0,0.0,0.0,0.0,0.0,0.0,0.0,0.0,0.0,0.0,0.0,0.0,0.0,0.0,0.0,0.0,0.0,0.0,0.0,0.0,0.0,0.0,0.0,0.0,0.0,0.0,0.0,0.0,0.0,0.0,0.0,0.0,0.0,0.0,0.0,0.0,0.0,0.0,0.0,0.0,0.0,-1.6366,0.0,0.0,0.0,0.0,0.0,0.0,0.0,0.0,0.0,0.0,0.0,0.0,0.0,0.0,0.0,0.0,0.0,0.0,0.0,0.0,0.0,0.0,0.0,0.0,0.0,0.0,0.0,0.0,0.0,0.0,0.0,0.0,0.0,0.0,0.0,0.0,0.0,0.0,0.0,0.0,0.0,0.0,0.0,0.0,0.0,0.0,0.0,0.0,0.0,0.0,0.0,0.0,0.0,0.0,0.0,0.0,0.0,0.0,0.0,-2.3034,-2.4716,-2.6101,-2.7215,-2.8003,-2.7248,-2.5995,0.0,0.0,0.0,0.0,0.0,0.0,0.0,0.0,0.0,0.0,0.0,0.0,0.0,0.0,0.0,0.0,0.0,0.0,0.0,0.0,0.0,0.0,0.0,0.0,0.0,0.0,0.0,0.0,0.0,0.0,0.0,0.0,0.0,0.0,0.0,0.0,0.0,0.0,0.0,0.0,0.0,0.0,0.0,0.0,0.0,0.0,0.0,0.0,0.0,0.0,0.0,0.0,0.0,0.0,0.0,0.0,0.0,0.0,0.0,0.0,0.0,0.0,0.0,0.0,0.0,0.0,0.0,0.0,0.0,0.0,0.0,0.0,0.0,0.0,0.0,0.0,0.0,0.0,0.0,0.0,0.0,0.0,0.0,0.0,0.0,0.0,0.0,0.0,0.0,0.0,0.0,0.0,0.0,0.0,0.0,0.0,0.0,0.0,0.0,0.0,0.0,0.0,0.0,0.0,0.0,0.0,0.0,-2.2318,-2.3587,-2.5181,-2.6198,-2.7101,-2.7888,-2.7149,-2.5948,-2.4403,0.0,0.0,0.0,0.0,0.0,0.0,0.0,0.0,0.0,0.0,0.0,0.0,0.0,0.0,0.0,0.0,0.0,0.0,0.0,0.0,0.0,0.0,0.0,0.0,0.0,0.0,0.0,0.0,0.0,0.0,0.0,0.0,0.0,0.0,0.0,0.0,0.0,0.0,-1.5781,-1.6445,0.0,0.0,0.0,0.0,0.0,0.0,0.0,0.0,-1.724,0.0,0.0,0.0,0.0,0.0,0.0,0.0,0.0,0.0,0.0,0.0,0.0,0.0,0.0,0.0,0.0,0.0,0.0,0.0,0.0,0.0,0.0,0.0,0.0,0.0,0.0,0.0,0.0,0.0,0.0,0.0,0.0,0.0,0.0,0.0,0.0,0.0,0.0,0.0,0.0,0.0,0.0,0.0,0.0,0.0,0.0,0.0,0.0,0.0,0.0,0.0,0.0,0.0,0.0,0.0,0.0,-2.0605,-2.1471,-2.2745,-2.4458,-2.5343,-2.6243,-2.711,-2.6348,-2.5416,-2.4419,0.0,0.0,0.0,0.0,0.0,0.0,0.0,0.0,0.0,0.0,0.0,0.0,0.0,0.0,0.0,0.0,0.0,0.0,0.0,0.0,0.0,0.0,0.0,0.0,0.0,0.0,0.0,0.0,0.0,0.0,0.0,0.0,0.0,0.0,0.0,0.0,0.0,0.0,0.0,-1.7695,-1.7793,0.0,0.0,0.0,0.0,0.0,0.0,0.0,0.0,-1.7245,0.0,0.0,0.0,0.0,0.0,0.0,0.0,0.0,0.0,0.0,0.0,0.0,0.0,0.0,0.0,0.0,0.0,0.0,0.0,0.0,0.0,0.0,0.0,0.0,0.0,0.0,0.0,0.0,0.0,0.0,0.0,0.0,0.0,0.0,0.0,0.0,0.0,0.0,0.0,0.0,0.0,0.0,0.0,0.0,0.0,0.0,0.0,0.0,0.0,0.0,0.0,0.0,0.0,0.0,0.0,-2.1116,-2.2013,-2.3076,-2.4277,-2.5174,-2.5873,-2.6285,-2.5473,-2.4629,0.0,0.0,0.0,0.0,0.0,0.0,0.0,0.0,0.0,0.0,0.0,0.0,0.0,0.0,0.0,0.0,0.0,0.0,0.0,0.0,0.0,0.0,0.0,0.0,0.0,0.0,0.0,0.0,0.0,0.0,0.0,0.0,0.0,0.0,0.0,0.0,0.0,0.0,0.0,0.0,-1.825,-1.8274,-1.9177,0.0,0.0,0.0,0.0,0.0,0.0,-1.7236,-1.75,0.0,0.0,0.0,0.0,0.0,0.0,0.0,0.0,0.0,0.0,0.0,0.0,0.0,0.0,0.0,0.0,0.0,0.0,0.0,0.0,0.0,0.0,0.0,0.0,0.0,0.0,0.0,0.0,0.0,0.0,0.0,0.0,0.0,0.0,0.0,0.0,0.0,0.0,0.0,0.0,0.0,0.0,0.0,0.0,0.0,0.0,0.0,0.0,0.0,0.0,0.0,0.0,0.0,0.0,0.0,-2.1836,-2.2891,-2.373,-2.4336,-2.5215,-2.5703,-2.5684,-2.5019,-2.418,0.0,0.0,0.0,0.0,0.0,0.0,0.0,0.0,0.0,0.0,0.0,0.0,0.0,0.0,0.0,0.0,0.0,0.0,0.0,0.0,0.0,0.0,0.0,0.0,0.0,0.0,0.0,0.0,0.0,0.0,0.0,0.0,0.0,0.0,0.0,0.0,0.0,0.0,0.0,0.0,0.0,-1.8937,-2.027,-1.9002,0.0,0.0,0.0,0.0,-1.7599,-1.8222,0.0,0.0,0.0,0.0,0.0,0.0,0.0,0.0,0.0,0.0,0.0,0.0,0.0,0.0,0.0,0.0,0.0,0.0,0.0,0.0,0.0,0.0,0.0,0.0,0.0,0.0,0.0,0.0,0.0,0.0,0.0,0.0,0.0,0.0,0.0,0.0,0.0,0.0,0.0,0.0,0.0,0.0,0.0,0.0,0.0,0.0,0.0,0.0,0.0,0.0,0.0,0.0,0.0,0.0,0.0,0.0,-2.1934,-2.3457,-2.4297,-2.4414,-2.5234,-2.5703,-2.5703,-2.5605,-2.4785,0.0,0.0,0.0,0.0,0.0,0.0,0.0,0.0,0.0,0.0,0.0,0.0,0.0,0.0,0.0,0.0,0.0,0.0,0.0,0.0,0.0,0.0,0.0,0.0,0.0,0.0,0.0,0.0,0.0,0.0,0.0,0.0,0.0,0.0,0.0,0.0,0.0,0.0,0.0,0.0,0.0,-2.0271,-2.047,-1.9011,-1.8442,0.0,0.0,-1.9431,-2.0871,-2.1204,0.0,0.0,0.0,0.0,0.0,0.0,0.0,0.0,0.0,0.0,0.0,0.0,0.0,0.0,0.0,0.0,0.0,0.0,0.0,0.0,0.0,0.0,0.0,0.0,0.0,0.0,0.0,0.0,0.0,0.0,0.0,0.0,0.0,0.0,0.0,0.0,0.0,0.0,0.0,0.0,0.0,0.0,0.0,0.0,0.0,0.0,0.0,0.0,0.0,0.0,0.0,0.0,0.0,0.0,0.0,-2.1914,-2.1953,-2.3535,-2.4414,-2.4434,-2.5254,-2.5703,-2.5703,-2.5215,-2.4394,0.0,0.0,0.0,0.0,0.0,0.0,0.0,0.0,0.0,0.0,0.0,0.0,0.0,0.0,0.0,0.0,0.0,0.0,0.0,0.0,0.0,0.0,0.0,0.0,0.0,0.0,0.0,0.0,0.0,0.0,0.0,0.0,0.0,0.0,0.0,0.0,0.0,0.0,0.0,0.0,0.0,0.0,-2.2382,-2.111,0.0,0.0,0.0,-2.0694,-2.0874,0.0,0.0,0.0,0.0,0.0,0.0,0.0,0.0,0.0,0.0,0.0,0.0,0.0,0.0,0.0,0.0,0.0,0.0,0.0,0.0,0.0,0.0,0.0,0.0,0.0,0.0,0.0,0.0,0.0,0.0,0.0,0.0,0.0,0.0,0.0,0.0,0.0,0.0,0.0,0.0,0.0,0.0,0.0,0.0,0.0,0.0,0.0,0.0,0.0,0.0,0.0,0.0,0.0,0.0,0.0,0.0,0.0,-2.2266,-2.3867,-2.4727,-2.4727,-2.5352,-2.5703,-2.5684,-2.5078,0.0,0.0,0.0,0.0,0.0,0.0,0.0,0.0,0.0,0.0,0.0,0.0,0.0,0.0,0.0,0.0,0.0,0.0,0.0,0.0,0.0,0.0,0.0,0.0,0.0,0.0,0.0,-1.8059,0.0,0.0,0.0,0.0,0.0,0.0,0.0,0.0,0.0,0.0,0.0,0.0,0.0,0.0,-2.1809,-2.3895,-2.2689,-2.2064,0.0,0.0,-2.1894,-2.1641,-2.2661,-2.3256,0.0,0.0,0.0,0.0,0.0,0.0,0.0,0.0,0.0,0.0,0.0,0.0,0.0,0.0,0.0,0.0,0.0,0.0,0.0,0.0,0.0,0.0,0.0,0.0,0.0,0.0,0.0,0.0,0.0,0.0,0.0,0.0,0.0,0.0,0.0,0.0,0.0,0.0,0.0,0.0,0.0,0.0,0.0,0.0,0.0,0.0,0.0,0.0,0.0,0.0,0.0,0.0,0.0,0.0,-2.3105,-2.3164,-2.4766,-2.5605,-2.5605,-2.5664,-2.5703,-2.5703,-2.5644,-2.4805,0.0,0.0,0.0,0.0,0.0,0.0,0.0,0.0,0.0,0.0,0.0,0.0,0.0,0.0,0.0,0.0,0.0,0.0,0.0,0.0,0.0,0.0,0.0,0.0,0.0,0.0,0.0,0.0,0.0,0.0,0.0,0.0,0.0,0.0,0.0,0.0,0.0,0.0,0.0,0.0,0.0,-2.3139,-2.3985,-2.2681,-2.2489,0.0,-2.39,-2.3362,-2.488,-2.5111,-2.513,-2.512,0.0,0.0,0.0,0.0,0.0,0.0,0.0,0.0,0.0,0.0,0.0,0.0,0.0,0.0,0.0,0.0,0.0,0.0,0.0,0.0,0.0,0.0,0.0,0.0,0.0,0.0,0.0,0.0,0.0,0.0,0.0,0.0,0.0,0.0,0.0,0.0,0.0,0.0,0.0,0.0,0.0,0.0,0.0,0.0,0.0,0.0,0.0,0.0,0.0,0.0,0.0,0.0,0.0,-2.3125,-2.3164,-2.4824,-2.5703,-2.5703,-2.5703,-2.5703,-2.5703,-2.5703,-2.5137,0.0,0.0,0.0,0.0,0.0,0.0,0.0,0.0,0.0,0.0,0.0,0.0,0.0,0.0,0.0,0.0,0.0,0.0,0.0,0.0,0.0,0.0,0.0,0.0,0.0,0.0,0.0,0.0,-2.026,-1.963,-1.91,0.0,0.0,0.0,0.0,0.0,0.0,0.0,0.0,0.0,0.0,-2.397,-2.4784,-2.4322,0.0,0.0,-2.4793,-2.461,-2.5264,-2.537,-2.537,-2.539,-2.5437,0.0,0.0,0.0,0.0,0.0,0.0,0.0,0.0,0.0,0.0,0.0,0.0,0.0,0.0,0.0,0.0,0.0,0.0,0.0,0.0,0.0,0.0,0.0,0.0,0.0,0.0,0.0,0.0,0.0,0.0,0.0,0.0,0.0,0.0,0.0,0.0,0.0,0.0,0.0,0.0,0.0,0.0,0.0,0.0,0.0,0.0,0.0,0.0,0.0,0.0,0.0,0.0,-2.3125,-2.3144,-2.4824,-2.5703,-2.5703,-2.5703,-2.5703,-2.5703,-2.5703,-2.5293,0.0,0.0,0.0,0.0,0.0,0.0,0.0,0.0,0.0,0.0,0.0,0.0,0.0,0.0,0.0,0.0,0.0,0.0,0.0,0.0,0.0,0.0,0.0,0.0,0.0,0.0,0.0,0.0,-2.1004,-2.0062,-1.9453,0.0,0.0,0.0,0.0,0.0,0.0,0.0,0.0,0.0,0.0,-2.4697,-2.5264,-2.5332,-2.5313,-2.5332,-2.5313,-2.5313,-2.5351,-2.537,-2.539,-2.5447,0.0,0.0,0.0,0.0,0.0,0.0,0.0,0.0,0.0,0.0,0.0,0.0,0.0,0.0,0.0,0.0,0.0,0.0,0.0,0.0,0.0,0.0,0.0,0.0,0.0,0.0,0.0,-2.0312,0.0,0.0,-2.035,0.0,0.0,0.0,0.0,0.0,0.0,0.0,0.0,0.0,0.0,0.0,0.0,0.0,0.0,0.0,0.0,0.0,0.0,0.0,0.0,0.0,0.0,-2.3203,-2.3223,-2.4844,-2.5703,-2.5703,-2.5703,-2.5703,-2.5703,-2.5703,-2.5293,-2.4414,0.0,0.0,0.0,0.0,0.0,0.0,0.0,0.0,0.0,0.0,0.0,0.0,0.0,0.0,0.0,0.0,0.0,0.0,0.0,0.0,0.0,0.0,0.0,0.0,0.0,0.0,-2.0515,-2.035,-2.0323,0.0,0.0,0.0,0.0,0.0,0.0,0.0,0.0,0.0,-2.5265,-2.537,-2.5351,-2.5313,-2.5313,-2.5332,-2.539,-2.5332,-2.5351,-2.5466,-2.537,-2.537,0.0,0.0,0.0,0.0,0.0,0.0,0.0,0.0,0.0,0.0,0.0,0.0,0.0,0.0,0.0,0.0,0.0,0.0,0.0,0.0,0.0,0.0,0.0,0.0,0.0,0.0,0.0,-2.2754,-2.2043,0.0,0.0,0.0,0.0,0.0,0.0,0.0,0.0,0.0,0.0,0.0,-2.8376,-2.9794,0.0,0.0,0.0,0.0,0.0,0.0,0.0,0.0,0.0,0.0,0.0,0.0,-2.3125,-2.3223,-2.4824,-2.5703,-2.5703,-2.5703,-2.5703,-2.5703,-2.5703,-2.5293,-2.4414,0.0,0.0,0.0,0.0,0.0,0.0,0.0,0.0,0.0,0.0,0.0,0.0,0.0,0.0,0.0,0.0,0.0,0.0,0.0,0.0,0.0,0.0,0.0,0.0,0.0,-2.267,0.0,0.0,0.0,0.0,0.0,0.0,0.0,0.0,0.0,0.0,0.0,-2.5043,-2.5293,-2.5332,-2.5332,-2.5313,-2.5313,-2.5313,0.0,0.0,0.0,0.0,0.0,0.0,0.0,0.0,0.0,0.0,0.0,0.0,0.0,0.0,-2.5693,-2.5321,-2.5219,-2.5098,-2.4902,0.0,0.0,0.0,0.0,0.0,0.0,0.0,0.0,0.0,0.0,0.0,0.0,0.0,0.0,-2.5004,-2.4983,-2.4658,0.0,0.0,0.0,0.0,0.0,0.0,0.0,0.0,-2.889,-3.0448,-3.0467,-3.1641,-3.2045,-3.1761,-3.1872,-3.0726,0.0,0.0,0.0,0.0,0.0,0.0,0.0,0.0,-2.3867,-2.3633,-2.4961,-2.5703,-2.5703,-2.5703,-2.5703,-2.5703,-2.5703,-2.5449,-2.4863,-2.457,-2.4136,0.0,0.0,0.0,0.0,0.0,0.0,0.0,0.0,0.0,0.0,0.0,0.0,0.0,0.0,0.0,0.0,0.0,0.0,0.0,0.0,0.0,0.0,0.0,-2.3313,0.0,0.0,0.0,0.0,0.0,0.0,0.0,0.0,0.0,-2.5226,-2.5313,-2.5313,-2.5313,-2.5313,-2.5313,-2.5313,0.0,0.0,0.0,0.0,0.0,0.0,0.0,-2.5453,-2.5484,-2.5814,-2.6366,-2.7269,-2.7348,-2.7389,-2.7721,0.0,0.0,-2.6181,-2.6042,-2.5915,-2.567,-2.5613,-2.5633,-2.5633,-2.5652,-2.5613,0.0,0.0,0.0,0.0,0.0,0.0,0.0,0.0,-2.7045,-2.7865,0.0,-2.6689,0.0,0.0,0.0,0.0,-2.4351,-2.5214,0.0,0.0,-2.9852,-3.1429,-3.291,-3.3064,-3.3519,-3.4315,-3.4422,-3.4039,-3.3047,-3.0019,0.0,0.0,0.0,0.0,0.0,0.0,-2.5254,-2.4434,-2.5234,-2.5703,-2.5703,-2.5703,-2.5703,-2.5703,-2.5703,-2.5684,-2.5664,-2.4902,-2.4388,-2.4265,-2.2791,0.0,0.0,0.0,0.0,0.0,0.0,0.0,0.0,0.0,0.0,0.0,0.0,0.0,0.0,0.0,0.0,0.0,0.0,0.0,0.0,-2.339,0.0,0.0,0.0,0.0,0.0,0.0,0.0,0.0,0.0,0.0,-2.538,-2.5322,-2.5303,-2.5341,0.0,0.0,0.0,0.0,-2.5313,-2.5313,-2.5322,-2.538,-2.5447,-2.539,-2.5415,-2.5535,0.0,0.0,-2.8093,-2.8199,-2.7896,-2.7006,-2.6765,-2.6717,-2.6843,-2.6693,-2.6346,-2.5668,-2.5522,-2.5522,-2.5522,-2.5522,-2.5503,-3.3699,0.0,0.0,0.0,0.0,-3.0598,-3.1245,-3.2083,-3.2704,-3.2536,-3.1765,-3.1053,0.0,0.0,0.0,0.0,0.0,0.0,-3.0126,-3.0725,-3.2987,-3.4301,-3.4795,-3.5988,-3.6065,-3.5161,-3.5264,-3.4581,-3.3242,-3.2305,-3.0859,-2.8867,0.0,0.0,0.0,0.0,-2.5273,-2.4512,-2.5254,-2.5703,-2.5703,-2.5703,-2.5703,-2.5703,-2.5703,-2.5703,-2.5703,-2.5405,-2.4954,-2.4341,-2.4389,0.0,0.0,0.0,0.0,0.0,0.0,0.0,0.0,0.0,0.0,0.0,0.0,0.0,0.0,0.0,0.0,0.0,0.0,0.0,-2.487,-2.4726,-2.4678,0.0,0.0,0.0,0.0,0.0,0.0,0.0,0.0,0.0,-2.6217,-2.5678,-2.5543,0.0,0.0,-2.5534,-2.614,-2.5697,-2.5313,-2.5313,-2.5832,0.0,-2.6255,-2.6284,-2.6323,-2.6356,-2.7103,-2.8009,-2.8849,-2.8473,-2.7986,-2.7738,-2.6621,-2.5918,-2.6563,-2.6208,-2.5753,-2.5528,-2.5517,-2.5509,-2.5517,-2.5517,-2.5517,-3.9042,-3.6131,-3.4404,-3.3705,-3.3763,-3.4225,-3.4944,-3.5787,-3.633,-3.6474,-3.6363,-3.5374,-3.4246,-3.3051,-3.1367,0.0,0.0,0.0,-3.3067,-3.3761,-3.5268,-3.6334,-3.7026,-3.7738,-3.7546,-3.6555,-3.6334,-3.5549,-3.4266,-3.3994,-3.3105,-3.1621,0.0,-2.8711,-2.6543,-2.6973,-2.6816,-2.5996,-2.6465,-2.6562,-2.6211,-2.5879,-2.5703,-2.5703,-2.5676,-2.566,-2.566,-2.5596,-2.5462,-2.5254,-2.5369,-2.5349,0.0,0.0,0.0,0.0,0.0,0.0,0.0,0.0,0.0,0.0,0.0,-2.3788,-2.3803,0.0,0.0,0.0,-2.4274,-2.4918,-2.5735,-2.5822,0.0,0.0,0.0,0.0,0.0,0.0,0.0,-2.7371,-2.7217,-2.6967,-2.664,-2.6447,-2.6274,-2.612,-2.5928,-2.6005,-2.6524,0.0,-2.6217,-2.586,-2.6255,-2.6486,-2.614,-2.6111,-2.6256,-2.666,-2.7149,-2.7842,-2.8605,-2.8318,-2.7892,-2.7477,-2.6601,-2.6033,-2.6582,-2.5995,-2.5658,-2.6294,-2.6159,-2.5928,-2.5928,-2.5678,-2.5409,-4.3404,-4.3057,-3.9076,-3.7414,-3.733,-3.7389,-3.7876,-3.8585,-3.8621,-3.9849,-4.1682,-3.9354,-3.867,-3.9052,-3.5198,0.0,-3.4529,-3.4731,-3.5656,-3.7053,-3.7094,-3.7969,-3.9465,-3.8772,-3.8339,-3.8178,-3.7584,-3.6851,-3.5963,-3.5186,-3.4766,-3.4648,-3.3164,-3.1523,-2.9902,-2.9668,-2.9199,-2.8418,-2.832,-2.7891,-2.7109,-2.6308,-2.5898,-2.5897,-2.5784,-2.5707,-2.5717,-2.555,-2.5829,-2.6524,-2.5937,-2.5947,-2.6621,0.0,0.0,0.0,0.0,0.0,0.0,0.0,0.0,0.0,0.0,0.0,0.0,0.0,0.0,0.0,-2.5447,0.0,-2.6532,-2.6608,0.0,0.0,0.0,-2.8005,-2.8082,-2.8096,-2.7777,-2.6976,0.0,0.0,-2.6813,-2.7274,-2.7101,-2.5514,-2.6101,-2.6717,-2.6697,-2.7294,-2.7467,-2.6524,-2.6544,-2.6313,-2.5707,-2.5553,-2.5823,-2.6545,-2.6697,-2.7054,-2.7825,-2.7883,-2.7516,-2.6813,-2.6591,-2.661,-2.6679,-2.6073,-2.5995,-2.7554,-2.7082,-2.6447,-2.637,-2.5803,-2.5332,-4.5177,-4.511,-4.4071,-4.2936,-4.1888,-4.2443,-4.2785,-4.2989,-4.2881,-4.2823,-4.2703,-4.1453,-4.0335,-3.9321,-3.8304,-3.766,-3.741,-3.9335,-4.0085,-3.995,-4.0558,-4.1054,-4.1382,-4.0577,-3.9854,-3.9208,-3.8439,-3.7633,-3.6879,-3.6012,-3.5312,-3.4707,-3.4297,-3.3262,-3.1601,-3.0273,-2.9512,-2.9297,-2.8652,-2.8171,-2.7909,-2.7716,-2.759,-2.7522,-2.6862,-2.6516,-2.6497,-2.5802,-2.5504,-2.5736,-2.6717,-2.739,-2.7563,-2.6774,0.0,0.0,0.0,0.0,0.0,0.0,0.0,0.0,0.0,-2.6996,-2.6351,0.0,-2.6776,0.0,-2.668,-2.6381,-2.6589,-2.6606,0.0,0.0,-2.8275,-2.8429,-2.964,-2.9225,-2.9014,-2.9456,-2.8563,-2.7832,-2.7621,-2.6621,-2.5774,-2.538,-2.6621,-2.7582,-2.7582,-2.7159,-2.6582,-2.589,-2.6236,-2.6524,-2.6313,-2.6294,-2.6332,-2.6611,-2.6621,-2.6928,-2.7766,-2.7351,-2.6851,-2.6601,-2.6082,-2.6024,-2.6582,-2.6536,-2.6815,-2.7624,-2.6727,-2.5591,-2.561,-2.5437,-2.5313,-4.581,-4.5802,-4.5847,-4.5105,-4.4028,-4.4718,-4.4993,-4.4987,-4.4913,-4.4626,-4.4166,-4.3357,-4.2508,-4.1659,-4.1335,-4.0958,-4.0701,-4.2041,-4.2438,-4.2041,-4.2477,-4.2671,-4.264,-4.1842,-4.1024,-4.0215,-3.94,-3.8603,-3.7812,-3.6934,-3.6289,-3.5859,-3.5098,-3.4434,-3.3828,-3.1797,-3.0742,-3.0762,-2.9512,-2.8852,-2.8764,-2.8388,-2.8171,-2.8092,-2.7595,-2.7149,-2.6765,-2.6236,-2.613,-2.6486,-2.7035,-2.7843,-2.8909,-2.8198,-2.8506,0.0,0.0,0.0,0.0,0.0,0.0,0.0,0.0,0.0,0.0,0.0,-2.7225,-2.7322,-2.6987,-2.7036,-2.7659,-2.7704,-2.8249,-2.9563,-2.9275,-2.939,-3.0314,-2.9967,-2.9717,-2.9813,-2.9333,-2.8736,-2.8005,-2.7371,-2.7005,-2.6986,-2.7813,-2.814,-2.7525,-2.7486,-2.7294,-2.614,-2.6621,-2.7024,-2.6678,-2.6274,-2.6024,-2.6024,-2.6014,-2.6197,-2.6659,-2.6351,-2.6014,-2.5986,-2.5697,-2.5726,-2.6536,-2.6443,-2.6533,-2.7074,-2.639,-2.561,-2.5793,-2.5572,-2.5313,-4.5866,-4.5958,-4.5896,-4.5543,-4.5018,-4.5425,-4.5493,-4.5315,-4.5278,-4.5336,-4.5393,-4.4857,-4.4643,-4.4652,-4.4002,-4.3675,-4.3613,-4.373,-4.3711,-4.3594,-4.3597,-4.3617,-4.3571,-4.2707,-4.1911,-4.1171,-4.0305,-3.9512,-3.875,-3.7891,-3.748,-3.7383,-3.584,-3.541,-3.6016,-3.373,-3.2461,-3.2344,-3.0859,-3.0072,-2.9955,-2.9137,-2.8629,-2.8552,-2.8303,-2.7796,-2.7052,-2.686,-2.711,-2.7813,-2.7276,-2.793,-3.0063,-2.9506,-2.9486,0.0,-3.0302,0.0,0.0,0.0,0.0,0.0,0.0,0.0,0.0,-2.8549,-2.7812,-2.6868,-2.7157,-2.7883,-2.9,-2.9129,-2.9452,-3.0283,-3.0398,-3.0398,-3.0398,-3.0398,-3.0121,-2.9352,-2.9833,-2.964,-2.8332,-2.8525,-2.8756,-2.8525,-2.864,-2.8255,-2.7101,-2.7871,-2.8159,-2.6697,-2.7178,-2.7236,-2.6524,-2.588,-2.5514,-2.539,-2.536,-2.5313,-2.539,-2.537,-2.5332,-2.5351,-2.5447,-2.5753,-2.652,-2.6072,-2.5906,-2.6563,-2.6053,-2.5697,-2.612,-2.5813,-2.5351,-4.6177,-4.6706,-4.61,-4.6103,-4.6523,-4.588,-4.4858,-4.3657,-4.3602,-4.3932,-4.4586,-4.5143,-4.5471,-4.5608,-4.5482,-4.5157,-4.4746,-4.543,-4.5371,-4.4687,-4.4704,-4.4702,-4.4604,-4.311,-4.2301,-4.2051,-4.0603,-3.9824,-3.9648,-3.8769,-3.834,-3.832,-3.7305,-3.6894,-3.6953,0.0,0.0,0.0,-3.2851,-3.2617,-3.247,-3.166,-3.1153,-3.0994,-2.9629,0.0,-2.8621,-2.8005,-2.7736,-2.789,-2.8362,0.0,0.0,0.0,0.0,0.0,0.0,0.0,0.0,0.0,0.0,0.0,-2.9367,-2.8941,-2.9106,-2.9605,-2.93,-2.7845,-2.892,-2.9571,-2.9137,-2.9125,-2.9452,-3.0283,-3.0398,-3.0398,-3.0398,-3.0398,-3.0302,-3.0179,-2.9679,-2.9236,-2.889,-2.7871,-2.714,-2.7313,-2.7698,-2.7678,-2.6813,-2.7544,-2.7467,-2.5986,-2.639,-2.6524,-2.5687,-2.6024,-2.6024,-2.5514,-2.5313,-2.5313,-2.5313,-2.5313,-2.5332,-2.537,-2.5447,-2.5563,-2.582,-2.5732,-2.5723,-2.584,-2.5706,-2.5601,-2.5697,-2.5582,-2.5466,-4.593,-4.6257,-4.5876,-4.5683,0.0,-4.5163,-4.4275,-4.3198,-4.3989,-4.4586,-4.5066,-4.5622,-4.5893,-4.5977,-4.5631,-4.5294,-4.5019,-4.5,-4.5,-4.5019,-4.5019,-4.5215,-4.5586,-4.4297,-4.3691,-4.3633,-4.2402,-4.1758,-4.1719,-4.0488,-3.9883,-3.9863,-3.8574,-3.7734,-3.7266,-3.5996,-3.4707,-3.3398,-3.3356,-3.3103,-3.2558,-3.2106,-3.1602,-3.1064,-3.0198,0.0,0.0,0.0,0.0,0.0,0.0,0.0,0.0,-2.9333,0.0,-3.0948,-3.0609,-3.0374,-3.0375,-3.0393,-3.0398,-3.0379,-2.9982,-2.9548,-2.9133,-2.989,-2.9886,-2.8651,-2.966,-3.0225,-2.9809,-2.9752,-2.9925,-3.034,-3.0398,-3.0398,-3.0398,-3.0398,-3.0398,-3.0359,-3.0006,-2.9602,-2.914,-2.8044,-2.7486,-2.7755,-2.7832,-2.789,-2.7852,-2.7852,-2.7371,-2.6178,-2.6255,-2.6447,-2.6101,-2.6274,-2.6313,-2.5543,-2.5313,-2.5313,-2.5313,-2.5313,-2.5313,-2.538,-2.5443,-2.5538,-2.559,-2.5658,-2.5703,-2.5644,-2.5654,-2.5632,-2.5589,-2.5541,-2.5522,-4.5911,-4.6007,-4.5723,-4.5282,-4.4761,-4.4624,-4.4201,-4.3662,-4.4893,0.0,0.0,-4.5931,-4.6075,-4.6059,-4.546,-4.5206,-4.5176,-4.4473,-4.4551,-4.5215,-4.5234,-4.5625,-4.625,-4.541,-4.5019,-4.4961,-4.4121,-4.3613,-4.3437,-4.207,-4.1328,-4.1074,-3.9609,-3.8398,-3.7539,-3.6653,-3.5519,-3.414,-3.3867,-3.3284,-3.2341,-3.2132,-3.1609,-3.0648,-3.0467,-3.0071,-2.9375,-2.9337,-2.9329,-2.9313,-2.871,-2.8948,-3.0263,-2.9717,-2.9967,-3.1333,-3.146,-3.146,-3.1482,-3.1468,-3.1153,-3.0448,-3.0398,-3.009,-2.9375,-2.9982,-3.011,-2.9394,-2.9982,-3.0398,-3.0398,-3.0398,-3.0398,-3.0398,-3.0398,-3.0398,-3.0398,-3.0398,-3.0398,-3.0398,-3.0359,-3.014,-2.9448,-2.864,-2.8343,-2.8832,-2.8516,-2.8332,-2.8813,-2.8352,-2.7659,-2.7005,-2.7082,-2.7063,-2.6871,-2.6871,-2.6486,-2.5774,-2.5572,-2.5534,-2.5514,-2.5543,-2.562,-2.6006,-2.5737,-2.5609,-2.5788,-2.5788,-2.5703,-2.5703,-2.5703,-2.5701,-2.5681,-2.5601,-2.5539,-4.712,-4.7638,-4.62,-4.5969,-4.6487,-4.5853,-4.5565,-4.5468,-4.491,-4.4742,-4.4899,-4.5619,-4.5996,-4.6102,-4.5986,-4.6008,-4.6094,-4.5976,-4.5996,-4.6113,-4.6133,-4.6191,-4.625,-4.541,-4.5019,-4.4941,-4.4121,-4.3301,-4.2637,-4.2363,-4.1875,-4.1172,-4.0215,-3.9277,-3.8418,-3.7502,-3.6911,-3.666,-3.5911,-3.5014,-3.399,-3.3287,-3.2487,-3.1552,-3.0782,-3.0359,-3.0225,-3.0206,-3.0225,-3.0217,-3.011,-3.0148,-3.0379,-3.0263,-3.0321,-3.0564,-3.0583,-3.0583,-3.059,-3.0602,-3.0525,-3.0417,-3.0398,-3.034,-3.0244,-3.0321,-3.034,-3.0225,-3.0321,-3.0398,-3.0398,-3.0398,-3.0398,-3.0398,-3.0398,-3.0398,-3.0398,-3.0398,-3.0398,-3.0398,-3.0398,-3.0379,-3.0121,-2.941,-2.8909,-2.9063,-2.9044,-2.9006,-2.9006,-2.8409,-2.7909,-2.7852,-2.8313,-2.839,-2.7698,-2.7698,-2.7274,-2.6563,-2.637,-2.6351,-2.6409,-2.6351,-2.6592,-2.7479,-2.6389,-2.5911,-2.6459,-2.6169,-2.5801,-2.5703,-2.5703,-2.5703,-2.5703,-2.5684,-2.5664,-4.7411,-4.7946,-4.6333,-4.6161,-4.7003,-4.6187,-4.5926,-4.5969,-4.5545,-4.5391,-4.5493,-4.593,-4.6162,-4.6166,-4.571,-4.5523,-4.5566,-4.5117,-4.5137,-4.5566,-4.5605,-4.584,-4.623,-4.5898,-4.5703,-4.5683,-4.5312,-4.4668,-4.3867,-4.3808,-4.3144,-4.1836,-4.0547,-3.9647,-3.9146,-3.7866,-3.715,-3.7043,-3.6173,-3.5078,-3.3705,-3.3231,-3.2352,-3.1032,-3.059,-3.0398,-3.0398,-3.0398,-3.0398,-3.0398,-3.0398,-3.0398,-3.0398,-3.0398,-3.0398,-3.0398,-3.0398,-3.0398,-3.0398,-3.0398,-3.0398,-3.0398,-3.0852,-3.091,-3.0417,-3.0398,-3.0398,-3.0398,-3.0398,-3.0398,-3.0398,-3.0398,-3.0398,-3.0398,-3.0398,-3.0398,-3.0398,-3.0398,-3.0398,-3.0398,-3.0398,-3.0398,-3.0398,-2.966,-2.9333,-2.9679,-2.9813,-2.9794,-2.9794,-2.9506,-2.889,-2.8159,-2.8544,-2.8448,-2.7525,-2.7621,-2.7467,-2.6736,-2.6621,-2.6813,-2.7101,-2.7024,-2.6919,-2.72,-2.6356,-2.5851,-2.6289,-2.5996,-2.5742,-2.5703,-2.5703,-2.5703,-2.5703,-2.5703,-2.5703,-4.7528,-4.7852,-4.6315,-4.6161,-4.6868,-4.6242,-4.6028,-4.614,-4.6123,-4.6143,-4.6177,-4.6277,-4.6289,-4.623,-4.5586,-4.5312,-4.5195,-4.459,-4.4668,-4.5254,-4.5293,-4.5644,-4.625,-4.6289,-4.6289,-4.6289,-4.6289,-4.584,-4.5098,-4.5019,-4.4117,-4.2422,-4.1062,-4.0266,-3.9907,-3.845,-3.753,-3.7184,-3.6309,-3.5026,-3.341,-3.3045,-3.2179,-3.0833,-3.0506,-3.0398,-3.0398,-3.0398,-3.0398,-3.0398,-3.0398,-3.0398,-3.0398,-3.0398,-3.0398,-3.0398,-3.0398,-3.0487,-3.0679,-3.0698,-3.0679,-3.0698,-3.1121,-3.1129,-3.0508,-3.0398,-3.0398,-3.0398,-3.0398,-3.0398,-3.0398,-3.0398,-3.0398,-3.0398,-3.0398,-3.0398,-3.0398,-3.0398,-3.0398,-3.0398,-3.0398,-3.0398,-3.0263,-2.9813,-2.9679,-3.0217,-3.0398,-3.0398,-3.0398,-3.0398,-2.9794,-2.9063,-2.9006,-2.9006,-2.7698,-2.7852,-2.7832,-2.7044,-2.7121,-2.7332,-2.7544,-2.7157,-2.7119,-2.7121,-2.6323,-2.5899,-2.5918,-2.582,-2.5742,-2.5703,-2.5703,-2.5703,-2.5703,-2.5703,-2.5703,-4.7761,-4.7068,-4.6238,-4.5988,-4.6213,-4.6111,-4.6169,-4.6271,-4.6275,-4.6274,-4.6276,-4.6289,-4.6289,-4.6289,-4.6191,-4.6133,-4.6133,-4.6094,-4.6055,-4.6133,-4.6191,-4.623,-4.6289,-4.6289,-4.6289,-4.6289,-4.6289,-4.584,-4.5019,-4.498,-4.4104,-4.2492,-4.214,-4.1575,-4.0694,-3.967,-3.8821,-3.8078,-3.7098,-3.5795,-3.418,-3.3314,-3.248,-3.1588,-3.0814,-3.0398,-3.0494,-3.0398,-3.0398,-3.0398,-3.0398,-3.0398,-3.0398,-3.0398,-3.0398,-3.0398,-3.0398,-3.0717,-3.1472,-3.1569,-3.1569,-3.153,-3.0968,-3.0573,-3.0439,-3.0426,-3.0398,-3.0398,-3.0398,-3.0398,-3.0398,-3.0398,-3.0398,-3.0398,-3.0398,-3.0398,-3.0398,-3.0398,-3.0398,-3.0398,-3.0398,-3.0398,-3.0379,-3.0256,-3.0263,-3.0359,-3.0398,-3.0398,-3.0398,-3.0398,-3.0379,-3.0129,-3.0237,-3.0083,-2.9621,-2.9333,-2.8486,-2.7852,-2.8352,-2.8209,-2.7584,-2.7599,-2.7938,-2.7374,-2.6622,-2.5945,-2.625,-2.6309,-2.5703,-2.5703,-2.5703,-2.5703,-2.5703,-2.5703,-2.5703,-4.8548,-4.8585,-4.6687,-4.5981,-4.6098,-4.6196,-4.6254,-4.6293,-4.6293,-4.6303,-4.6289,-4.6289,-4.6289,-4.6289,-4.6289,-4.6289,-4.6289,-4.6289,-4.6289,-4.6289,-4.6289,-4.6289,-4.6289,-4.6289,-4.6289,-4.6289,-4.6289,-4.5859,-4.5039,-4.4442,-4.4015,-4.3654,-4.2768,-4.1938,-4.1416,-4.0111,-3.9191,-3.8821,-3.7445,-3.6372,-3.5617,-3.4366,-3.3282,-3.2439,-3.1595,-3.1429,-3.1698,-3.0956,-3.0641,-3.1083,-3.0698,-3.0398,-3.0398,-3.0398,-3.0398,-3.0417,-3.0902,-3.1537,-3.2346,-3.2417,-3.2205,-3.1742,-3.1826,-3.1501,-3.0541,-3.0867,-3.0987,-3.0494,-3.0398,-3.0398,-3.0398,-3.0398,-3.0398,-3.0398,-3.0398,-3.0398,-3.0398,-3.0398,-3.0398,-3.0398,-3.0398,-3.0398,-3.0398,-3.0398,-3.0398,-3.0398,-3.0398,-3.0398,-3.0398,-3.0398,-3.0398,-3.0333,-2.9987,-2.941,-2.9063,-2.8198,-2.7794,-2.7881,-2.7794,-2.742,-2.8161,-2.7507,-2.7405,-2.7436,-2.6432,-2.5831,-2.6052,-2.6035,-2.5703,-2.5684,-2.5703,-2.5699,-2.5644,-2.5646,-2.5654,-4.8818,-4.8921,-4.6889,-4.6074,-4.6152,-4.6269,-4.6289,-4.6289,-4.6289,-4.6289,-4.6289,-4.6289,-4.6289,-4.6289,-4.6289,-4.6289,-4.6289,-4.6289,-4.6289,-4.6289,-4.6289,-4.6289,-4.6289,-4.6269,-4.6269,-4.6289,-4.6211,-4.5859,-4.5211,-4.4615,-4.4397,-4.4451,-4.3156,-4.2252,-4.1816,-4.0408,-3.9561,-3.9196,-3.8007,-3.7194,-3.6612,-3.552,-3.4366,-3.3301,-3.2461,-3.2301,-3.2833,-3.1725,-3.1359,-3.1968,-3.1225,-3.0763,-3.0744,-3.0775,-3.0852,-3.1121,-3.1915,-3.2646,-3.3211,-3.3256,-3.2897,-3.2186,-3.2429,-3.1987,-3.0871,-3.0987,-3.116,-3.091,-3.0756,-3.0717,-3.0398,-3.0398,-3.0398,-3.0417,-3.0629,-3.0852,-3.0794,-3.0814,-3.0891,-3.0852,-3.0621,-3.0398,-3.0398,-3.0398,-3.0398,-3.0398,-3.0398,-3.0398,-3.0398,-3.0398,-3.0398,-3.034,-2.9486,-2.8736,-2.8217,-2.7717,-2.742,-2.7325,-2.7277,-2.7553,-2.832,-2.7217,-2.6693,-2.6707,-2.6056,-2.5802,-2.5859,-2.5762,-2.5664,-2.5644,-2.5634,-2.5632,-2.557,-2.5567,-2.5577,-4.8221,-4.7465,-4.6626,-4.6308,-4.6289,-4.6328,-4.6308,-4.6289,-4.6289,-4.6289,-4.6289,-4.6289,-4.6289,-4.6289,-4.6289,-4.6289,-4.6289,-4.6289,-4.6289,-4.6289,-4.6289,-4.6289,-4.6289,-4.6191,-4.6172,-4.6269,-4.6074,-4.5904,-4.5812,-4.5753,-4.5353,-4.4506,-4.3621,-4.2701,-4.1893,-4.095,-4.0081,-3.9427,-3.9119,-3.8387,-3.6944,-3.6642,-3.5729,-3.4307,-3.3294,-3.2904,-3.2968,-3.2827,-3.2788,-3.2852,-3.2071,-3.1648,-3.1641,-3.1641,-3.1968,-3.2699,-3.3551,-3.4064,-3.4129,-3.4166,-3.3761,-3.2941,-3.2289,-3.1448,-3.0775,-3.0583,-3.0871,-3.1549,-3.1569,-3.1261,-3.0706,-3.0609,-3.0564,-3.0629,-3.141,-3.1737,-3.1679,-3.1737,-3.1999,-3.18,-3.0999,-3.0467,-3.0398,-3.0398,-3.0398,-3.0398,-3.0398,-3.0398,-3.0398,-3.0398,-3.0398,-3.011,-2.9256,-2.8198,-2.8736,-2.7755,-2.7159,-2.7267,-2.7389,-2.7524,-2.678,-2.6201,-2.6172,-2.6113,-2.5859,-2.5723,-2.5703,-2.5664,-2.5605,-2.5582,-2.5547,-2.5537,-2.5503,-2.549,-2.5506,-4.8009,-4.6755,-4.7024,-4.6816,-4.6367,-4.6875,-4.6836,-4.6308,-4.6289,-4.6289,-4.6289,-4.6289,-4.6289,-4.6289,-4.623,-4.6211,-4.6289,-4.6289,-4.6289,-4.6289,-4.6289,-4.6289,-4.6289,-4.6247,-4.6197,-4.6158,-4.608,-4.599,-4.5905,-4.5853,-4.568,-4.5257,-4.4352,-4.347,-4.2624,-4.1755,-4.0924,-4.0119,-3.9585,-3.8988,-3.8296,-3.7276,-3.6406,-3.5776,-3.4441,-3.3999,-3.4564,-3.3513,-3.3147,-3.3699,-3.291,-3.2468,-3.2468,-3.2468,-3.2833,-3.3622,-3.4032,-3.4437,-3.4924,-3.5012,-3.4672,-3.378,-3.2942,-3.2365,-3.1877,-3.1095,-3.096,-3.2042,-3.1965,-3.1711,-3.1892,-3.1552,-3.1441,-3.1891,-3.191,-3.2083,-3.2275,-3.2122,-3.1922,-3.1896,-3.1114,-3.0417,-3.0398,-3.0398,-3.0398,-3.0398,-3.0398,-3.0417,-3.0448,-3.0467,-3.0467,-3.034,-2.9552,-2.8648,-2.8285,-2.7044,-2.6284,-2.693,-2.7257,-2.7269,-2.6828,-2.6133,-2.5977,-2.5918,-2.5723,-2.5684,-2.5673,-2.5666,-2.5599,-2.5548,-2.5534,-2.5464,-2.5456,-2.5446,-2.5428,-4.8301,-4.6992,-4.7656,-4.7344,-4.6465,-4.7226,-4.7109,-4.6348,-4.6289,-4.6289,-4.6289,-4.6289,-4.6289,-4.6289,-4.6211,-4.6178,-4.6226,-4.6191,-4.6191,-4.623,-4.6202,-4.6199,-4.6228,-4.6183,-4.6123,-4.6039,-4.6007,-4.593,-4.5815,-4.5757,-4.5738,-4.5661,-4.4759,-4.3893,-4.3085,-4.2233,-4.1366,-4.0543,-3.9965,-3.9604,-3.9204,-3.8142,-3.7401,-3.6958,-3.5738,-3.5128,-3.5488,-3.4353,-3.3987,-3.441,-3.3776,-3.3314,-3.3314,-3.3314,-3.3699,-3.4487,-3.4616,-3.4866,-3.5391,-3.5507,-3.5128,-3.4293,-3.3686,-3.3243,-3.2875,-3.1857,-3.2011,-3.2817,-3.2909,-3.2859,-3.3333,-3.3013,-3.2622,-3.2891,-3.266,-3.2699,-3.3179,-3.2583,-3.198,-3.1492,-3.0883,-3.0448,-3.0398,-3.0398,-3.0398,-3.0398,-3.0398,-3.0417,-3.0467,-3.0467,-3.0487,-3.0467,-2.9763,-2.8887,-2.8245,-2.711,-2.6063,-2.6468,-2.6611,-2.6729,-2.6797,-2.6152,-2.5781,-2.5723,-2.5684,-2.5664,-2.5659,-2.5632,-2.5596,-2.5543,-2.5476,-2.5406,-2.5389,-2.537,-2.537,-4.9121,-4.7754,-4.8496,-4.7793,-4.6543,-4.7226,-4.7109,-4.6387,-4.6289,-4.6289,-4.6289,-4.6289,-4.6289,-4.6289,-4.623,-4.6209,-4.6095,-4.5966,-4.5977,-4.6075,-4.5975,-4.6014,-4.6098,-4.5986,-4.5938,-4.589,-4.5834,-4.5738,-4.5624,-4.5605,-4.5605,-4.5451,-4.4837,-4.4049,-4.3143,-4.2425,-4.152,-4.0793,-4.0562,-4.0138,-3.9407,-3.9165,-3.8719,-3.7993,-3.7016,-3.6213,-3.5584,-3.5449,-3.5295,-3.5315,-3.4661,-3.4218,-3.4218,-3.4199,-3.4584,-3.5238,-3.543,-3.5468,-3.5488,-3.5488,-3.5147,-3.4485,-3.4205,-3.3808,-3.3352,-3.2897,-3.3089,-3.3974,-3.4097,-3.4389,-3.4974,-3.4557,-3.3846,-3.3167,-3.3603,-3.393,-3.4007,-3.3391,-3.2237,-3.091,-3.0417,-3.0398,-3.0398,-3.0398,-3.0398,-3.0398,-3.0398,-3.0398,-3.0436,-3.0448,-3.0467,-3.0383,-2.995,-2.9281,-2.8338,-2.7388,-2.6563,-2.5967,-2.59,-2.5933,-2.626,-2.5957,-2.5781,-2.5703,-2.5703,-2.5681,-2.5584,-2.557,-2.5499,-2.5446,-2.538,-2.5351,-2.5351,-2.5332,-2.5332,-4.8633,-4.7676,-4.7871,-4.7363,-4.6465,-4.7226,-4.7109,-4.6348,-4.6289,-4.6289,-4.6289,-4.6289,-4.6269,-4.6152,-4.6074,-4.5982,-4.5888,-4.5757,-4.5789,-4.5917,-4.5911,-4.5929,-4.5947,-4.5905,-4.5872,-4.5811,-4.5719,-4.5642,-4.5605,-4.5586,-4.5586,-4.5509,-4.5316,-4.4739,-4.3929,-4.3618,-4.2868,-4.1559,-4.1408,-4.0969,-4.0142,-3.9588,-3.9165,-3.8777,-3.7488,-3.6546,-3.6329,-3.5795,-3.5507,-3.5507,-3.5257,-3.5103,-3.5084,-3.5103,-3.5218,-3.5449,-3.5507,-3.5507,-3.5507,-3.5488,-3.5397,-3.5051,-3.4557,-3.4455,-3.4481,-3.3583,-3.3641,-3.4738,-3.4609,-3.4576,-3.5224,-3.5301,-3.4916,-3.4705,-3.441,-3.4449,-3.4584,-3.3417,-3.1878,-3.0706,-3.0398,-3.0398,-3.0398,-3.0398,-3.0398,-3.0398,-3.0436,-3.0448,-3.0467,-3.0506,-3.0602,-3.0575,-3.0131,-2.9642,-2.8675,-2.8116,-2.7672,-2.6699,-2.6169,-2.5986,-2.612,-2.5925,-2.5761,-2.5681,-2.567,-2.5642,-2.5556,-2.5493,-2.5448,-2.5407,-2.538,-2.5351,-2.5313,-2.5313,-2.5313,-4.8691,-4.7676,-4.7949,-4.7383,-4.6465,-4.7246,-4.7285,-4.6836,-4.6777,-4.6797,-4.6797,-4.6738,-4.6472,-4.6145,-4.5972,-4.5861,-4.5774,-4.5738,-4.5776,-4.5849,-4.58,-4.5805,-4.5851,-4.5815,-4.5815,-4.5776,-4.5661,-4.5586,-4.5586,-4.5586,-4.5586,-4.5586,-4.5586,-4.5141,-4.4391,-4.4275,-4.3583,-4.2428,-4.1966,-4.1527,-4.0927,-4.0181,-3.9762,-3.955,-3.8396,-3.7579,-3.7203,-3.6386,-3.5795,-3.557,-3.5507,-3.5507,-3.5507,-3.5488,-3.5507,-3.5507,-3.5507,-3.5507,-3.5507,-3.5507,-3.5507,-3.5378,-3.4993,-3.4883,-3.5199,-3.4321,-3.4514,-3.5141,-3.5051,-3.4903,-3.5378,-3.5488,-3.5507,-3.5488,-3.5026,-3.4641,-3.4449,-3.3032,-3.1616,-3.0706,-3.0398,-3.0398,-3.0398,-3.0417,-3.0448,-3.0448,-3.0467,-3.0494,-3.0505,-3.0552,-3.059,-3.0625,-3.0459,-2.983,-2.8994,-2.8753,-2.8724,-2.7779,-2.6776,-2.6622,-2.6599,-2.6022,-2.5653,-2.5618,-2.5604,-2.5554,-2.548,-2.5479,-2.5447,-2.5409,-2.537,-2.5351,-2.5313,-2.5313,-2.5313,-4.9121,-4.7793,-4.8398,-4.7695,-4.6465,-4.7129,-4.7383,-4.7441,-4.7402,-4.7344,-4.7344,-4.7151,-4.679,-4.6181,-4.596,-4.5861,-4.5815,-4.5853,-4.5847,-4.5803,-4.5735,-4.5722,-4.5794,-4.5699,-4.5699,-4.5738,-4.5661,-4.5586,-4.5586,-4.5586,-4.5586,-4.5586,-4.5547,-4.5238,-4.4641,-4.4414,-4.403,-4.3201,-4.2431,-4.2082,-4.1848,-4.1024,-4.0566,-4.0508,-3.9619,-3.871,-3.7877,-3.6906,-3.6161,-3.5603,-3.5507,-3.5507,-3.5507,-3.5507,-3.5507,-3.5507,-3.5507,-3.5507,-3.5507,-3.5507,-3.5507,-3.5488,-3.5449,-3.5488,-3.5411,-3.5315,-3.5218,-3.5468,-3.5416,-3.5416,-3.5488,-3.5507,-3.5507,-3.5507,-3.5391,-3.4737,-3.3103,-3.2282,-3.1693,-3.0763,-3.0398,-3.0436,-3.0456,-3.0448,-3.0467,-3.0487,-3.0479,-3.0481,-3.0472,-3.049,-3.0471,-3.0491,-3.054,-3.0044,-2.9248,-2.9486,-2.9334,-2.8174,-2.7316,-2.7122,-2.6766,-2.608,-2.5588,-2.5534,-2.5529,-2.5473,-2.5428,-2.5418,-2.5409,-2.5351,-2.5332,-2.5313,-2.5313,-2.5313,-2.5313,-4.8594,-4.7598,-4.7168,-4.6719,-4.6328,-4.6562,-4.666,-4.6641,-4.668,-4.6777,-4.666,-4.6499,-4.6403,-4.6093,-4.5966,-4.5873,-4.5885,-4.589,-4.5892,-4.5875,-4.5839,-4.5808,-4.577,-4.568,-4.5605,-4.5661,-4.5605,-4.5586,-4.5586,-4.5586,-4.5586,-4.5586,-4.5586,-4.5507,-4.5259,-4.5201,-4.4799,-4.4107,-4.3797,-4.3278,-4.2678,-4.1873,-4.1466,-4.1309,-4.0062,-3.8945,-3.7964,-3.6565,-3.5757,-3.5545,-3.5507,-3.5507,-3.5507,-3.5507,-3.5507,-3.5507,-3.5507,-3.5507,-3.5507,-3.5507,-3.5507,-3.5507,-3.5507,-3.5507,-3.5507,-3.5507,-3.5507,-3.5507,-3.5507,-3.5507,-3.5507,-3.5507,-3.5507,-3.5507,-3.5468,-3.4628,-3.2929,-3.291,-3.2795,-3.0948,-3.1052,-3.1032,-3.0782,-3.0544,-3.0525,-3.0518,-3.0499,-3.0472,-3.0462,-3.0488,-3.0494,-3.0502,-3.0441,-3.0037,-2.9795,-3.0074,-2.9725,-2.8501,-2.7806,-2.7513,-2.6889,-2.6044,-2.5658,-2.5446,-2.5462,-2.5428,-2.5399,-2.5351,-2.5332,-2.5313,-2.5313,-2.5313,-2.5313,-2.5313,-2.5313,-4.7832,-4.7012,-4.6504,-4.6289,-4.6289,-4.6289,-4.6484,-4.6797,-4.6855,-4.707,-4.7207,-4.6852,-4.6655,-4.66,-4.6123,-4.5921,-4.5908,-4.5958,-4.5987,-4.5969,-4.5909,-4.5859,-4.5783,-4.5661,-4.5586,-4.5586,-4.5586,-4.5586,-4.5586,-4.5586,-4.5586,-4.5586,-4.5586,-4.5586,-4.5547,-4.5566,-4.5374,-4.4857,-4.4547,-4.4047,-4.3568,-4.2412,-4.187,-4.1559,-4.0446,-3.9277,-3.8007,-3.6392,-3.5507,-3.5507,-3.5507,-3.5507,-3.5507,-3.5507,-3.5507,-3.5507,-3.5507,-3.5507,-3.5507,-3.5507,-3.5507,-3.5507,-3.5507,-3.5507,-3.5507,-3.5507,-3.5507,-3.5507,-3.5507,-3.5507,-3.5507,-3.5507,-3.5315,-3.5045,-3.5276,-3.4718,-3.2891,-3.3269,-3.3083,-3.2244,-3.2013,-3.2173,-3.1744,-3.1352,-3.1037,-3.0933,-3.067,-3.0574,-3.0463,-3.0487,-3.0506,-3.0487,-3.0487,-3.0194,-3.0042,-3.0269,-3.0264,-2.909,-2.8222,-2.7942,-2.6953,-2.6053,-2.5707,-2.5457,-2.5447,-2.5409,-2.5351,-2.5332,-2.5313,-2.5313,-2.5313,-2.5313,-2.5313,-2.5313,-2.5313,-4.709,-4.6308,-4.6289,-4.6289,-4.6308,-4.6406,-4.6797,-4.7324,-4.7461,-4.7812,-4.8047,-4.7558,-4.7051,-4.7252,-4.6468,-4.6108,-4.6149,-4.656,-4.6523,-4.6494,-4.6319,-4.6123,-4.6042,-4.572,-4.5605,-4.5586,-4.5586,-4.5586,-4.5586,-4.5586,-4.5586,-4.5586,-4.5586,-4.5586,-4.5586,-4.5586,-4.5586,-4.5413,-4.4893,-4.4586,-4.4222,-4.3124,-4.2351,-4.1886,-4.0466,-3.9411,-3.8065,-3.6584,-3.5545,-3.5641,-3.5565,-3.5507,-3.5507,-3.5507,-3.5507,-3.5507,-3.5507,-3.5507,-3.5507,-3.5507,-3.5507,-3.5507,-3.5507,-3.5507,-3.5507,-3.5507,-3.5507,-3.5507,-3.5507,-3.5507,-3.5507,-3.5507,-3.5238,-3.4872,-3.5161,-3.5045,-3.443,-3.3654,-3.3365,-3.3699,-3.3269,-3.3365,-3.3263,-3.275,-3.1761,-3.1326,-3.0975,-3.054,-3.0441,-3.0429,-3.0436,-3.0417,-3.0417,-3.0429,-3.0371,-3.0414,-3.0282,-2.9786,-2.8835,-2.8145,-2.6968,-2.6178,-2.5774,-2.5534,-2.5563,-2.5466,-2.5332,-2.5313,-2.5313,-2.5313,-2.5313,-2.5313,-2.5313,-2.5313,-2.5313,-4.709,-4.6289,-4.6289,-4.6289,-4.6406,-4.7012,-4.7031,-4.668,-4.7344,-4.7461,-4.6953,-4.6562,-4.6523,-4.6621,-4.6899,-4.7132,-4.7243,-4.7774,-4.8243,-4.8028,-4.724,-4.6894,-4.6576,-4.599,-4.5605,-4.5586,-4.5586,-4.5586,-4.5586,-4.5586,-4.5586,-4.5605,-4.5586,-4.5586,-4.5605,-4.5586,-4.5586,-4.5547,-4.5355,-4.5259,-4.5066,-4.422,-4.3294,-4.2541,-4.0119,-3.8945,-3.8541,-3.6738,-3.5853,-3.6117,-3.5872,-3.5526,-3.5584,-3.5565,-3.5584,-3.5584,-3.5526,-3.5507,-3.5507,-3.5507,-3.5507,-3.5507,-3.5507,-3.5507,-3.5507,-3.5507,-3.5507,-3.5507,-3.5507,-3.5507,-3.5507,-3.5507,-3.5372,-3.5238,-3.5315,-3.543,-3.5218,-3.5007,-3.4564,-3.4064,-3.3916,-3.391,-3.3801,-3.2737,-3.2018,-3.1711,-3.1179,-3.0564,-3.0456,-3.0475,-3.0398,-3.0398,-3.0398,-3.0417,-3.0417,-3.0398,-3.0294,-3.0179,-2.9448,-2.889,-2.7717,-2.6832,-2.6621,-2.6168,-2.5687,-2.5591,-2.5601,-2.5313,-2.5313,-2.5313,-2.5313,-2.5313,-2.5313,-2.5313,-2.5313,-4.709,-4.6308,-4.6289,-4.6289,-4.6445,-4.7187,-4.7344,-4.7148,-4.7832,-4.7949,-4.748,-4.7051,-4.6855,-4.6933,-4.7301,-4.7518,-4.7771,-4.8412,-4.8742,-4.8409,-4.7608,-4.7071,-4.6829,-4.6124,-4.5586,-4.5586,-4.5586,-4.5586,-4.5586,-4.5605,-4.5661,-4.5699,-4.5642,-4.5642,-4.568,-4.5624,-4.5586,-4.5586,-4.5586,-4.5586,-4.5451,-4.4739,-4.3624,-4.2371,-4.0042,-3.8869,-3.9022,-3.7257,-3.6507,-3.6463,-3.6059,-3.5757,-3.6007,-3.6065,-3.6051,-3.6031,-3.5661,-3.5526,-3.5507,-3.5507,-3.5507,-3.5507,-3.5507,-3.5507,-3.5507,-3.5507,-3.5507,-3.5507,-3.5507,-3.5507,-3.5507,-3.5507,-3.5507,-3.5507,-3.5507,-3.5507,-3.5507,-3.5507,-3.5353,-3.4757,-3.4757,-3.4737,-3.4257,-3.3141,-3.2872,-3.2814,-3.1641,-3.1044,-3.091,-3.0871,-3.0475,-3.0398,-3.0398,-3.0398,-3.0398,-3.0359,-3.0283,-3.0198,-2.9948,-2.9679,-2.9179,-2.839,-2.7717,-2.7082,-2.639,-2.614,-2.6063,-2.5717,-2.5332,-2.5322,-2.5322,-2.5303,-2.5313,-2.5313,-2.5313,-4.6973,-4.6289,-4.6289,-4.6289,-4.6465,-4.7363,-4.7617,-4.748,-4.8476,-4.8516,-4.834,-4.7695,-4.7207,-4.7558,-4.7773,-4.7871,-4.8398,-4.8855,-4.9417,-4.9182,-4.7988,-4.7467,-4.7067,-4.624,-4.5586,-4.5586,-4.5586,-4.5586,-4.5605,-4.5624,-4.5699,-4.5776,-4.5699,-4.5699,-4.5757,-4.568,-4.5586,-4.5586,-4.5586,-4.5586,-4.5528,-4.4874,-4.3816,-4.2181,-4.0258,-3.9407,-3.9196,-3.7969,-3.6969,-3.7016,-3.6502,-3.6439,-3.651,-3.6546,-3.6531,-3.6435,-3.5795,-3.5545,-3.5507,-3.5507,-3.5507,-3.5507,-3.5507,-3.5507,-3.5507,-3.5507,-3.5507,-3.5507,-3.5507,-3.5507,-3.5507,-3.5507,-3.5507,-3.5507,-3.5507,-3.5507,-3.5507,-3.5507,-3.5449,-3.543,-3.5218,-3.5128,-3.4718,-3.393,-3.393,-3.3641,-3.241,-3.1506,-3.1333,-3.1083,-3.0621,-3.0398,-3.0398,-3.0398,-3.0398,-3.0379,-3.0302,-3.0263,-3.0179,-3.0148,-3.0129,-2.9602,-2.8736,-2.7775,-2.7159,-2.6832,-2.6313,-2.5774,-2.5495,-2.5418,-2.5341,-2.5313,-2.5313,-2.5313,-2.5313,-4.6445,-4.6289,-4.6289,-4.6289,-4.6543,-4.7988,-4.7871,-4.6914,-4.8379,-4.8066,-4.6992,-4.666,-4.7168,-4.7617,-4.8437,-4.9375,-5.0156,-5.0411,-5.0461,-5.004,-4.8777,-4.7913,-4.7413,-4.6259,-4.5624,-4.5586,-4.5605,-4.5605,-4.5642,-4.5719,-4.5757,-4.5776,-4.5757,-4.5776,-4.5757,-4.568,-4.5586,-4.5586,-4.5586,-4.5586,-4.5509,-4.5105,-4.4335,-4.2662,-4.0604,-3.9815,-3.9792,-3.8719,-3.7815,-3.7945,-3.8464,-3.79,-3.6957,-3.6183,-3.5916,-3.5858,-3.5666,-3.5507,-3.5507,-3.5507,-3.5507,-3.5507,-3.5507,-3.5507,-3.5507,-3.5507,-3.5507,-3.5507,-3.5507,-3.5507,-3.5507,-3.5507,-3.5507,-3.5507,-3.5507,-3.5507,-3.5507,-3.5507,-3.5507,-3.5507,-3.543,-3.5301,-3.4834,-3.4199,-3.3622,-3.3083,-3.2102,-3.1352,-3.1102,-3.0852,-3.0494,-3.0398,-3.0398,-3.0398,-3.0398,-3.0398,-3.0359,-3.0359,-3.0302,-3.0302,-3.0302,-3.0321,-2.9687,-2.8506,-2.7621,-2.7101,-2.6544,-2.6043,-2.589,-2.5986,-2.5697,-2.5313,-2.5313,-2.5313,-2.5313,-4.6719,-4.6308,-4.6289,-4.6289,-4.6601,-4.8144,-4.8437,-4.8008,-4.9394,-4.9492,-4.8613,-4.832,-4.7969,-4.8086,-4.9043,-5.0098,-5.0566,-5.0617,-5.0271,-4.9561,-4.8362,-4.7625,-4.7394,-4.6144,-4.572,-4.5605,-4.568,-4.5699,-4.5699,-4.5757,-4.5813,-4.5815,-4.5757,-4.5738,-4.5757,-4.5661,-4.5605,-4.5586,-4.5586,-4.5586,-4.5451,-4.4913,-4.3797,-4.2816,-4.12,-4.0258,-4.0046,-3.8892,-3.8108,-3.8055,-3.7709,-3.7128,-3.6524,-3.613,-3.5858,-3.5968,-3.5718,-3.5507,-3.5507,-3.5507,-3.5507,-3.5507,-3.5507,-3.5507,-3.5507,-3.5507,-3.5507,-3.5507,-3.5507,-3.5507,-3.5507,-3.5507,-3.5507,-3.5507,-3.5507,-3.5507,-3.5507,-3.5507,-3.5507,-3.5411,-3.4949,-3.4814,-3.4968,-3.4218,-3.3276,-3.2449,-3.1679,-3.1237,-3.0891,-3.066,-3.0398,-3.0398,-3.0398,-3.0398,-3.0398,-3.0398,-3.0398,-3.0398,-3.0398,-3.0398,-3.0398,-3.0379,-2.9852,-2.889,-2.8159,-2.7755,-2.7409,-2.7121,-2.6851,-2.637,-2.5813,-2.537,-2.5332,-2.5313,-2.5313,-4.6933,-4.6289,-4.6289,-4.6289,-4.6582,-4.8164,-4.8652,-4.8789,-5.0273,-5.0273,-4.9531,-4.9609,-4.9023,-4.8613,-4.9433,-5.0391,-5.0192,-4.9984,-4.944,-4.8599,-4.76,-4.6971,-4.6682,-4.6124,-4.5661,-4.568,-4.5815,-4.5838,-4.5783,-4.5835,-4.5873,-4.583,-4.5719,-4.5699,-4.5757,-4.5661,-4.5605,-4.5586,-4.5586,-4.5586,-4.5201,-4.4028,-4.3085,-4.2931,-4.1412,-4.0485,-4.0335,-3.9431,-3.8531,-3.8104,-3.7396,-3.6484,-3.6024,-3.6054,-3.6279,-3.635,-3.5861,-3.5584,-3.5507,-3.5507,-3.5507,-3.5507,-3.5507,-3.5507,-3.5507,-3.5507,-3.5507,-3.5507,-3.5507,-3.5507,-3.5507,-3.5507,-3.5507,-3.5507,-3.5507,-3.5507,-3.5507,-3.5507,-3.5507,-3.518,-3.4507,-3.4372,-3.4603,-3.3968,-3.2968,-3.2218,-3.1468,-3.1064,-3.0737,-3.0583,-3.0398,-3.0398,-3.0398,-3.0398,-3.0398,-3.0398,-3.0398,-3.0398,-3.0398,-3.0398,-3.0398,-3.0398,-2.9794,-2.9371,-2.9371,-2.9006,-2.8621,-2.7736,-2.6813,-2.6063,-2.5659,-2.5409,-2.5332,-2.5313,-2.5313,-4.6387,-4.6289,-4.6289,-4.6289,-4.6562,-4.8125,-4.7988,-4.7129,-4.9336,-4.8906,-4.7422,-4.8418,-4.8965,-4.9043,-5.0118,-5.0548,-5.0157,-4.9669,-4.904,-4.814,-4.7345,-4.6873,-4.6759,-4.6124,-4.5815,-4.5796,-4.5969,-4.5944,-4.5898,-4.5976,-4.599,-4.5916,-4.5847,-4.5853,-4.5796,-4.5699,-4.5586,-4.5586,-4.5605,-4.5605,-4.5316,-4.397,-4.3239,-4.2662,-4.1527,-4.045,-4.0412,-3.9873,-3.9373,-3.8171,-3.872,-3.7859,-3.6382,-3.66,-3.64,-3.6029,-3.5635,-3.5565,-3.5507,-3.5507,-3.5507,-3.5507,-3.5507,-3.5507,-3.5507,-3.5507,-3.5507,-3.5507,-3.5507,-3.5507,-3.5507,-3.5507,-3.5507,-3.5507,-3.5507,-3.5507,-3.5507,-3.5507,-3.5507,-3.5238,-3.4661,-3.4372,-3.4353,-3.3506,-3.2679,-3.1948,-3.1314,-3.0929,-3.066,-3.0533,-3.0398,-3.0398,-3.0398,-3.0398,-3.0398,-3.0398,-3.0398,-3.0398,-3.0398,-3.0398,-3.0398,-3.0398,-3.0379,-3.0102,-3.0063,-2.9467,-2.8409,-2.739,-2.639,-2.5928,-2.5717,-2.5505,-2.5313,-2.5313,-2.5313,-4.6289,-4.6289,-4.6289,-4.6289,-4.6465,-4.7637,-4.7754,-4.75,-4.8691,-4.8848,-4.8027,-4.8496,-4.8887,-4.9004,-4.9237,-4.8983,-4.8729,-4.8581,-4.7961,-4.733,-4.6714,-4.641,-4.6277,-4.6046,-4.5873,-4.5892,-4.6012,-4.6072,-4.6035,-4.6035,-4.6055,-4.6016,-4.5882,-4.5853,-4.5851,-4.5776,-4.5757,-4.5757,-4.5757,-4.5757,-4.5295,-4.4143,-4.3145,-4.3069,-4.147,-4.0581,-4.0134,-3.9954,-3.9131,-3.795,-3.8143,-3.7646,-3.6345,-3.6203,-3.6209,-3.5801,-3.5678,-3.5617,-3.5526,-3.5507,-3.5507,-3.5507,-3.5507,-3.5507,-3.5507,-3.5507,-3.5507,-3.5507,-3.5507,-3.5507,-3.5507,-3.5507,-3.5507,-3.5507,-3.5507,-3.5507,-3.5507,-3.5507,-3.543,-3.5141,-3.4878,-3.468,-3.4141,-3.2891,-3.2641,-3.2929,-3.191,-3.0987,-3.0794,-3.0717,-3.0552,-3.0398,-3.0398,-3.0398,-3.0398,-3.0398,-3.0398,-3.0398,-3.0398,-3.0398,-3.0398,-3.0398,-3.0398,-3.0179,-2.9813,-2.9044,-2.8063,-2.7448,-2.6832,-2.6351,-2.589,-2.5582,-2.5313,-2.5313,-2.5313,-4.6289,-4.6289,-4.6289,-4.6289,-4.6387,-4.7226,-4.7461,-4.7383,-4.8457,-4.8652,-4.8379,-4.8418,-4.8633,-4.873,-4.8301,-4.8064,-4.7611,-4.7404,-4.6846,-4.6302,-4.5984,-4.5954,-4.5978,-4.5912,-4.595,-4.5945,-4.6087,-4.6142,-4.6152,-4.6133,-4.6152,-4.6113,-4.5976,-4.5902,-4.5868,-4.5816,-4.5746,-4.5468,-4.5484,-4.5336,-4.4847,-4.3624,-4.3028,-4.2437,-4.1546,-4.0444,-3.999,-3.9663,-3.8774,-3.7848,-3.742,-3.7003,-3.606,-3.5976,-3.5962,-3.5698,-3.5656,-3.5603,-3.5526,-3.5507,-3.5507,-3.5507,-3.5507,-3.5507,-3.5507,-3.5507,-3.5507,-3.5507,-3.5507,-3.5507,-3.5507,-3.5507,-3.5507,-3.5507,-3.5507,-3.5507,-3.5507,-3.5507,-3.5449,-3.5257,-3.5103,-3.5103,-3.4237,-3.2506,-3.2391,-3.3449,-3.2756,-3.1275,-3.084,-3.0725,-3.0852,-3.0679,-3.0456,-3.0552,-3.0814,-3.0725,-3.0609,-3.0398,-3.0398,-3.0398,-3.0398,-3.0398,-3.0398,-3.0063,-2.9717,-2.9256,-2.864,-2.7986,-2.7313,-2.6351,-2.5572,-2.5447,-2.5313,-2.5313,-2.5313,-4.6289,-4.6289,-4.6289,-4.6289,-4.6348,-4.7246,-4.7109,-4.666,-4.8144,-4.7891,-4.6933,-4.7324,-4.8027,-4.8379,-4.8242,-4.786,-4.7352,-4.7262,-4.6741,-4.627,-4.5982,-4.5948,-4.5968,-4.6042,-4.6082,-4.6109,-4.6191,-4.625,-4.6269,-4.625,-4.6191,-4.6094,-4.6055,-4.5993,-4.5954,-4.5944,-4.5534,-4.5196,-4.501,-4.4513,-4.3812,-4.284,-4.229,-4.2055,-4.1328,-4.0688,-4.065,-4.0084,-3.9088,-3.8022,-3.7517,-3.6757,-3.6007,-3.5882,-3.5778,-3.5662,-3.5631,-3.5584,-3.5526,-3.5507,-3.5507,-3.5507,-3.5507,-3.5507,-3.5507,-3.5507,-3.5507,-3.5507,-3.5507,-3.5507,-3.5507,-3.5507,-3.5507,-3.5507,-3.5507,-3.5507,-3.5507,-3.5507,-3.5449,-3.5334,-3.5276,-3.5257,-3.5141,-3.3603,-3.2891,-3.3872,-3.2737,-3.1275,-3.0686,-3.0571,-3.1025,-3.1025,-3.0629,-3.0782,-3.1371,-3.1198,-3.0571,-3.0398,-3.0398,-3.0398,-3.0398,-3.0398,-3.0398,-3.0321,-3.0044,-2.964,-2.914,-2.839,-2.7428,-2.6033,-2.5399,-2.5793,-2.562,-2.5437,-2.538,-4.6289,-4.6289,-4.6289,-4.6289,-4.6308,-4.666,-4.6601,-4.6426,-4.7012,-4.6992,-4.6328,-4.6592,-4.6833,-4.7061,-4.7089,-4.6963,-4.6638,-4.6649,-4.6426,-4.6328,-4.6178,-4.6152,-4.6172,-4.6172,-4.6216,-4.623,-4.6269,-4.6289,-4.6289,-4.6289,-4.6269,-4.6211,-4.6133,-4.6137,-4.6128,-4.6016,-4.5566,-4.5039,-4.4766,-4.4394,-4.3527,-4.2685,-4.218,-4.2134,-4.1357,-4.0674,-4.0357,-4.0535,-3.9373,-3.8184,-3.7578,-3.6762,-3.5926,-3.583,-3.5738,-3.5622,-3.5603,-3.5565,-3.5507,-3.5507,-3.5507,-3.5507,-3.5507,-3.5507,-3.5526,-3.5507,-3.5507,-3.5507,-3.5507,-3.5507,-3.5545,-3.5526,-3.5507,-3.5507,-3.5507,-3.5507,-3.5565,-3.5603,-3.5488,-3.5391,-3.5353,-3.5334,-3.5218,-3.4916,-3.4449,-3.4122,-3.2699,-3.1448,-3.091,-3.0609,-3.1083,-3.1333,-3.1006,-3.1064,-3.1621,-3.1121,-3.0436,-3.0398,-3.0398,-3.0398,-3.0398,-3.0398,-3.0398,-3.0398,-3.0321,-2.989,-2.9333,-2.864,-2.7775,-2.6832,-2.6582,-2.6755,-2.637,-2.5687,-2.5476,-4.6289,-4.6289,-4.6289,-4.6289,-4.6289,-4.6289,-4.6289,-4.6289,-4.6328,-4.6289,-4.6289,-4.6166,-4.6073,-4.6047,-4.6118,-4.6143,-4.6191,-4.625,-4.6308,-4.6289,-4.6289,-4.6289,-4.6289,-4.6289,-4.6269,-4.6289,-4.6289,-4.6289,-4.6289,-4.6289,-4.6289,-4.625,-4.6211,-4.623,-4.6191,-4.5957,-4.5488,-4.4805,-4.4238,-4.3789,-4.2832,-4.2246,-4.1894,-4.1838,-4.126,-4.0888,-4.0527,-4.0469,-3.9609,-3.8379,-3.75,-3.6894,-3.6196,-3.5724,-3.5688,-3.5622,-3.5584,-3.5545,-3.5526,-3.5507,-3.5507,-3.5507,-3.5853,-3.5757,-3.5603,-3.568,-3.5982,-3.5925,-3.5757,-3.5647,-3.5858,-3.5988,-3.6161,-3.6276,-3.5603,-3.5526,-3.5738,-3.5815,-3.5622,-3.5468,-3.5449,-3.5411,-3.518,-3.4968,-3.4314,-3.3872,-3.3045,-3.191,-3.1237,-3.1083,-3.1295,-3.1448,-3.1352,-3.1564,-3.1814,-3.1083,-3.0436,-3.0398,-3.0398,-3.0398,-3.0398,-3.0398,-3.0398,-3.0398,-3.0263,-3.0044,-2.9756,-2.939,-2.8717,-2.7948,-2.7736,-2.7448,-2.6736,-2.6053,-2.5668,-4.6289,-4.6289,-4.6289,-4.6289,-4.6289,-4.6289,-4.6289,-4.6289,-4.6289,-4.6289,-4.6269,-4.6147,-4.6037,-4.5982,-4.6078,-4.6055,-4.6035,-4.6191,-4.6289,-4.6289,-4.6289,-4.6289,-4.6289,-4.6269,-4.625,-4.6289,-4.625,-4.623,-4.6269,-4.6269,-4.6269,-4.6289,-4.6269,-4.6191,-4.6191,-4.5449,-4.4629,-4.3769,-4.2988,-4.2324,-4.1699,-4.1387,-4.1367,-4.1324,-4.1208,-4.096,-4.0918,-4.0566,-3.9785,-3.8809,-3.7851,-3.7061,-3.6095,-3.5783,-3.5649,-3.5545,-3.5526,-3.5526,-3.5551,-3.5545,-3.5666,-3.5911,-3.6449,-3.6397,-3.5949,-3.6155,-3.6458,-3.6194,-3.6084,-3.6435,-3.6642,-3.668,-3.6781,-3.668,-3.6007,-3.568,-3.5911,-3.5834,-3.5603,-3.5507,-3.5507,-3.5449,-3.5199,-3.4814,-3.4026,-3.3487,-3.3064,-3.241,-3.1641,-3.1448,-3.1583,-3.1641,-3.1621,-3.1756,-3.1795,-3.0987,-3.0467,-3.0417,-3.0398,-3.0398,-3.0398,-3.0398,-3.0398,-3.0398,-3.0321,-3.0186,-3.0263,-3.0283,-2.9563,-2.8832,-2.8255,-2.7813,-2.7082,-2.6428,-2.5986,-4.6289,-4.6289,-4.6289,-4.6289,-4.6289,-4.6289,-4.6289,-4.6289,-4.6289,-4.6289,-4.6269,-4.6158,-4.6091,-4.607,-4.6073,-4.6074,-4.6074,-4.6191,-4.6289,-4.6289,-4.6289,-4.623,-4.618,-4.6153,-4.613,-4.6055,-4.6055,-4.6113,-4.6152,-4.6172,-4.623,-4.6269,-4.625,-4.5957,-4.5547,-4.4941,-4.4394,-4.3086,-4.248,-4.2051,-4.1308,-4.1172,-4.1152,-4.1191,-4.1152,-4.1152,-4.1191,-4.0762,-4.0195,-3.9297,-3.8359,-3.7468,-3.6487,-3.6087,-3.5655,-3.5565,-3.5512,-3.5801,-3.6113,-3.6368,-3.6613,-3.7026,-3.7291,-3.7171,-3.6546,-3.7089,-3.6892,-3.6507,-3.6685,-3.6978,-3.6882,-3.6728,-3.6767,-3.682,-3.6411,-3.6103,-3.6045,-3.5738,-3.5507,-3.5507,-3.5507,-3.5507,-3.5334,-3.5141,-3.4449,-3.3853,-3.3506,-3.2795,-3.2006,-3.1795,-3.1795,-3.1852,-3.1891,-3.1968,-3.1814,-3.1506,-3.1141,-3.1064,-3.0756,-3.0398,-3.0398,-3.0398,-3.0398,-3.0398,-3.0398,-3.0398,-3.0398,-3.0359,-3.0186,-2.9698,-2.9083,-2.8429,-2.7755,-2.6948,-2.6178,-4.6289,-4.6289,-4.6289,-4.6289,-4.6289,-4.6289,-4.6289,-4.6289,-4.6289,-4.6289,-4.6269,-4.6172,-4.6101,-4.6102,-4.6119,-4.6111,-4.6113,-4.623,-4.625,-4.625,-4.623,-4.6134,-4.6061,-4.6015,-4.5996,-4.5903,-4.5916,-4.5976,-4.6035,-4.6074,-4.6172,-4.6269,-4.6269,-4.582,-4.5312,-4.4844,-4.4375,-4.3223,-4.2656,-4.2012,-4.1445,-4.1191,-4.1191,-4.1191,-4.1191,-4.1191,-4.1191,-4.1035,-4.0658,-3.9638,-3.8723,-3.7822,-3.6837,-3.6308,-3.5935,-3.5935,-3.5968,-3.6358,-3.6921,-3.716,-3.7689,-3.8748,-3.8638,-3.8035,-3.7414,-3.7632,-3.7358,-3.7132,-3.7324,-3.7482,-3.7463,-3.7267,-3.6901,-3.6974,-3.6584,-3.6257,-3.6142,-3.5853,-3.5507,-3.5507,-3.5507,-3.5507,-3.5488,-3.5334,-3.4988,-3.4487,-3.4007,-3.3276,-3.2602,-3.2391,-3.2429,-3.2641,-3.2468,-3.2429,-3.2545,-3.2545,-3.2179,-3.1775,-3.1275,-3.0737,-3.0398,-3.0398,-3.0398,-3.0398,-3.0398,-3.0398,-3.0398,-3.0321,-3.0244,-3.016,-2.9871,-2.9179,-2.8448,-2.761,-2.6743,-4.6289,-4.6289,-4.6289,-4.6289,-4.6289,-4.6289,-4.6289,-4.6289,-4.6289,-4.6289,-4.6289,-4.6172,-4.6133,-4.6113,-4.6116,-4.6134,-4.6152,-4.625,-4.623,-4.6189,-4.619,-4.6048,-4.597,-4.5954,-4.5939,-4.5902,-4.5908,-4.5918,-4.5939,-4.6075,-4.6191,-4.6269,-4.6289,-4.5879,-4.5449,-4.5156,-4.457,-4.3633,-4.2949,-4.2285,-4.168,-4.1406,-4.1348,-4.1289,-4.1191,-4.1191,-4.1191,-4.1133,-4.0293,-3.9393,-3.8587,-3.7448,-3.6727,-3.6507,-3.6613,-3.6781,-3.6752,-3.7194,-3.7493,-3.7602,-3.8577,-3.9488,-3.9546,-3.8881,-3.8381,-3.8146,-3.78,-3.7435,-3.7377,-3.8031,-3.842,-3.7805,-3.7228,-3.6916,-3.6469,-3.6315,-3.6295,-3.6026,-3.5622,-3.5507,-3.5507,-3.5507,-3.5507,-3.5391,-3.5276,-3.5007,-3.4622,-3.4545,-3.3853,-3.3179,-3.3333,-3.393,-3.3622,-3.3006,-3.3045,-3.3141,-3.3026,-3.2583,-3.1814,-3.1256,-3.0871,-3.0456,-3.0398,-3.0398,-3.0398,-3.0398,-3.0398,-3.0398,-3.0379,-3.0256,-3.0044,-2.9583,-2.8736,-2.8284,-2.7577,-4.6289,-4.6289,-4.6289,-4.6289,-4.6289,-4.6289,-4.6289,-4.6289,-4.6289,-4.6289,-4.6289,-4.6269,-4.6133,-4.625,-4.6222,-4.6191,-4.623,-4.6269,-4.6269,-4.6229,-4.619,-4.6085,-4.6008,-4.5957,-4.593,-4.589,-4.5871,-4.5931,-4.6051,-4.6152,-4.623,-4.6289,-4.6289,-4.6035,-4.5898,-4.5879,-4.4883,-4.4004,-4.3359,-4.2676,-4.2148,-4.1894,-4.166,-4.1348,-4.1289,-4.1269,-4.1211,-4.1191,-4.0565,-4.0269,-3.9523,-3.8705,-3.8537,-3.7021,-3.6122,-3.7516,-3.7588,-3.7588,-3.7411,-3.8228,-3.915,-3.9665,-3.9835,-3.9742,-3.9223,-3.8723,-3.8296,-3.7752,-3.7276,-3.7666,-3.7858,-3.7473,-3.7127,-3.682,-3.6334,-3.5988,-3.5968,-3.5853,-3.5507,-3.5507,-3.5507,-3.5507,-3.5507,-3.5488,-3.5372,-3.5276,-3.5218,-3.5199,-3.4988,-3.4257,-3.4026,-3.4622,-3.4449,-3.3718,-3.3493,-3.3532,-3.3526,-3.3314,-3.2494,-3.1731,-3.1314,-3.091,-3.0552,-3.0398,-3.0398,-3.0398,-3.0398,-3.0398,-3.0398,-3.014,-2.989,-2.9506,-2.9091,-2.8644,-2.8121,-4.5976,-4.623,-4.5918,-4.5976,-4.6211,-4.5937,-4.5801,-4.5859,-4.6133,-4.6289,-4.6269,-4.5918,-4.5781,-4.5664,-4.5391,-4.5371,-4.5723,-4.5723,-4.584,-4.6195,-4.623,-4.6065,-4.6003,-4.5938,-4.593,-4.5883,-4.5867,-4.5929,-4.6035,-4.6152,-4.623,-4.6289,-4.6289,-4.6055,-4.582,-4.5508,-4.4941,-4.416,-4.3516,-4.2949,-4.25,-4.219,-4.1827,-4.1406,-4.1367,-4.1426,-4.1211,-4.1172,-4.0937,-4.0559,-3.9726,-3.9052,-3.8652,-3.7046,-3.7031,-3.8234,-3.8055,-3.806,-3.807,-3.8281,-3.8877,-3.93,-3.9719,-3.9627,-3.9415,-3.8973,-3.831,-3.767,-3.7252,-3.6988,-3.6988,-3.6949,-3.6834,-3.6719,-3.6142,-3.5565,-3.5526,-3.5526,-3.5507,-3.5507,-3.5507,-3.5507,-3.5507,-3.5507,-3.5488,-3.5411,-3.5391,-3.5391,-3.5334,-3.5007,-3.4776,-3.5026,-3.4776,-3.4314,-3.4166,-3.4043,-3.4043,-3.3747,-3.2828,-3.2152,-3.1738,-3.1121,-3.0533,-3.0398,-3.0398,-3.0398,-3.0398,-3.0398,-3.0359,-3.0121,-3.0025,-2.989,-2.9548,-2.9072,-2.8497,-4.5351,-4.5957,-4.5234,-4.5293,-4.5918,-4.5215,-4.4902,-4.5,-4.5644,-4.6035,-4.582,-4.5234,-4.4902,-4.4785,-4.4375,-4.4414,-4.4844,-4.5078,-4.5293,-4.5976,-4.6152,-4.5957,-4.5531,-4.5742,-4.5637,-4.575,-4.5781,-4.5664,-4.5801,-4.582,-4.5859,-4.6133,-4.6094,-4.5703,-4.5,-4.4922,-4.4355,-4.3574,-4.3242,-4.2851,-4.2031,-4.1849,-4.1957,-4.1386,-4.1562,-4.1836,-4.1328,-4.0957,-4.0616,-4.0,-3.9441,-3.8768,-3.8003,-3.7954,-3.867,-3.8785,-3.8661,-3.8546,-3.8531,-3.8584,-3.8627,-3.8935,-3.9185,-3.9123,-3.8911,-3.8473,-3.7752,-3.7742,-3.742,-3.7175,-3.7142,-3.6699,-3.643,-3.6507,-3.6276,-3.5949,-3.5911,-3.5815,-3.5661,-3.56,-3.5423,-3.5454,-3.5479,-3.5479,-3.5412,-3.546,-3.5507,-3.5507,-3.5468,-3.5391,-3.5353,-3.5301,-3.5014,-3.4784,-3.4946,-3.4803,-3.4664,-3.4174,-3.323,-3.2584,-3.2173,-3.1371,-3.0436,-3.0398,-3.0398,-3.0398,-3.0398,-3.0398,-3.0398,-3.034,-3.0283,-3.034,-3.0035,-2.9532,-2.9046,-4.4121,-4.4297,-4.4082,-4.4141,-4.4277,-4.4101,-4.4004,-4.4023,-4.4219,-4.4316,-4.4277,-4.4121,-4.4023,-4.3926,-4.3652,-4.3711,-4.4004,-4.4394,-4.459,-4.5,-4.5449,-4.5254,-4.4609,-4.4944,-4.5082,-4.5137,-4.5156,-4.5215,-4.5312,-4.5254,-4.4941,-4.4531,-4.4863,-4.4863,-4.4082,-4.4004,-4.3594,-4.2793,-4.2656,-4.2519,-4.2033,-4.1892,-4.1936,-4.1325,-4.125,-4.1387,-4.1085,-4.0995,-4.0833,-4.0543,-4.0446,-3.9638,-3.8484,-3.9354,-3.9431,-3.9161,-3.9392,-3.9161,-3.8757,-3.8604,-3.8623,-3.8315,-3.8354,-3.833,-3.808,-3.7546,-3.7411,-3.7685,-3.7737,-3.7536,-3.7233,-3.6675,-3.6161,-3.6334,-3.643,-3.6334,-3.6295,-3.6142,-3.5911,-3.568,-3.5482,-3.5398,-3.5441,-3.5432,-3.5369,-3.5383,-3.546,-3.5507,-3.5507,-3.5449,-3.5449,-3.5383,-3.5216,-3.5124,-3.5354,-3.5315,-3.5036,-3.4587,-3.3758,-3.3166,-3.2571,-3.1621,-3.0679,-3.0475,-3.0398,-3.0398,-3.0398,-3.0398,-3.0398,-3.0398,-3.0398,-3.0398,-3.0398,-3.0016,-2.9605,-4.334,-4.3672,-4.3711,-4.3711,-4.3633,-4.3266,-4.3065,-4.3013,-4.2656,-4.25,-4.2598,-4.2891,-4.3125,-4.2988,-4.2773,-4.2891,-4.3105,-4.3574,-4.3808,-4.4141,-4.4433,-4.4375,-4.4219,-4.4121,-4.4246,-4.4355,-4.4414,-4.4512,-4.4746,-4.4512,-4.4121,-4.375,-4.416,-4.4004,-4.3242,-4.3047,-4.2715,-4.1914,-4.1914,-4.1875,-4.1875,-4.1931,-4.1782,-4.1222,-4.123,-4.1259,-4.096,-4.0909,-4.0842,-4.0583,-4.0258,-4.0142,-3.9469,-3.9681,-3.9777,-3.97,-3.97,-3.9585,-3.895,-3.8618,-3.8503,-3.7988,-3.795,-3.8099,-3.8108,-3.7728,-3.8075,-3.8334,-3.8291,-3.8108,-3.793,-3.7464,-3.6776,-3.6589,-3.6276,-3.5988,-3.6469,-3.6873,-3.6584,-3.6272,-3.5914,-3.5435,-3.5479,-3.5479,-3.5432,-3.5432,-3.5493,-3.5493,-3.5493,-3.5507,-3.5507,-3.546,-3.5304,-3.5289,-3.5417,-3.5369,-3.5181,-3.4706,-3.4183,-3.3242,-3.2391,-3.1648,-3.0968,-3.0698,-3.0494,-3.0398,-3.0398,-3.0398,-3.0398,-3.0398,-3.0398,-3.0398,-3.0398,-3.0398,-3.0071,-4.2285,-4.3027,-4.3125,-4.3105,-4.293,-4.2159,-4.184,-4.1801,-4.1191,-4.0957,-4.1191,-4.1777,-4.2031,-4.1816,-4.1445,-4.1699,-4.207,-4.2637,-4.2969,-4.3164,-4.3652,-4.3437,-4.3359,-4.3418,-4.3476,-4.3516,-4.3555,-4.3926,-4.4316,-4.3848,-4.3476,-4.3457,-4.3281,-4.3066,-4.2461,-4.2129,-4.1816,-4.1445,-4.1308,-4.1211,-4.1406,-4.1682,-4.1461,-4.1465,-4.1572,-4.1591,-4.107,-4.0784,-4.0745,-4.0513,-4.0142,-4.0104,-4.0046,-4.0008,-4.0085,-4.0085,-3.9931,-3.9758,-3.9354,-3.883,-3.8161,-3.7627,-3.7853,-3.8022,-3.8089,-3.8224,-3.857,-3.871,-3.8685,-3.8574,-3.8392,-3.7892,-3.7185,-3.6935,-3.6454,-3.6041,-3.6772,-3.7401,-3.7113,-3.6752,-3.6195,-3.5605,-3.5479,-3.5493,-3.5446,-3.5446,-3.5479,-3.5479,-3.5479,-3.5493,-3.5507,-3.5507,-3.5432,-3.5446,-3.5493,-3.5369,-3.5207,-3.5009,-3.4447,-3.3267,-3.2288,-3.1751,-3.1256,-3.0852,-3.0648,-3.0494,-3.0398,-3.0398,-3.0398,-3.0398,-3.0398,-3.0398,-3.0398,-3.0398,-3.0398,-3.9414,-3.9609,-4.0312,-4.0273,-3.9668,-3.9415,-3.9653,-4.014,-4.0069,-4.0318,-4.0625,-4.0293,-4.0254,-4.0371,-4.0273,-4.0449,-4.0859,-4.1582,-4.1758,-4.1797,-4.2891,-4.2578,-4.2305,-4.2519,-4.2617,-4.2695,-4.2734,-4.2793,-4.3301,-4.293,-4.2295,-4.1759,-4.2424,-4.2109,-4.1308,-4.1139,-4.1191,-4.0996,-4.1035,-4.1035,-4.1113,-4.1228,-4.1077,-4.1025,-4.0969,-4.095,-4.0804,-4.0737,-4.0737,-4.0616,-4.0431,-4.0354,-4.0315,-4.0277,-4.0335,-4.0335,-4.0181,-4.0065,-3.97,-3.9215,-3.8507,-3.8296,-3.8503,-3.8435,-3.8445,-3.8349,-3.8638,-3.8815,-3.8766,-3.8631,-3.8358,-3.7574,-3.694,-3.7555,-3.755,-3.7217,-3.74,-3.7472,-3.7297,-3.6782,-3.6192,-3.5756,-3.5493,-3.5417,-3.5223,-3.5273,-3.5383,-3.5369,-3.5289,-3.5369,-3.5507,-3.5507,-3.5507,-3.5507,-3.5493,-3.5339,-3.5184,-3.5062,-3.4787,-3.3851,-3.2961,-3.2109,-3.1602,-3.1218,-3.0802,-3.0533,-3.0475,-3.0398,-3.0398,-3.0398,-3.0398,-3.0398,-3.0398,-3.0398,-3.0398]}]]